<?xml version="1.0" encoding="UTF-8" standalone="no" ?>
<gpx xmlns="http://www.topografix.com/GPX/1/1" xmlns:xsi="http://www.w3.org/2001/XMLSchema-instance" xsi:schemaLocation="http://www.topografix.com/GPX/1/1 http://www.topografix.com/GPX/1/1/gpx.xsd" version="1.1" creator="VisuGPX - https://www.visugpx.com">
  <metadata>
    <name>3 Champsaur</name>
    <desc><![CDATA[Trois journée en boucle dans le Champsaur au départ de la Plaine de Chabotte]]></desc>
  </metadata>
  <trk>
    <name><![CDATA[20180620203420-TwDLZ]]></name>
    <trkseg>
      <trkpt lat="44.65298" lon="6.17695">
        <ele>1070</ele>
        <time>2018-05-10T08:22:27Z</time>
      </trkpt>
      <trkpt lat="44.65302" lon="6.17695">
        <ele>1070</ele>
        <time>2018-05-10T08:22:29Z</time>
      </trkpt>
      <trkpt lat="44.65298" lon="6.17697">
        <ele>1070</ele>
        <time>2018-05-10T08:22:45Z</time>
      </trkpt>
      <trkpt lat="44.65297" lon="6.17688">
        <ele>1070</ele>
        <time>2018-05-10T08:23:05Z</time>
      </trkpt>
      <trkpt lat="44.65294" lon="6.17687">
        <ele>1070</ele>
        <time>2018-05-10T08:23:31Z</time>
      </trkpt>
      <trkpt lat="44.6529" lon="6.17689">
        <ele>1070</ele>
        <time>2018-05-10T08:23:34Z</time>
      </trkpt>
      <trkpt lat="44.65265" lon="6.17677">
        <ele>1069</ele>
        <time>2018-05-10T08:23:50Z</time>
      </trkpt>
      <trkpt lat="44.6525" lon="6.17656">
        <ele>1067</ele>
        <time>2018-05-10T08:24:05Z</time>
      </trkpt>
      <trkpt lat="44.65234" lon="6.17619">
        <ele>1067</ele>
        <time>2018-05-10T08:24:26Z</time>
      </trkpt>
      <trkpt lat="44.65219" lon="6.17581">
        <ele>1067</ele>
        <time>2018-05-10T08:24:46Z</time>
      </trkpt>
      <trkpt lat="44.652" lon="6.17531">
        <ele>1067</ele>
        <time>2018-05-10T08:25:14Z</time>
      </trkpt>
      <trkpt lat="44.65185" lon="6.17488">
        <ele>1066</ele>
        <time>2018-05-10T08:25:38Z</time>
      </trkpt>
      <trkpt lat="44.65171" lon="6.17459">
        <ele>1065</ele>
        <time>2018-05-10T08:25:56Z</time>
      </trkpt>
      <trkpt lat="44.65166" lon="6.17433">
        <ele>1065</ele>
        <time>2018-05-10T08:26:10Z</time>
      </trkpt>
      <trkpt lat="44.6515" lon="6.17398">
        <ele>1064</ele>
        <time>2018-05-10T08:26:30Z</time>
      </trkpt>
      <trkpt lat="44.65138" lon="6.17363">
        <ele>1064</ele>
        <time>2018-05-10T08:26:50Z</time>
      </trkpt>
      <trkpt lat="44.6512" lon="6.17327">
        <ele>1064</ele>
        <time>2018-05-10T08:27:12Z</time>
      </trkpt>
      <trkpt lat="44.65093" lon="6.17307">
        <ele>1064</ele>
        <time>2018-05-10T08:27:35Z</time>
      </trkpt>
      <trkpt lat="44.65066" lon="6.17309">
        <ele>1063</ele>
        <time>2018-05-10T08:27:56Z</time>
      </trkpt>
      <trkpt lat="44.65045" lon="6.17311">
        <ele>1063</ele>
        <time>2018-05-10T08:28:12Z</time>
      </trkpt>
      <trkpt lat="44.65016" lon="6.17316">
        <ele>1063</ele>
        <time>2018-05-10T08:28:34Z</time>
      </trkpt>
      <trkpt lat="44.64999" lon="6.17319">
        <ele>1062</ele>
        <time>2018-05-10T08:28:48Z</time>
      </trkpt>
      <trkpt lat="44.64974" lon="6.17324">
        <ele>1062</ele>
        <time>2018-05-10T08:29:07Z</time>
      </trkpt>
      <trkpt lat="44.64943" lon="6.17334">
        <ele>1063</ele>
        <time>2018-05-10T08:29:28Z</time>
      </trkpt>
      <trkpt lat="44.64937" lon="6.17336">
        <ele>1063</ele>
        <time>2018-05-10T08:29:34Z</time>
      </trkpt>
      <trkpt lat="44.64929" lon="6.17339">
        <ele>1063</ele>
        <time>2018-05-10T08:29:39Z</time>
      </trkpt>
      <trkpt lat="44.64895" lon="6.17352">
        <ele>1063</ele>
        <time>2018-05-10T08:30:01Z</time>
      </trkpt>
      <trkpt lat="44.64878" lon="6.1737">
        <ele>1063</ele>
        <time>2018-05-10T08:30:25Z</time>
      </trkpt>
      <trkpt lat="44.64858" lon="6.17395">
        <ele>1064</ele>
        <time>2018-05-10T08:30:41Z</time>
      </trkpt>
      <trkpt lat="44.64827" lon="6.17404">
        <ele>1064</ele>
        <time>2018-05-10T08:31:00Z</time>
      </trkpt>
      <trkpt lat="44.64802" lon="6.17423">
        <ele>1065</ele>
        <time>2018-05-10T08:31:23Z</time>
      </trkpt>
      <trkpt lat="44.64788" lon="6.17435">
        <ele>1065</ele>
        <time>2018-05-10T08:31:36Z</time>
      </trkpt>
      <trkpt lat="44.64788" lon="6.17436">
        <ele>1065</ele>
        <time>2018-05-10T08:31:37Z</time>
      </trkpt>
      <trkpt lat="44.64785" lon="6.17442">
        <ele>1065</ele>
        <time>2018-05-10T08:31:42Z</time>
      </trkpt>
      <trkpt lat="44.64785" lon="6.17444">
        <ele>1065</ele>
        <time>2018-05-10T08:31:43Z</time>
      </trkpt>
      <trkpt lat="44.64784" lon="6.17446">
        <ele>1065</ele>
        <time>2018-05-10T08:31:44Z</time>
      </trkpt>
      <trkpt lat="44.64783" lon="6.17447">
        <ele>1065</ele>
        <time>2018-05-10T08:31:45Z</time>
      </trkpt>
      <trkpt lat="44.64783" lon="6.17449">
        <ele>1065</ele>
        <time>2018-05-10T08:31:46Z</time>
      </trkpt>
      <trkpt lat="44.64781" lon="6.17455">
        <ele>1065</ele>
        <time>2018-05-10T08:31:49Z</time>
      </trkpt>
      <trkpt lat="44.64779" lon="6.17462">
        <ele>1066</ele>
        <time>2018-05-10T08:31:52Z</time>
      </trkpt>
      <trkpt lat="44.64778" lon="6.17464">
        <ele>1066</ele>
        <time>2018-05-10T08:31:53Z</time>
      </trkpt>
      <trkpt lat="44.64778" lon="6.17467">
        <ele>1066</ele>
        <time>2018-05-10T08:31:54Z</time>
      </trkpt>
      <trkpt lat="44.64778" lon="6.17469">
        <ele>1066</ele>
        <time>2018-05-10T08:31:55Z</time>
      </trkpt>
      <trkpt lat="44.64778" lon="6.17471">
        <ele>1066</ele>
        <time>2018-05-10T08:31:56Z</time>
      </trkpt>
      <trkpt lat="44.6478" lon="6.17484">
        <ele>1066</ele>
        <time>2018-05-10T08:32:04Z</time>
      </trkpt>
      <trkpt lat="44.64785" lon="6.17502">
        <ele>1067</ele>
        <time>2018-05-10T08:32:13Z</time>
      </trkpt>
      <trkpt lat="44.64787" lon="6.17506">
        <ele>1067</ele>
        <time>2018-05-10T08:32:16Z</time>
      </trkpt>
      <trkpt lat="44.64794" lon="6.17531">
        <ele>1067</ele>
        <time>2018-05-10T08:32:32Z</time>
      </trkpt>
      <trkpt lat="44.64795" lon="6.17534">
        <ele>1067</ele>
        <time>2018-05-10T08:32:34Z</time>
      </trkpt>
      <trkpt lat="44.64797" lon="6.17545">
        <ele>1067</ele>
        <time>2018-05-10T08:32:40Z</time>
      </trkpt>
      <trkpt lat="44.64798" lon="6.17547">
        <ele>1067</ele>
        <time>2018-05-10T08:32:41Z</time>
      </trkpt>
      <trkpt lat="44.64798" lon="6.17549">
        <ele>1067</ele>
        <time>2018-05-10T08:32:42Z</time>
      </trkpt>
      <trkpt lat="44.64804" lon="6.17572">
        <ele>1068</ele>
        <time>2018-05-10T08:32:56Z</time>
      </trkpt>
      <trkpt lat="44.64805" lon="6.17574">
        <ele>1068</ele>
        <time>2018-05-10T08:32:57Z</time>
      </trkpt>
      <trkpt lat="44.64806" lon="6.17575">
        <ele>1068</ele>
        <time>2018-05-10T08:32:58Z</time>
      </trkpt>
      <trkpt lat="44.64807" lon="6.17582">
        <ele>1068</ele>
        <time>2018-05-10T08:33:02Z</time>
      </trkpt>
      <trkpt lat="44.64816" lon="6.17608">
        <ele>1067</ele>
        <time>2018-05-10T08:33:19Z</time>
      </trkpt>
      <trkpt lat="44.64817" lon="6.1761">
        <ele>1067</ele>
        <time>2018-05-10T08:33:20Z</time>
      </trkpt>
      <trkpt lat="44.64818" lon="6.17612">
        <ele>1067</ele>
        <time>2018-05-10T08:33:21Z</time>
      </trkpt>
      <trkpt lat="44.64818" lon="6.17614">
        <ele>1067</ele>
        <time>2018-05-10T08:33:22Z</time>
      </trkpt>
      <trkpt lat="44.64819" lon="6.17616">
        <ele>1067</ele>
        <time>2018-05-10T08:33:23Z</time>
      </trkpt>
      <trkpt lat="44.64819" lon="6.17618">
        <ele>1067</ele>
        <time>2018-05-10T08:33:24Z</time>
      </trkpt>
      <trkpt lat="44.64819" lon="6.17619">
        <ele>1067</ele>
        <time>2018-05-10T08:33:25Z</time>
      </trkpt>
      <trkpt lat="44.64819" lon="6.17621">
        <ele>1067</ele>
        <time>2018-05-10T08:33:26Z</time>
      </trkpt>
      <trkpt lat="44.64819" lon="6.17623">
        <ele>1067</ele>
        <time>2018-05-10T08:33:27Z</time>
      </trkpt>
      <trkpt lat="44.64819" lon="6.17626">
        <ele>1067</ele>
        <time>2018-05-10T08:33:29Z</time>
      </trkpt>
      <trkpt lat="44.64818" lon="6.17628">
        <ele>1067</ele>
        <time>2018-05-10T08:33:30Z</time>
      </trkpt>
      <trkpt lat="44.64803" lon="6.17644">
        <ele>1067</ele>
        <time>2018-05-10T08:33:48Z</time>
      </trkpt>
      <trkpt lat="44.64784" lon="6.17656">
        <ele>1067</ele>
        <time>2018-05-10T08:34:07Z</time>
      </trkpt>
      <trkpt lat="44.64768" lon="6.17667">
        <ele>1066</ele>
        <time>2018-05-10T08:34:22Z</time>
      </trkpt>
      <trkpt lat="44.64756" lon="6.17675">
        <ele>1066</ele>
        <time>2018-05-10T08:34:35Z</time>
      </trkpt>
      <trkpt lat="44.64753" lon="6.17677">
        <ele>1066</ele>
        <time>2018-05-10T08:34:38Z</time>
      </trkpt>
      <trkpt lat="44.64751" lon="6.17678">
        <ele>1066</ele>
        <time>2018-05-10T08:34:39Z</time>
      </trkpt>
      <trkpt lat="44.6475" lon="6.17679">
        <ele>1066</ele>
        <time>2018-05-10T08:34:40Z</time>
      </trkpt>
      <trkpt lat="44.64722" lon="6.17691">
        <ele>1066</ele>
        <time>2018-05-10T08:35:01Z</time>
      </trkpt>
      <trkpt lat="44.64692" lon="6.17696">
        <ele>1066</ele>
        <time>2018-05-10T08:35:24Z</time>
      </trkpt>
      <trkpt lat="44.6467" lon="6.17711">
        <ele>1067</ele>
        <time>2018-05-10T08:35:44Z</time>
      </trkpt>
      <trkpt lat="44.64659" lon="6.17729">
        <ele>1067</ele>
        <time>2018-05-10T08:36:00Z</time>
      </trkpt>
      <trkpt lat="44.64658" lon="6.1773">
        <ele>1067</ele>
        <time>2018-05-10T08:36:01Z</time>
      </trkpt>
      <trkpt lat="44.64649" lon="6.17758">
        <ele>1068</ele>
        <time>2018-05-10T08:36:18Z</time>
      </trkpt>
      <trkpt lat="44.64649" lon="6.1776">
        <ele>1068</ele>
        <time>2018-05-10T08:36:19Z</time>
      </trkpt>
      <trkpt lat="44.64649" lon="6.17762">
        <ele>1068</ele>
        <time>2018-05-10T08:36:20Z</time>
      </trkpt>
      <trkpt lat="44.64649" lon="6.17764">
        <ele>1068</ele>
        <time>2018-05-10T08:36:21Z</time>
      </trkpt>
      <trkpt lat="44.64649" lon="6.17777">
        <ele>1068</ele>
        <time>2018-05-10T08:36:29Z</time>
      </trkpt>
      <trkpt lat="44.64649" lon="6.17779">
        <ele>1068</ele>
        <time>2018-05-10T08:36:30Z</time>
      </trkpt>
      <trkpt lat="44.64648" lon="6.1778">
        <ele>1068</ele>
        <time>2018-05-10T08:36:31Z</time>
      </trkpt>
      <trkpt lat="44.64647" lon="6.17782">
        <ele>1068</ele>
        <time>2018-05-10T08:36:32Z</time>
      </trkpt>
      <trkpt lat="44.64646" lon="6.17783">
        <ele>1068</ele>
        <time>2018-05-10T08:36:33Z</time>
      </trkpt>
      <trkpt lat="44.64645" lon="6.17784">
        <ele>1069</ele>
        <time>2018-05-10T08:36:34Z</time>
      </trkpt>
      <trkpt lat="44.64631" lon="6.17798">
        <ele>1069</ele>
        <time>2018-05-10T08:36:49Z</time>
      </trkpt>
      <trkpt lat="44.64616" lon="6.17808">
        <ele>1069</ele>
        <time>2018-05-10T08:37:04Z</time>
      </trkpt>
      <trkpt lat="44.64596" lon="6.17821">
        <ele>1069</ele>
        <time>2018-05-10T08:37:22Z</time>
      </trkpt>
      <trkpt lat="44.64584" lon="6.1783">
        <ele>1069</ele>
        <time>2018-05-10T08:37:35Z</time>
      </trkpt>
      <trkpt lat="44.64575" lon="6.17833">
        <ele>1069</ele>
        <time>2018-05-10T08:37:44Z</time>
      </trkpt>
      <trkpt lat="44.64569" lon="6.17833">
        <ele>1068</ele>
        <time>2018-05-10T08:37:48Z</time>
      </trkpt>
      <trkpt lat="44.64567" lon="6.17833">
        <ele>1068</ele>
        <time>2018-05-10T08:37:49Z</time>
      </trkpt>
      <trkpt lat="44.64565" lon="6.17833">
        <ele>1068</ele>
        <time>2018-05-10T08:37:50Z</time>
      </trkpt>
      <trkpt lat="44.64564" lon="6.17833">
        <ele>1069</ele>
        <time>2018-05-10T08:37:51Z</time>
      </trkpt>
      <trkpt lat="44.64562" lon="6.17834">
        <ele>1069</ele>
        <time>2018-05-10T08:37:52Z</time>
      </trkpt>
      <trkpt lat="44.64561" lon="6.17834">
        <ele>1069</ele>
        <time>2018-05-10T08:37:53Z</time>
      </trkpt>
      <trkpt lat="44.64559" lon="6.17835">
        <ele>1069</ele>
        <time>2018-05-10T08:37:54Z</time>
      </trkpt>
      <trkpt lat="44.64558" lon="6.17836">
        <ele>1069</ele>
        <time>2018-05-10T08:37:55Z</time>
      </trkpt>
      <trkpt lat="44.64556" lon="6.17837">
        <ele>1069</ele>
        <time>2018-05-10T08:37:56Z</time>
      </trkpt>
      <trkpt lat="44.64555" lon="6.17839">
        <ele>1069</ele>
        <time>2018-05-10T08:37:57Z</time>
      </trkpt>
      <trkpt lat="44.64555" lon="6.17841">
        <ele>1069</ele>
        <time>2018-05-10T08:37:58Z</time>
      </trkpt>
      <trkpt lat="44.64552" lon="6.17874">
        <ele>1069</ele>
        <time>2018-05-10T08:38:15Z</time>
      </trkpt>
      <trkpt lat="44.64549" lon="6.17878">
        <ele>1069</ele>
        <time>2018-05-10T08:38:21Z</time>
      </trkpt>
      <trkpt lat="44.64548" lon="6.17879">
        <ele>1069</ele>
        <time>2018-05-10T08:38:22Z</time>
      </trkpt>
      <trkpt lat="44.64547" lon="6.1788">
        <ele>1069</ele>
        <time>2018-05-10T08:38:23Z</time>
      </trkpt>
      <trkpt lat="44.64546" lon="6.17881">
        <ele>1069</ele>
        <time>2018-05-10T08:38:24Z</time>
      </trkpt>
      <trkpt lat="44.64545" lon="6.17882">
        <ele>1069</ele>
        <time>2018-05-10T08:38:25Z</time>
      </trkpt>
      <trkpt lat="44.64543" lon="6.17885">
        <ele>1069</ele>
        <time>2018-05-10T08:38:28Z</time>
      </trkpt>
      <trkpt lat="44.64542" lon="6.17886">
        <ele>1069</ele>
        <time>2018-05-10T08:38:29Z</time>
      </trkpt>
      <trkpt lat="44.64521" lon="6.17899">
        <ele>1069</ele>
        <time>2018-05-10T08:38:48Z</time>
      </trkpt>
      <trkpt lat="44.64505" lon="6.1791">
        <ele>1070</ele>
        <time>2018-05-10T08:39:02Z</time>
      </trkpt>
      <trkpt lat="44.64504" lon="6.17911">
        <ele>1070</ele>
        <time>2018-05-10T08:39:03Z</time>
      </trkpt>
      <trkpt lat="44.64503" lon="6.17912">
        <ele>1070</ele>
        <time>2018-05-10T08:39:04Z</time>
      </trkpt>
      <trkpt lat="44.64478" lon="6.17927">
        <ele>1074</ele>
        <time>2018-05-10T08:39:23Z</time>
      </trkpt>
      <trkpt lat="44.64462" lon="6.17952">
        <ele>1076</ele>
        <time>2018-05-10T08:39:39Z</time>
      </trkpt>
      <trkpt lat="44.64461" lon="6.1797">
        <ele>1076</ele>
        <time>2018-05-10T08:39:51Z</time>
      </trkpt>
      <trkpt lat="44.64461" lon="6.17972">
        <ele>1076</ele>
        <time>2018-05-10T08:39:52Z</time>
      </trkpt>
      <trkpt lat="44.6446" lon="6.17974">
        <ele>1076</ele>
        <time>2018-05-10T08:39:53Z</time>
      </trkpt>
      <trkpt lat="44.6446" lon="6.17977">
        <ele>1076</ele>
        <time>2018-05-10T08:39:54Z</time>
      </trkpt>
      <trkpt lat="44.64459" lon="6.17979">
        <ele>1077</ele>
        <time>2018-05-10T08:39:55Z</time>
      </trkpt>
      <trkpt lat="44.6446" lon="6.17983">
        <ele>1077</ele>
        <time>2018-05-10T08:39:57Z</time>
      </trkpt>
      <trkpt lat="44.6446" lon="6.17985">
        <ele>1077</ele>
        <time>2018-05-10T08:39:58Z</time>
      </trkpt>
      <trkpt lat="44.64461" lon="6.17987">
        <ele>1077</ele>
        <time>2018-05-10T08:39:59Z</time>
      </trkpt>
      <trkpt lat="44.64461" lon="6.17989">
        <ele>1077</ele>
        <time>2018-05-10T08:40:00Z</time>
      </trkpt>
      <trkpt lat="44.64461" lon="6.17991">
        <ele>1077</ele>
        <time>2018-05-10T08:40:01Z</time>
      </trkpt>
      <trkpt lat="44.64461" lon="6.17993">
        <ele>1077</ele>
        <time>2018-05-10T08:40:02Z</time>
      </trkpt>
      <trkpt lat="44.64462" lon="6.17995">
        <ele>1076</ele>
        <time>2018-05-10T08:40:03Z</time>
      </trkpt>
      <trkpt lat="44.64457" lon="6.18019">
        <ele>1080</ele>
        <time>2018-05-10T08:40:17Z</time>
      </trkpt>
      <trkpt lat="44.64446" lon="6.18048">
        <ele>1082</ele>
        <time>2018-05-10T08:40:38Z</time>
      </trkpt>
      <trkpt lat="44.64441" lon="6.18065">
        <ele>1084</ele>
        <time>2018-05-10T08:40:47Z</time>
      </trkpt>
      <trkpt lat="44.64439" lon="6.18074">
        <ele>1085</ele>
        <time>2018-05-10T08:40:52Z</time>
      </trkpt>
      <trkpt lat="44.64436" lon="6.18099">
        <ele>1087</ele>
        <time>2018-05-10T08:41:06Z</time>
      </trkpt>
      <trkpt lat="44.64426" lon="6.18121">
        <ele>1088</ele>
        <time>2018-05-10T08:41:22Z</time>
      </trkpt>
      <trkpt lat="44.64414" lon="6.18139">
        <ele>1100</ele>
        <time>2018-05-10T08:41:37Z</time>
      </trkpt>
      <trkpt lat="44.6441" lon="6.18158">
        <ele>1099</ele>
        <time>2018-05-10T08:41:52Z</time>
      </trkpt>
      <trkpt lat="44.64406" lon="6.18183">
        <ele>1103</ele>
        <time>2018-05-10T08:42:06Z</time>
      </trkpt>
      <trkpt lat="44.64394" lon="6.18209">
        <ele>1107</ele>
        <time>2018-05-10T08:42:23Z</time>
      </trkpt>
      <trkpt lat="44.64392" lon="6.18212">
        <ele>1108</ele>
        <time>2018-05-10T08:42:25Z</time>
      </trkpt>
      <trkpt lat="44.64376" lon="6.18223">
        <ele>1110</ele>
        <time>2018-05-10T08:42:39Z</time>
      </trkpt>
      <trkpt lat="44.64368" lon="6.1823">
        <ele>1112</ele>
        <time>2018-05-10T08:42:46Z</time>
      </trkpt>
      <trkpt lat="44.64361" lon="6.18245">
        <ele>1114</ele>
        <time>2018-05-10T08:43:00Z</time>
      </trkpt>
      <trkpt lat="44.64357" lon="6.18274">
        <ele>1120</ele>
        <time>2018-05-10T08:43:17Z</time>
      </trkpt>
      <trkpt lat="44.64359" lon="6.18297">
        <ele>1121</ele>
        <time>2018-05-10T08:43:31Z</time>
      </trkpt>
      <trkpt lat="44.64362" lon="6.18314">
        <ele>1122</ele>
        <time>2018-05-10T08:43:42Z</time>
      </trkpt>
      <trkpt lat="44.64363" lon="6.18337">
        <ele>1131</ele>
        <time>2018-05-10T08:43:56Z</time>
      </trkpt>
      <trkpt lat="44.64367" lon="6.18362">
        <ele>1132</ele>
        <time>2018-05-10T08:44:09Z</time>
      </trkpt>
      <trkpt lat="44.64368" lon="6.18368">
        <ele>1132</ele>
        <time>2018-05-10T08:44:13Z</time>
      </trkpt>
      <trkpt lat="44.64367" lon="6.18385">
        <ele>1134</ele>
        <time>2018-05-10T08:44:21Z</time>
      </trkpt>
      <trkpt lat="44.64367" lon="6.18386">
        <ele>1134</ele>
        <time>2018-05-10T08:44:22Z</time>
      </trkpt>
      <trkpt lat="44.64364" lon="6.18411">
        <ele>1138</ele>
        <time>2018-05-10T08:44:38Z</time>
      </trkpt>
      <trkpt lat="44.64367" lon="6.18434">
        <ele>1147</ele>
        <time>2018-05-10T08:44:52Z</time>
      </trkpt>
      <trkpt lat="44.64366" lon="6.1846">
        <ele>1148</ele>
        <time>2018-05-10T08:45:06Z</time>
      </trkpt>
      <trkpt lat="44.64369" lon="6.18485">
        <ele>1150</ele>
        <time>2018-05-10T08:45:18Z</time>
      </trkpt>
      <trkpt lat="44.64371" lon="6.18523">
        <ele>1157</ele>
        <time>2018-05-10T08:45:39Z</time>
      </trkpt>
      <trkpt lat="44.64362" lon="6.18521">
        <ele>1159</ele>
        <time>2018-05-10T08:46:03Z</time>
      </trkpt>
      <trkpt lat="44.64355" lon="6.18507">
        <ele>1161</ele>
        <time>2018-05-10T08:46:13Z</time>
      </trkpt>
      <trkpt lat="44.64354" lon="6.18505">
        <ele>1161</ele>
        <time>2018-05-10T08:46:15Z</time>
      </trkpt>
      <trkpt lat="44.64344" lon="6.18491">
        <ele>1159</ele>
        <time>2018-05-10T08:46:30Z</time>
      </trkpt>
      <trkpt lat="44.64334" lon="6.18475">
        <ele>1156</ele>
        <time>2018-05-10T08:46:41Z</time>
      </trkpt>
      <trkpt lat="44.64326" lon="6.1845">
        <ele>1169</ele>
        <time>2018-05-10T08:46:57Z</time>
      </trkpt>
      <trkpt lat="44.64314" lon="6.18427">
        <ele>1167</ele>
        <time>2018-05-10T08:47:14Z</time>
      </trkpt>
      <trkpt lat="44.64303" lon="6.18406">
        <ele>1161</ele>
        <time>2018-05-10T08:47:31Z</time>
      </trkpt>
      <trkpt lat="44.6429" lon="6.18388">
        <ele>1162</ele>
        <time>2018-05-10T08:47:47Z</time>
      </trkpt>
      <trkpt lat="44.64278" lon="6.18368">
        <ele>1162</ele>
        <time>2018-05-10T08:48:04Z</time>
      </trkpt>
      <trkpt lat="44.64262" lon="6.18345">
        <ele>1164</ele>
        <time>2018-05-10T08:48:25Z</time>
      </trkpt>
      <trkpt lat="44.64242" lon="6.18322">
        <ele>1167</ele>
        <time>2018-05-10T08:48:43Z</time>
      </trkpt>
      <trkpt lat="44.64236" lon="6.18316">
        <ele>1166</ele>
        <time>2018-05-10T08:48:49Z</time>
      </trkpt>
      <trkpt lat="44.64213" lon="6.18301">
        <ele>1167</ele>
        <time>2018-05-10T08:49:09Z</time>
      </trkpt>
      <trkpt lat="44.64203" lon="6.18286">
        <ele>1167</ele>
        <time>2018-05-10T08:49:20Z</time>
      </trkpt>
      <trkpt lat="44.64194" lon="6.18273">
        <ele>1167</ele>
        <time>2018-05-10T08:49:29Z</time>
      </trkpt>
      <trkpt lat="44.64187" lon="6.18269">
        <ele>1167</ele>
        <time>2018-05-10T08:49:34Z</time>
      </trkpt>
      <trkpt lat="44.64162" lon="6.1826">
        <ele>1174</ele>
        <time>2018-05-10T08:49:53Z</time>
      </trkpt>
      <trkpt lat="44.64149" lon="6.18242">
        <ele>1172</ele>
        <time>2018-05-10T08:50:08Z</time>
      </trkpt>
      <trkpt lat="44.64149" lon="6.1824">
        <ele>1172</ele>
        <time>2018-05-10T08:50:09Z</time>
      </trkpt>
      <trkpt lat="44.64147" lon="6.18234">
        <ele>1172</ele>
        <time>2018-05-10T08:50:12Z</time>
      </trkpt>
      <trkpt lat="44.64131" lon="6.18207">
        <ele>1173</ele>
        <time>2018-05-10T08:50:30Z</time>
      </trkpt>
      <trkpt lat="44.64109" lon="6.18188">
        <ele>1175</ele>
        <time>2018-05-10T08:50:50Z</time>
      </trkpt>
      <trkpt lat="44.64102" lon="6.18188">
        <ele>1175</ele>
        <time>2018-05-10T08:50:56Z</time>
      </trkpt>
      <trkpt lat="44.64082" lon="6.18181">
        <ele>1184</ele>
        <time>2018-05-10T08:51:12Z</time>
      </trkpt>
      <trkpt lat="44.64069" lon="6.18168">
        <ele>1184</ele>
        <time>2018-05-10T08:51:28Z</time>
      </trkpt>
      <trkpt lat="44.64072" lon="6.18144">
        <ele>1180</ele>
        <time>2018-05-10T08:51:47Z</time>
      </trkpt>
      <trkpt lat="44.64069" lon="6.18117">
        <ele>1179</ele>
        <time>2018-05-10T08:52:06Z</time>
      </trkpt>
      <trkpt lat="44.64063" lon="6.18084">
        <ele>1177</ele>
        <time>2018-05-10T08:52:24Z</time>
      </trkpt>
      <trkpt lat="44.64054" lon="6.18072">
        <ele>1175</ele>
        <time>2018-05-10T08:52:44Z</time>
      </trkpt>
      <trkpt lat="44.6405" lon="6.1807">
        <ele>1175</ele>
        <time>2018-05-10T08:53:14Z</time>
      </trkpt>
      <trkpt lat="44.6404" lon="6.18056">
        <ele>1176</ele>
        <time>2018-05-10T08:53:30Z</time>
      </trkpt>
      <trkpt lat="44.64027" lon="6.1803">
        <ele>1176</ele>
        <time>2018-05-10T08:53:49Z</time>
      </trkpt>
      <trkpt lat="44.64018" lon="6.18039">
        <ele>1177</ele>
        <time>2018-05-10T08:54:04Z</time>
      </trkpt>
      <trkpt lat="44.64015" lon="6.18073">
        <ele>1180</ele>
        <time>2018-05-10T08:54:26Z</time>
      </trkpt>
      <trkpt lat="44.64015" lon="6.18102">
        <ele>1183</ele>
        <time>2018-05-10T08:54:45Z</time>
      </trkpt>
      <trkpt lat="44.64016" lon="6.18122">
        <ele>1183</ele>
        <time>2018-05-10T08:54:57Z</time>
      </trkpt>
      <trkpt lat="44.64016" lon="6.18128">
        <ele>1184</ele>
        <time>2018-05-10T08:55:00Z</time>
      </trkpt>
      <trkpt lat="44.64005" lon="6.18149">
        <ele>1187</ele>
        <time>2018-05-10T08:55:13Z</time>
      </trkpt>
      <trkpt lat="44.63999" lon="6.18164">
        <ele>1193</ele>
        <time>2018-05-10T08:55:27Z</time>
      </trkpt>
      <trkpt lat="44.63995" lon="6.18186">
        <ele>1202</ele>
        <time>2018-05-10T08:55:43Z</time>
      </trkpt>
      <trkpt lat="44.63994" lon="6.18208">
        <ele>1206</ele>
        <time>2018-05-10T08:55:59Z</time>
      </trkpt>
      <trkpt lat="44.63993" lon="6.18238">
        <ele>1205</ele>
        <time>2018-05-10T08:56:18Z</time>
      </trkpt>
      <trkpt lat="44.63988" lon="6.18264">
        <ele>1209</ele>
        <time>2018-05-10T08:56:34Z</time>
      </trkpt>
      <trkpt lat="44.63986" lon="6.18293">
        <ele>1213</ele>
        <time>2018-05-10T08:56:52Z</time>
      </trkpt>
      <trkpt lat="44.63993" lon="6.1832">
        <ele>1211</ele>
        <time>2018-05-10T08:57:11Z</time>
      </trkpt>
      <trkpt lat="44.63982" lon="6.18339">
        <ele>1215</ele>
        <time>2018-05-10T08:57:27Z</time>
      </trkpt>
      <trkpt lat="44.63973" lon="6.18346">
        <ele>1218</ele>
        <time>2018-05-10T08:57:35Z</time>
      </trkpt>
      <trkpt lat="44.63957" lon="6.18356">
        <ele>1222</ele>
        <time>2018-05-10T08:57:49Z</time>
      </trkpt>
      <trkpt lat="44.63944" lon="6.18364">
        <ele>1224</ele>
        <time>2018-05-10T08:58:01Z</time>
      </trkpt>
      <trkpt lat="44.63937" lon="6.18384">
        <ele>1226</ele>
        <time>2018-05-10T08:58:15Z</time>
      </trkpt>
      <trkpt lat="44.63938" lon="6.1841">
        <ele>1228</ele>
        <time>2018-05-10T08:58:32Z</time>
      </trkpt>
      <trkpt lat="44.63938" lon="6.1844">
        <ele>1232</ele>
        <time>2018-05-10T08:58:51Z</time>
      </trkpt>
      <trkpt lat="44.63934" lon="6.18465">
        <ele>1233</ele>
        <time>2018-05-10T08:59:06Z</time>
      </trkpt>
      <trkpt lat="44.63935" lon="6.18491">
        <ele>1237</ele>
        <time>2018-05-10T08:59:20Z</time>
      </trkpt>
      <trkpt lat="44.63935" lon="6.1852">
        <ele>1240</ele>
        <time>2018-05-10T08:59:36Z</time>
      </trkpt>
      <trkpt lat="44.63936" lon="6.18549">
        <ele>1241</ele>
        <time>2018-05-10T08:59:55Z</time>
      </trkpt>
      <trkpt lat="44.63936" lon="6.1855">
        <ele>1241</ele>
        <time>2018-05-10T08:59:56Z</time>
      </trkpt>
      <trkpt lat="44.63943" lon="6.1857">
        <ele>1242</ele>
        <time>2018-05-10T09:00:09Z</time>
      </trkpt>
      <trkpt lat="44.63946" lon="6.18587">
        <ele>1246</ele>
        <time>2018-05-10T09:00:19Z</time>
      </trkpt>
      <trkpt lat="44.63953" lon="6.18616">
        <ele>1245</ele>
        <time>2018-05-10T09:00:34Z</time>
      </trkpt>
      <trkpt lat="44.6395" lon="6.18665">
        <ele>1249</ele>
        <time>2018-05-10T09:00:56Z</time>
      </trkpt>
      <trkpt lat="44.63943" lon="6.18688">
        <ele>1255</ele>
        <time>2018-05-10T09:01:10Z</time>
      </trkpt>
      <trkpt lat="44.63941" lon="6.18712">
        <ele>1255</ele>
        <time>2018-05-10T09:01:22Z</time>
      </trkpt>
      <trkpt lat="44.63938" lon="6.18722">
        <ele>1257</ele>
        <time>2018-05-10T09:01:29Z</time>
      </trkpt>
      <trkpt lat="44.63935" lon="6.18759">
        <ele>1264</ele>
        <time>2018-05-10T09:01:47Z</time>
      </trkpt>
      <trkpt lat="44.63929" lon="6.18791">
        <ele>1263</ele>
        <time>2018-05-10T09:02:06Z</time>
      </trkpt>
      <trkpt lat="44.63924" lon="6.18804">
        <ele>1265</ele>
        <time>2018-05-10T09:02:16Z</time>
      </trkpt>
      <trkpt lat="44.63918" lon="6.18822">
        <ele>1270</ele>
        <time>2018-05-10T09:02:28Z</time>
      </trkpt>
      <trkpt lat="44.63912" lon="6.18837">
        <ele>1282</ele>
        <time>2018-05-10T09:02:40Z</time>
      </trkpt>
      <trkpt lat="44.63908" lon="6.1883">
        <ele>1283</ele>
        <time>2018-05-10T09:02:51Z</time>
      </trkpt>
      <trkpt lat="44.63902" lon="6.18822">
        <ele>1287</ele>
        <time>2018-05-10T09:03:18Z</time>
      </trkpt>
      <trkpt lat="44.63898" lon="6.1881">
        <ele>1290</ele>
        <time>2018-05-10T09:03:31Z</time>
      </trkpt>
      <trkpt lat="44.63893" lon="6.18797">
        <ele>1292</ele>
        <time>2018-05-10T09:03:44Z</time>
      </trkpt>
      <trkpt lat="44.63883" lon="6.18785">
        <ele>1294</ele>
        <time>2018-05-10T09:03:58Z</time>
      </trkpt>
      <trkpt lat="44.63878" lon="6.18776">
        <ele>1294</ele>
        <time>2018-05-10T09:04:06Z</time>
      </trkpt>
      <trkpt lat="44.63876" lon="6.18766">
        <ele>1295</ele>
        <time>2018-05-10T09:04:15Z</time>
      </trkpt>
      <trkpt lat="44.63871" lon="6.18746">
        <ele>1292</ele>
        <time>2018-05-10T09:04:34Z</time>
      </trkpt>
      <trkpt lat="44.63861" lon="6.18705">
        <ele>1293</ele>
        <time>2018-05-10T09:04:55Z</time>
      </trkpt>
      <trkpt lat="44.63857" lon="6.18697">
        <ele>1294</ele>
        <time>2018-05-10T09:05:00Z</time>
      </trkpt>
      <trkpt lat="44.63851" lon="6.18657">
        <ele>1293</ele>
        <time>2018-05-10T09:05:23Z</time>
      </trkpt>
      <trkpt lat="44.63845" lon="6.18625">
        <ele>1288</ele>
        <time>2018-05-10T09:05:42Z</time>
      </trkpt>
      <trkpt lat="44.63841" lon="6.18594">
        <ele>1290</ele>
        <time>2018-05-10T09:06:01Z</time>
      </trkpt>
      <trkpt lat="44.63834" lon="6.18566">
        <ele>1284</ele>
        <time>2018-05-10T09:06:21Z</time>
      </trkpt>
      <trkpt lat="44.63826" lon="6.18526">
        <ele>1301</ele>
        <time>2018-05-10T09:06:41Z</time>
      </trkpt>
      <trkpt lat="44.63817" lon="6.18494">
        <ele>1293</ele>
        <time>2018-05-10T09:06:59Z</time>
      </trkpt>
      <trkpt lat="44.63804" lon="6.18458">
        <ele>1298</ele>
        <time>2018-05-10T09:07:18Z</time>
      </trkpt>
      <trkpt lat="44.63791" lon="6.18413">
        <ele>1293</ele>
        <time>2018-05-10T09:07:40Z</time>
      </trkpt>
      <trkpt lat="44.63779" lon="6.1838">
        <ele>1295</ele>
        <time>2018-05-10T09:07:58Z</time>
      </trkpt>
      <trkpt lat="44.63773" lon="6.18351">
        <ele>1296</ele>
        <time>2018-05-10T09:08:15Z</time>
      </trkpt>
      <trkpt lat="44.6377" lon="6.18314">
        <ele>1291</ele>
        <time>2018-05-10T09:08:32Z</time>
      </trkpt>
      <trkpt lat="44.63759" lon="6.18284">
        <ele>1289</ele>
        <time>2018-05-10T09:08:51Z</time>
      </trkpt>
      <trkpt lat="44.6376" lon="6.18252">
        <ele>1292</ele>
        <time>2018-05-10T09:09:13Z</time>
      </trkpt>
      <trkpt lat="44.63757" lon="6.18227">
        <ele>1286</ele>
        <time>2018-05-10T09:09:29Z</time>
      </trkpt>
      <trkpt lat="44.63749" lon="6.1819">
        <ele>1305</ele>
        <time>2018-05-10T09:09:49Z</time>
      </trkpt>
      <trkpt lat="44.63755" lon="6.18165">
        <ele>1292</ele>
        <time>2018-05-10T09:10:07Z</time>
      </trkpt>
      <trkpt lat="44.63753" lon="6.18123">
        <ele>1284</ele>
        <time>2018-05-10T09:10:29Z</time>
      </trkpt>
      <trkpt lat="44.63755" lon="6.18085">
        <ele>1293</ele>
        <time>2018-05-10T09:10:47Z</time>
      </trkpt>
      <trkpt lat="44.63754" lon="6.18058">
        <ele>1283</ele>
        <time>2018-05-10T09:11:09Z</time>
      </trkpt>
      <trkpt lat="44.63751" lon="6.18036">
        <ele>1281</ele>
        <time>2018-05-10T09:11:28Z</time>
      </trkpt>
      <trkpt lat="44.63741" lon="6.17997">
        <ele>1297</ele>
        <time>2018-05-10T09:11:45Z</time>
      </trkpt>
      <trkpt lat="44.63737" lon="6.17977">
        <ele>1300</ele>
        <time>2018-05-10T09:12:03Z</time>
      </trkpt>
      <trkpt lat="44.63728" lon="6.17949">
        <ele>1301</ele>
        <time>2018-05-10T09:12:19Z</time>
      </trkpt>
      <trkpt lat="44.6372" lon="6.17947">
        <ele>1302</ele>
        <time>2018-05-10T09:12:49Z</time>
      </trkpt>
      <trkpt lat="44.63718" lon="6.17944">
        <ele>1302</ele>
        <time>2018-05-10T09:13:14Z</time>
      </trkpt>
      <trkpt lat="44.63713" lon="6.17916">
        <ele>1299</ele>
        <time>2018-05-10T09:13:32Z</time>
      </trkpt>
      <trkpt lat="44.63705" lon="6.17896">
        <ele>1300</ele>
        <time>2018-05-10T09:13:43Z</time>
      </trkpt>
      <trkpt lat="44.63692" lon="6.17873">
        <ele>1300</ele>
        <time>2018-05-10T09:13:58Z</time>
      </trkpt>
      <trkpt lat="44.6369" lon="6.17867">
        <ele>1300</ele>
        <time>2018-05-10T09:14:11Z</time>
      </trkpt>
      <trkpt lat="44.63686" lon="6.17866">
        <ele>1300</ele>
        <time>2018-05-10T09:14:13Z</time>
      </trkpt>
      <trkpt lat="44.63662" lon="6.17847">
        <ele>1307</ele>
        <time>2018-05-10T09:14:32Z</time>
      </trkpt>
      <trkpt lat="44.63645" lon="6.17826">
        <ele>1304</ele>
        <time>2018-05-10T09:14:49Z</time>
      </trkpt>
      <trkpt lat="44.63637" lon="6.17818">
        <ele>1304</ele>
        <time>2018-05-10T09:14:56Z</time>
      </trkpt>
      <trkpt lat="44.63618" lon="6.178">
        <ele>1303</ele>
        <time>2018-05-10T09:15:12Z</time>
      </trkpt>
      <trkpt lat="44.63601" lon="6.17785">
        <ele>1303</ele>
        <time>2018-05-10T09:15:28Z</time>
      </trkpt>
      <trkpt lat="44.63597" lon="6.17788">
        <ele>1303</ele>
        <time>2018-05-10T09:15:32Z</time>
      </trkpt>
      <trkpt lat="44.63596" lon="6.17791">
        <ele>1303</ele>
        <time>2018-05-10T09:15:36Z</time>
      </trkpt>
      <trkpt lat="44.63597" lon="6.17796">
        <ele>1303</ele>
        <time>2018-05-10T09:15:39Z</time>
      </trkpt>
      <trkpt lat="44.63594" lon="6.17829">
        <ele>1304</ele>
        <time>2018-05-10T09:15:57Z</time>
      </trkpt>
      <trkpt lat="44.63592" lon="6.17846">
        <ele>1307</ele>
        <time>2018-05-10T09:16:09Z</time>
      </trkpt>
      <trkpt lat="44.63593" lon="6.17866">
        <ele>1308</ele>
        <time>2018-05-10T09:16:20Z</time>
      </trkpt>
      <trkpt lat="44.63593" lon="6.17869">
        <ele>1308</ele>
        <time>2018-05-10T09:16:22Z</time>
      </trkpt>
      <trkpt lat="44.636" lon="6.17901">
        <ele>1310</ele>
        <time>2018-05-10T09:16:40Z</time>
      </trkpt>
      <trkpt lat="44.63601" lon="6.17903">
        <ele>1310</ele>
        <time>2018-05-10T09:16:43Z</time>
      </trkpt>
      <trkpt lat="44.63607" lon="6.17909">
        <ele>1310</ele>
        <time>2018-05-10T09:16:48Z</time>
      </trkpt>
      <trkpt lat="44.63625" lon="6.17919">
        <ele>1314</ele>
        <time>2018-05-10T09:17:03Z</time>
      </trkpt>
      <trkpt lat="44.63634" lon="6.17926">
        <ele>1314</ele>
        <time>2018-05-10T09:17:12Z</time>
      </trkpt>
      <trkpt lat="44.63664" lon="6.17941">
        <ele>1314</ele>
        <time>2018-05-10T09:17:35Z</time>
      </trkpt>
      <trkpt lat="44.63678" lon="6.17962">
        <ele>1308</ele>
        <time>2018-05-10T09:17:51Z</time>
      </trkpt>
      <trkpt lat="44.63677" lon="6.17977">
        <ele>1309</ele>
        <time>2018-05-10T09:18:02Z</time>
      </trkpt>
      <trkpt lat="44.63677" lon="6.17986">
        <ele>1311</ele>
        <time>2018-05-10T09:18:08Z</time>
      </trkpt>
      <trkpt lat="44.63678" lon="6.18024">
        <ele>1312</ele>
        <time>2018-05-10T09:18:28Z</time>
      </trkpt>
      <trkpt lat="44.63681" lon="6.18038">
        <ele>1312</ele>
        <time>2018-05-10T09:18:39Z</time>
      </trkpt>
      <trkpt lat="44.63683" lon="6.18043">
        <ele>1312</ele>
        <time>2018-05-10T09:18:42Z</time>
      </trkpt>
      <trkpt lat="44.63687" lon="6.18055">
        <ele>1312</ele>
        <time>2018-05-10T09:19:00Z</time>
      </trkpt>
      <trkpt lat="44.63685" lon="6.1806">
        <ele>1313</ele>
        <time>2018-05-10T09:19:28Z</time>
      </trkpt>
      <trkpt lat="44.6368" lon="6.18059">
        <ele>1313</ele>
        <time>2018-05-10T09:20:07Z</time>
      </trkpt>
      <trkpt lat="44.63681" lon="6.1806">
        <ele>1313</ele>
        <time>2018-05-10T09:20:32Z</time>
      </trkpt>
      <trkpt lat="44.63681" lon="6.18073">
        <ele>1315</ele>
        <time>2018-05-10T09:20:56Z</time>
      </trkpt>
      <trkpt lat="44.63681" lon="6.18078">
        <ele>1316</ele>
        <time>2018-05-10T09:20:59Z</time>
      </trkpt>
      <trkpt lat="44.6368" lon="6.18096">
        <ele>1317</ele>
        <time>2018-05-10T09:21:08Z</time>
      </trkpt>
      <trkpt lat="44.63678" lon="6.18102">
        <ele>1316</ele>
        <time>2018-05-10T09:21:12Z</time>
      </trkpt>
      <trkpt lat="44.63673" lon="6.18123">
        <ele>1316</ele>
        <time>2018-05-10T09:21:25Z</time>
      </trkpt>
      <trkpt lat="44.63669" lon="6.18141">
        <ele>1318</ele>
        <time>2018-05-10T09:21:39Z</time>
      </trkpt>
      <trkpt lat="44.63663" lon="6.18175">
        <ele>1328</ele>
        <time>2018-05-10T09:21:57Z</time>
      </trkpt>
      <trkpt lat="44.63665" lon="6.18205">
        <ele>1330</ele>
        <time>2018-05-10T09:22:15Z</time>
      </trkpt>
      <trkpt lat="44.63671" lon="6.18226">
        <ele>1321</ele>
        <time>2018-05-10T09:22:28Z</time>
      </trkpt>
      <trkpt lat="44.63675" lon="6.18258">
        <ele>1326</ele>
        <time>2018-05-10T09:22:46Z</time>
      </trkpt>
      <trkpt lat="44.63669" lon="6.18287">
        <ele>1323</ele>
        <time>2018-05-10T09:23:02Z</time>
      </trkpt>
      <trkpt lat="44.63668" lon="6.18288">
        <ele>1323</ele>
        <time>2018-05-10T09:23:05Z</time>
      </trkpt>
      <trkpt lat="44.63661" lon="6.18294">
        <ele>1333</ele>
        <time>2018-05-10T09:23:11Z</time>
      </trkpt>
      <trkpt lat="44.63646" lon="6.18294">
        <ele>1333</ele>
        <time>2018-05-10T09:23:23Z</time>
      </trkpt>
      <trkpt lat="44.63642" lon="6.18295">
        <ele>1333</ele>
        <time>2018-05-10T09:23:26Z</time>
      </trkpt>
      <trkpt lat="44.63637" lon="6.18311">
        <ele>1334</ele>
        <time>2018-05-10T09:23:37Z</time>
      </trkpt>
      <trkpt lat="44.63642" lon="6.18329">
        <ele>1334</ele>
        <time>2018-05-10T09:23:49Z</time>
      </trkpt>
      <trkpt lat="44.63643" lon="6.18333">
        <ele>1334</ele>
        <time>2018-05-10T09:23:52Z</time>
      </trkpt>
      <trkpt lat="44.6365" lon="6.18355">
        <ele>1335</ele>
        <time>2018-05-10T09:24:07Z</time>
      </trkpt>
      <trkpt lat="44.63652" lon="6.18362">
        <ele>1336</ele>
        <time>2018-05-10T09:24:11Z</time>
      </trkpt>
      <trkpt lat="44.63659" lon="6.1838">
        <ele>1336</ele>
        <time>2018-05-10T09:24:22Z</time>
      </trkpt>
      <trkpt lat="44.63661" lon="6.18385">
        <ele>1336</ele>
        <time>2018-05-10T09:24:25Z</time>
      </trkpt>
      <trkpt lat="44.6367" lon="6.18413">
        <ele>1335</ele>
        <time>2018-05-10T09:24:41Z</time>
      </trkpt>
      <trkpt lat="44.63678" lon="6.18445">
        <ele>1333</ele>
        <time>2018-05-10T09:25:00Z</time>
      </trkpt>
      <trkpt lat="44.63684" lon="6.1848">
        <ele>1333</ele>
        <time>2018-05-10T09:25:21Z</time>
      </trkpt>
      <trkpt lat="44.63684" lon="6.18507">
        <ele>1337</ele>
        <time>2018-05-10T09:25:36Z</time>
      </trkpt>
      <trkpt lat="44.63684" lon="6.18537">
        <ele>1337</ele>
        <time>2018-05-10T09:25:53Z</time>
      </trkpt>
      <trkpt lat="44.63689" lon="6.18572">
        <ele>1338</ele>
        <time>2018-05-10T09:26:13Z</time>
      </trkpt>
      <trkpt lat="44.6369" lon="6.18578">
        <ele>1338</ele>
        <time>2018-05-10T09:26:17Z</time>
      </trkpt>
      <trkpt lat="44.6369" lon="6.18584">
        <ele>1341</ele>
        <time>2018-05-10T09:26:31Z</time>
      </trkpt>
      <trkpt lat="44.63689" lon="6.18587">
        <ele>1341</ele>
        <time>2018-05-10T09:27:09Z</time>
      </trkpt>
      <trkpt lat="44.63689" lon="6.18588">
        <ele>1341</ele>
        <time>2018-05-10T09:27:21Z</time>
      </trkpt>
      <trkpt lat="44.6369" lon="6.1859">
        <ele>1341</ele>
        <time>2018-05-10T09:27:23Z</time>
      </trkpt>
      <trkpt lat="44.637" lon="6.18625">
        <ele>1341</ele>
        <time>2018-05-10T09:27:45Z</time>
      </trkpt>
      <trkpt lat="44.63703" lon="6.18652">
        <ele>1342</ele>
        <time>2018-05-10T09:28:02Z</time>
      </trkpt>
      <trkpt lat="44.63711" lon="6.18686">
        <ele>1345</ele>
        <time>2018-05-10T09:28:22Z</time>
      </trkpt>
      <trkpt lat="44.63714" lon="6.18701">
        <ele>1345</ele>
        <time>2018-05-10T09:28:33Z</time>
      </trkpt>
      <trkpt lat="44.63709" lon="6.18731">
        <ele>1346</ele>
        <time>2018-05-10T09:28:52Z</time>
      </trkpt>
      <trkpt lat="44.63707" lon="6.18731">
        <ele>1346</ele>
        <time>2018-05-10T09:28:53Z</time>
      </trkpt>
      <trkpt lat="44.63704" lon="6.18731">
        <ele>1346</ele>
        <time>2018-05-10T09:28:56Z</time>
      </trkpt>
      <trkpt lat="44.6368" lon="6.1874">
        <ele>1347</ele>
        <time>2018-05-10T09:29:17Z</time>
      </trkpt>
      <trkpt lat="44.63649" lon="6.18754">
        <ele>1350</ele>
        <time>2018-05-10T09:29:42Z</time>
      </trkpt>
      <trkpt lat="44.63627" lon="6.18764">
        <ele>1351</ele>
        <time>2018-05-10T09:30:01Z</time>
      </trkpt>
      <trkpt lat="44.63595" lon="6.18777">
        <ele>1352</ele>
        <time>2018-05-10T09:30:27Z</time>
      </trkpt>
      <trkpt lat="44.63568" lon="6.18791">
        <ele>1354</ele>
        <time>2018-05-10T09:30:52Z</time>
      </trkpt>
      <trkpt lat="44.6354" lon="6.18802">
        <ele>1355</ele>
        <time>2018-05-10T09:31:17Z</time>
      </trkpt>
      <trkpt lat="44.6353" lon="6.18805">
        <ele>1355</ele>
        <time>2018-05-10T09:31:26Z</time>
      </trkpt>
      <trkpt lat="44.63524" lon="6.18802">
        <ele>1355</ele>
        <time>2018-05-10T09:31:32Z</time>
      </trkpt>
      <trkpt lat="44.63519" lon="6.18794">
        <ele>1355</ele>
        <time>2018-05-10T09:31:38Z</time>
      </trkpt>
      <trkpt lat="44.63502" lon="6.18797">
        <ele>1356</ele>
        <time>2018-05-10T09:31:53Z</time>
      </trkpt>
      <trkpt lat="44.63473" lon="6.18811">
        <ele>1359</ele>
        <time>2018-05-10T09:32:13Z</time>
      </trkpt>
      <trkpt lat="44.63448" lon="6.18825">
        <ele>1360</ele>
        <time>2018-05-10T09:32:32Z</time>
      </trkpt>
      <trkpt lat="44.63447" lon="6.18826">
        <ele>1360</ele>
        <time>2018-05-10T09:32:34Z</time>
      </trkpt>
      <trkpt lat="44.63415" lon="6.18844">
        <ele>1364</ele>
        <time>2018-05-10T09:32:56Z</time>
      </trkpt>
      <trkpt lat="44.63394" lon="6.18857">
        <ele>1365</ele>
        <time>2018-05-10T09:33:12Z</time>
      </trkpt>
      <trkpt lat="44.63373" lon="6.18868">
        <ele>1365</ele>
        <time>2018-05-10T09:33:31Z</time>
      </trkpt>
      <trkpt lat="44.63371" lon="6.1887">
        <ele>1365</ele>
        <time>2018-05-10T09:33:41Z</time>
      </trkpt>
      <trkpt lat="44.63365" lon="6.18873">
        <ele>1365</ele>
        <time>2018-05-10T09:33:45Z</time>
      </trkpt>
      <trkpt lat="44.63351" lon="6.18896">
        <ele>1365</ele>
        <time>2018-05-10T09:34:03Z</time>
      </trkpt>
      <trkpt lat="44.63336" lon="6.18923">
        <ele>1366</ele>
        <time>2018-05-10T09:34:22Z</time>
      </trkpt>
      <trkpt lat="44.63327" lon="6.18937">
        <ele>1359</ele>
        <time>2018-05-10T09:34:35Z</time>
      </trkpt>
      <trkpt lat="44.63325" lon="6.1894">
        <ele>1359</ele>
        <time>2018-05-10T09:34:37Z</time>
      </trkpt>
      <trkpt lat="44.6332" lon="6.18952">
        <ele>1357</ele>
        <time>2018-05-10T09:34:45Z</time>
      </trkpt>
      <trkpt lat="44.63306" lon="6.18971">
        <ele>1356</ele>
        <time>2018-05-10T09:35:00Z</time>
      </trkpt>
      <trkpt lat="44.63297" lon="6.18986">
        <ele>1354</ele>
        <time>2018-05-10T09:35:13Z</time>
      </trkpt>
      <trkpt lat="44.63296" lon="6.18989">
        <ele>1354</ele>
        <time>2018-05-10T09:35:15Z</time>
      </trkpt>
      <trkpt lat="44.63297" lon="6.19013">
        <ele>1350</ele>
        <time>2018-05-10T09:35:31Z</time>
      </trkpt>
      <trkpt lat="44.633" lon="6.19024">
        <ele>1350</ele>
        <time>2018-05-10T09:35:39Z</time>
      </trkpt>
      <trkpt lat="44.63307" lon="6.19045">
        <ele>1350</ele>
        <time>2018-05-10T09:35:52Z</time>
      </trkpt>
      <trkpt lat="44.63313" lon="6.19072">
        <ele>1350</ele>
        <time>2018-05-10T09:36:06Z</time>
      </trkpt>
      <trkpt lat="44.63318" lon="6.19089">
        <ele>1347</ele>
        <time>2018-05-10T09:36:17Z</time>
      </trkpt>
      <trkpt lat="44.63323" lon="6.19102">
        <ele>1346</ele>
        <time>2018-05-10T09:36:25Z</time>
      </trkpt>
      <trkpt lat="44.63327" lon="6.19117">
        <ele>1343</ele>
        <time>2018-05-10T09:36:36Z</time>
      </trkpt>
      <trkpt lat="44.63324" lon="6.19135">
        <ele>1342</ele>
        <time>2018-05-10T09:36:45Z</time>
      </trkpt>
      <trkpt lat="44.63322" lon="6.19151">
        <ele>1341</ele>
        <time>2018-05-10T09:36:56Z</time>
      </trkpt>
      <trkpt lat="44.63321" lon="6.19155">
        <ele>1341</ele>
        <time>2018-05-10T09:36:58Z</time>
      </trkpt>
      <trkpt lat="44.63314" lon="6.19194">
        <ele>1335</ele>
        <time>2018-05-10T09:37:14Z</time>
      </trkpt>
      <trkpt lat="44.63307" lon="6.19226">
        <ele>1334</ele>
        <time>2018-05-10T09:37:29Z</time>
      </trkpt>
      <trkpt lat="44.63297" lon="6.19259">
        <ele>1333</ele>
        <time>2018-05-10T09:37:44Z</time>
      </trkpt>
      <trkpt lat="44.63288" lon="6.19287">
        <ele>1333</ele>
        <time>2018-05-10T09:38:00Z</time>
      </trkpt>
      <trkpt lat="44.63274" lon="6.19316">
        <ele>1332</ele>
        <time>2018-05-10T09:38:18Z</time>
      </trkpt>
      <trkpt lat="44.63252" lon="6.19345">
        <ele>1331</ele>
        <time>2018-05-10T09:38:37Z</time>
      </trkpt>
      <trkpt lat="44.63243" lon="6.19364">
        <ele>1323</ele>
        <time>2018-05-10T09:38:50Z</time>
      </trkpt>
      <trkpt lat="44.63229" lon="6.19394">
        <ele>1324</ele>
        <time>2018-05-10T09:39:07Z</time>
      </trkpt>
      <trkpt lat="44.63214" lon="6.19431">
        <ele>1325</ele>
        <time>2018-05-10T09:39:25Z</time>
      </trkpt>
      <trkpt lat="44.63201" lon="6.1946">
        <ele>1325</ele>
        <time>2018-05-10T09:39:40Z</time>
      </trkpt>
      <trkpt lat="44.63185" lon="6.19492">
        <ele>1323</ele>
        <time>2018-05-10T09:39:58Z</time>
      </trkpt>
      <trkpt lat="44.63172" lon="6.19524">
        <ele>1324</ele>
        <time>2018-05-10T09:40:17Z</time>
      </trkpt>
      <trkpt lat="44.63166" lon="6.19552">
        <ele>1316</ele>
        <time>2018-05-10T09:40:34Z</time>
      </trkpt>
      <trkpt lat="44.63159" lon="6.19576">
        <ele>1317</ele>
        <time>2018-05-10T09:40:51Z</time>
      </trkpt>
      <trkpt lat="44.63157" lon="6.1958">
        <ele>1317</ele>
        <time>2018-05-10T09:40:54Z</time>
      </trkpt>
      <trkpt lat="44.63156" lon="6.19583">
        <ele>1317</ele>
        <time>2018-05-10T09:40:56Z</time>
      </trkpt>
      <trkpt lat="44.63145" lon="6.19611">
        <ele>1317</ele>
        <time>2018-05-10T09:41:13Z</time>
      </trkpt>
      <trkpt lat="44.63134" lon="6.19647">
        <ele>1317</ele>
        <time>2018-05-10T09:41:34Z</time>
      </trkpt>
      <trkpt lat="44.63115" lon="6.1966">
        <ele>1316</ele>
        <time>2018-05-10T09:41:52Z</time>
      </trkpt>
      <trkpt lat="44.63094" lon="6.19666">
        <ele>1314</ele>
        <time>2018-05-10T09:42:10Z</time>
      </trkpt>
      <trkpt lat="44.63094" lon="6.19667">
        <ele>1315</ele>
        <time>2018-05-10T09:42:11Z</time>
      </trkpt>
      <trkpt lat="44.63088" lon="6.19683">
        <ele>1315</ele>
        <time>2018-05-10T09:42:22Z</time>
      </trkpt>
      <trkpt lat="44.63089" lon="6.19687">
        <ele>1316</ele>
        <time>2018-05-10T09:42:24Z</time>
      </trkpt>
      <trkpt lat="44.63076" lon="6.1972">
        <ele>1314</ele>
        <time>2018-05-10T09:42:43Z</time>
      </trkpt>
      <trkpt lat="44.63076" lon="6.19728">
        <ele>1314</ele>
        <time>2018-05-10T09:42:48Z</time>
      </trkpt>
      <trkpt lat="44.63074" lon="6.19739">
        <ele>1314</ele>
        <time>2018-05-10T09:42:56Z</time>
      </trkpt>
      <trkpt lat="44.63074" lon="6.19747">
        <ele>1314</ele>
        <time>2018-05-10T09:43:00Z</time>
      </trkpt>
      <trkpt lat="44.6307" lon="6.19781">
        <ele>1315</ele>
        <time>2018-05-10T09:43:17Z</time>
      </trkpt>
      <trkpt lat="44.63068" lon="6.19786">
        <ele>1315</ele>
        <time>2018-05-10T09:43:21Z</time>
      </trkpt>
      <trkpt lat="44.63064" lon="6.19795">
        <ele>1316</ele>
        <time>2018-05-10T09:43:26Z</time>
      </trkpt>
      <trkpt lat="44.63051" lon="6.19818">
        <ele>1316</ele>
        <time>2018-05-10T09:43:43Z</time>
      </trkpt>
      <trkpt lat="44.63028" lon="6.19847">
        <ele>1316</ele>
        <time>2018-05-10T09:44:04Z</time>
      </trkpt>
      <trkpt lat="44.63022" lon="6.19854">
        <ele>1316</ele>
        <time>2018-05-10T09:44:10Z</time>
      </trkpt>
      <trkpt lat="44.63016" lon="6.19855">
        <ele>1316</ele>
        <time>2018-05-10T09:44:14Z</time>
      </trkpt>
      <trkpt lat="44.62998" lon="6.19835">
        <ele>1315</ele>
        <time>2018-05-10T09:44:31Z</time>
      </trkpt>
      <trkpt lat="44.62978" lon="6.19817">
        <ele>1314</ele>
        <time>2018-05-10T09:44:49Z</time>
      </trkpt>
      <trkpt lat="44.62946" lon="6.19797">
        <ele>1314</ele>
        <time>2018-05-10T09:45:12Z</time>
      </trkpt>
      <trkpt lat="44.62919" lon="6.19788">
        <ele>1314</ele>
        <time>2018-05-10T09:45:32Z</time>
      </trkpt>
      <trkpt lat="44.62892" lon="6.19777">
        <ele>1313</ele>
        <time>2018-05-10T09:45:53Z</time>
      </trkpt>
      <trkpt lat="44.62862" lon="6.19753">
        <ele>1313</ele>
        <time>2018-05-10T09:46:18Z</time>
      </trkpt>
      <trkpt lat="44.62836" lon="6.19734">
        <ele>1312</ele>
        <time>2018-05-10T09:46:38Z</time>
      </trkpt>
      <trkpt lat="44.62804" lon="6.19722">
        <ele>1312</ele>
        <time>2018-05-10T09:47:02Z</time>
      </trkpt>
      <trkpt lat="44.62767" lon="6.1971">
        <ele>1313</ele>
        <time>2018-05-10T09:47:28Z</time>
      </trkpt>
      <trkpt lat="44.62727" lon="6.19696">
        <ele>1314</ele>
        <time>2018-05-10T09:47:55Z</time>
      </trkpt>
      <trkpt lat="44.62693" lon="6.19679">
        <ele>1314</ele>
        <time>2018-05-10T09:48:20Z</time>
      </trkpt>
      <trkpt lat="44.62657" lon="6.19662">
        <ele>1315</ele>
        <time>2018-05-10T09:48:46Z</time>
      </trkpt>
      <trkpt lat="44.62628" lon="6.19653">
        <ele>1315</ele>
        <time>2018-05-10T09:49:03Z</time>
      </trkpt>
      <trkpt lat="44.62605" lon="6.19646">
        <ele>1315</ele>
        <time>2018-05-10T09:49:21Z</time>
      </trkpt>
      <trkpt lat="44.62583" lon="6.19644">
        <ele>1315</ele>
        <time>2018-05-10T09:49:38Z</time>
      </trkpt>
      <trkpt lat="44.62555" lon="6.19636">
        <ele>1316</ele>
        <time>2018-05-10T09:49:57Z</time>
      </trkpt>
      <trkpt lat="44.62526" lon="6.19627">
        <ele>1316</ele>
        <time>2018-05-10T09:50:16Z</time>
      </trkpt>
      <trkpt lat="44.62497" lon="6.19617">
        <ele>1317</ele>
        <time>2018-05-10T09:50:37Z</time>
      </trkpt>
      <trkpt lat="44.62461" lon="6.19601">
        <ele>1317</ele>
        <time>2018-05-10T09:51:01Z</time>
      </trkpt>
      <trkpt lat="44.62425" lon="6.19582">
        <ele>1317</ele>
        <time>2018-05-10T09:51:26Z</time>
      </trkpt>
      <trkpt lat="44.62398" lon="6.19568">
        <ele>1317</ele>
        <time>2018-05-10T09:51:46Z</time>
      </trkpt>
      <trkpt lat="44.62374" lon="6.19556">
        <ele>1316</ele>
        <time>2018-05-10T09:52:04Z</time>
      </trkpt>
      <trkpt lat="44.62341" lon="6.19543">
        <ele>1316</ele>
        <time>2018-05-10T09:52:28Z</time>
      </trkpt>
      <trkpt lat="44.62311" lon="6.19532">
        <ele>1316</ele>
        <time>2018-05-10T09:52:50Z</time>
      </trkpt>
      <trkpt lat="44.62283" lon="6.1952">
        <ele>1315</ele>
        <time>2018-05-10T09:53:12Z</time>
      </trkpt>
      <trkpt lat="44.62281" lon="6.19519">
        <ele>1315</ele>
        <time>2018-05-10T09:53:24Z</time>
      </trkpt>
      <trkpt lat="44.6228" lon="6.19519">
        <ele>1315</ele>
        <time>2018-05-10T09:53:25Z</time>
      </trkpt>
      <trkpt lat="44.62279" lon="6.19518">
        <ele>1315</ele>
        <time>2018-05-10T09:53:26Z</time>
      </trkpt>
      <trkpt lat="44.62247" lon="6.19497">
        <ele>1314</ele>
        <time>2018-05-10T09:53:50Z</time>
      </trkpt>
      <trkpt lat="44.62216" lon="6.19482">
        <ele>1315</ele>
        <time>2018-05-10T09:54:13Z</time>
      </trkpt>
      <trkpt lat="44.6219" lon="6.19471">
        <ele>1315</ele>
        <time>2018-05-10T09:54:36Z</time>
      </trkpt>
      <trkpt lat="44.62187" lon="6.1947">
        <ele>1315</ele>
        <time>2018-05-10T09:54:38Z</time>
      </trkpt>
      <trkpt lat="44.62168" lon="6.19465">
        <ele>1315</ele>
        <time>2018-05-10T09:54:58Z</time>
      </trkpt>
      <trkpt lat="44.62167" lon="6.19465">
        <ele>1315</ele>
        <time>2018-05-10T09:54:59Z</time>
      </trkpt>
      <trkpt lat="44.62166" lon="6.19464">
        <ele>1314</ele>
        <time>2018-05-10T09:55:00Z</time>
      </trkpt>
      <trkpt lat="44.62165" lon="6.19464">
        <ele>1314</ele>
        <time>2018-05-10T09:55:01Z</time>
      </trkpt>
      <trkpt lat="44.62163" lon="6.19464">
        <ele>1314</ele>
        <time>2018-05-10T09:55:02Z</time>
      </trkpt>
      <trkpt lat="44.62127" lon="6.19456">
        <ele>1313</ele>
        <time>2018-05-10T09:55:28Z</time>
      </trkpt>
      <trkpt lat="44.62095" lon="6.19458">
        <ele>1312</ele>
        <time>2018-05-10T09:55:53Z</time>
      </trkpt>
      <trkpt lat="44.62082" lon="6.19478">
        <ele>1311</ele>
        <time>2018-05-10T09:56:08Z</time>
      </trkpt>
      <trkpt lat="44.62071" lon="6.19514">
        <ele>1312</ele>
        <time>2018-05-10T09:56:26Z</time>
      </trkpt>
      <trkpt lat="44.62066" lon="6.19523">
        <ele>1312</ele>
        <time>2018-05-10T09:56:31Z</time>
      </trkpt>
      <trkpt lat="44.62065" lon="6.19523">
        <ele>1312</ele>
        <time>2018-05-10T09:56:32Z</time>
      </trkpt>
      <trkpt lat="44.62064" lon="6.19524">
        <ele>1312</ele>
        <time>2018-05-10T09:56:33Z</time>
      </trkpt>
      <trkpt lat="44.62062" lon="6.19524">
        <ele>1312</ele>
        <time>2018-05-10T09:56:34Z</time>
      </trkpt>
      <trkpt lat="44.62061" lon="6.19524">
        <ele>1312</ele>
        <time>2018-05-10T09:56:35Z</time>
      </trkpt>
      <trkpt lat="44.6206" lon="6.19524">
        <ele>1312</ele>
        <time>2018-05-10T09:56:36Z</time>
      </trkpt>
      <trkpt lat="44.62058" lon="6.19525">
        <ele>1312</ele>
        <time>2018-05-10T09:56:37Z</time>
      </trkpt>
      <trkpt lat="44.62057" lon="6.19526">
        <ele>1312</ele>
        <time>2018-05-10T09:56:38Z</time>
      </trkpt>
      <trkpt lat="44.62056" lon="6.19526">
        <ele>1312</ele>
        <time>2018-05-10T09:56:39Z</time>
      </trkpt>
      <trkpt lat="44.62052" lon="6.19528">
        <ele>1312</ele>
        <time>2018-05-10T09:56:45Z</time>
      </trkpt>
      <trkpt lat="44.62051" lon="6.19528">
        <ele>1312</ele>
        <time>2018-05-10T09:56:46Z</time>
      </trkpt>
      <trkpt lat="44.62049" lon="6.19528">
        <ele>1312</ele>
        <time>2018-05-10T09:56:47Z</time>
      </trkpt>
      <trkpt lat="44.62048" lon="6.19528">
        <ele>1312</ele>
        <time>2018-05-10T09:56:48Z</time>
      </trkpt>
      <trkpt lat="44.62046" lon="6.19529">
        <ele>1311</ele>
        <time>2018-05-10T09:56:49Z</time>
      </trkpt>
      <trkpt lat="44.62035" lon="6.19545">
        <ele>1311</ele>
        <time>2018-05-10T09:57:04Z</time>
      </trkpt>
      <trkpt lat="44.62034" lon="6.19545">
        <ele>1311</ele>
        <time>2018-05-10T09:57:05Z</time>
      </trkpt>
      <trkpt lat="44.62027" lon="6.19544">
        <ele>1311</ele>
        <time>2018-05-10T09:57:12Z</time>
      </trkpt>
      <trkpt lat="44.62026" lon="6.19545">
        <ele>1311</ele>
        <time>2018-05-10T09:57:13Z</time>
      </trkpt>
      <trkpt lat="44.62025" lon="6.19545">
        <ele>1311</ele>
        <time>2018-05-10T09:57:14Z</time>
      </trkpt>
      <trkpt lat="44.62024" lon="6.19547">
        <ele>1311</ele>
        <time>2018-05-10T09:57:15Z</time>
      </trkpt>
      <trkpt lat="44.62023" lon="6.19549">
        <ele>1311</ele>
        <time>2018-05-10T09:57:17Z</time>
      </trkpt>
      <trkpt lat="44.62021" lon="6.19576">
        <ele>1311</ele>
        <time>2018-05-10T09:57:33Z</time>
      </trkpt>
      <trkpt lat="44.62021" lon="6.19578">
        <ele>1311</ele>
        <time>2018-05-10T09:57:34Z</time>
      </trkpt>
      <trkpt lat="44.62021" lon="6.19581">
        <ele>1311</ele>
        <time>2018-05-10T09:57:35Z</time>
      </trkpt>
      <trkpt lat="44.62021" lon="6.19583">
        <ele>1311</ele>
        <time>2018-05-10T09:57:36Z</time>
      </trkpt>
      <trkpt lat="44.6202" lon="6.19612">
        <ele>1313</ele>
        <time>2018-05-10T09:57:52Z</time>
      </trkpt>
      <trkpt lat="44.62017" lon="6.19639">
        <ele>1313</ele>
        <time>2018-05-10T09:58:08Z</time>
      </trkpt>
      <trkpt lat="44.62013" lon="6.19665">
        <ele>1314</ele>
        <time>2018-05-10T09:58:27Z</time>
      </trkpt>
      <trkpt lat="44.62006" lon="6.19693">
        <ele>1315</ele>
        <time>2018-05-10T09:58:46Z</time>
      </trkpt>
      <trkpt lat="44.61998" lon="6.19719">
        <ele>1318</ele>
        <time>2018-05-10T09:59:04Z</time>
      </trkpt>
      <trkpt lat="44.6199" lon="6.19756">
        <ele>1319</ele>
        <time>2018-05-10T09:59:27Z</time>
      </trkpt>
      <trkpt lat="44.6199" lon="6.19764">
        <ele>1320</ele>
        <time>2018-05-10T09:59:31Z</time>
      </trkpt>
      <trkpt lat="44.6199" lon="6.1977">
        <ele>1320</ele>
        <time>2018-05-10T09:59:34Z</time>
      </trkpt>
      <trkpt lat="44.62001" lon="6.19802">
        <ele>1319</ele>
        <time>2018-05-10T09:59:52Z</time>
      </trkpt>
      <trkpt lat="44.62005" lon="6.19824">
        <ele>1320</ele>
        <time>2018-05-10T10:00:08Z</time>
      </trkpt>
      <trkpt lat="44.62005" lon="6.19827">
        <ele>1320</ele>
        <time>2018-05-10T10:00:09Z</time>
      </trkpt>
      <trkpt lat="44.62011" lon="6.19846">
        <ele>1321</ele>
        <time>2018-05-10T10:00:25Z</time>
      </trkpt>
      <trkpt lat="44.62012" lon="6.19848">
        <ele>1321</ele>
        <time>2018-05-10T10:00:27Z</time>
      </trkpt>
      <trkpt lat="44.6201" lon="6.19865">
        <ele>1321</ele>
        <time>2018-05-10T10:00:40Z</time>
      </trkpt>
      <trkpt lat="44.62007" lon="6.19869">
        <ele>1321</ele>
        <time>2018-05-10T10:00:42Z</time>
      </trkpt>
      <trkpt lat="44.62" lon="6.19884">
        <ele>1322</ele>
        <time>2018-05-10T10:00:53Z</time>
      </trkpt>
      <trkpt lat="44.62" lon="6.19896">
        <ele>1322</ele>
        <time>2018-05-10T10:00:58Z</time>
      </trkpt>
      <trkpt lat="44.62008" lon="6.19923">
        <ele>1322</ele>
        <time>2018-05-10T10:01:16Z</time>
      </trkpt>
      <trkpt lat="44.6201" lon="6.19943">
        <ele>1322</ele>
        <time>2018-05-10T10:01:29Z</time>
      </trkpt>
      <trkpt lat="44.62012" lon="6.19978">
        <ele>1322</ele>
        <time>2018-05-10T10:01:48Z</time>
      </trkpt>
      <trkpt lat="44.62012" lon="6.19983">
        <ele>1322</ele>
        <time>2018-05-10T10:01:51Z</time>
      </trkpt>
      <trkpt lat="44.62012" lon="6.20009">
        <ele>1322</ele>
        <time>2018-05-10T10:02:06Z</time>
      </trkpt>
      <trkpt lat="44.6201" lon="6.20035">
        <ele>1323</ele>
        <time>2018-05-10T10:02:22Z</time>
      </trkpt>
      <trkpt lat="44.6201" lon="6.20038">
        <ele>1323</ele>
        <time>2018-05-10T10:02:26Z</time>
      </trkpt>
      <trkpt lat="44.62011" lon="6.20042">
        <ele>1323</ele>
        <time>2018-05-10T10:02:29Z</time>
      </trkpt>
      <trkpt lat="44.62016" lon="6.20072">
        <ele>1324</ele>
        <time>2018-05-10T10:02:46Z</time>
      </trkpt>
      <trkpt lat="44.62029" lon="6.20107">
        <ele>1326</ele>
        <time>2018-05-10T10:03:07Z</time>
      </trkpt>
      <trkpt lat="44.6204" lon="6.20147">
        <ele>1326</ele>
        <time>2018-05-10T10:03:29Z</time>
      </trkpt>
      <trkpt lat="44.62055" lon="6.20179">
        <ele>1327</ele>
        <time>2018-05-10T10:03:51Z</time>
      </trkpt>
      <trkpt lat="44.62066" lon="6.20206">
        <ele>1328</ele>
        <time>2018-05-10T10:04:11Z</time>
      </trkpt>
      <trkpt lat="44.62065" lon="6.20213">
        <ele>1328</ele>
        <time>2018-05-10T10:04:16Z</time>
      </trkpt>
      <trkpt lat="44.62056" lon="6.20227">
        <ele>1328</ele>
        <time>2018-05-10T10:04:31Z</time>
      </trkpt>
      <trkpt lat="44.62041" lon="6.20249">
        <ele>1329</ele>
        <time>2018-05-10T10:04:49Z</time>
      </trkpt>
      <trkpt lat="44.62036" lon="6.20261">
        <ele>1330</ele>
        <time>2018-05-10T10:04:57Z</time>
      </trkpt>
      <trkpt lat="44.62032" lon="6.20268">
        <ele>1331</ele>
        <time>2018-05-10T10:05:02Z</time>
      </trkpt>
      <trkpt lat="44.62028" lon="6.2027">
        <ele>1331</ele>
        <time>2018-05-10T10:05:05Z</time>
      </trkpt>
      <trkpt lat="44.62018" lon="6.20294">
        <ele>1331</ele>
        <time>2018-05-10T10:05:22Z</time>
      </trkpt>
      <trkpt lat="44.62013" lon="6.20316">
        <ele>1332</ele>
        <time>2018-05-10T10:05:37Z</time>
      </trkpt>
      <trkpt lat="44.62002" lon="6.2034">
        <ele>1334</ele>
        <time>2018-05-10T10:05:56Z</time>
      </trkpt>
      <trkpt lat="44.61993" lon="6.20347">
        <ele>1335</ele>
        <time>2018-05-10T10:06:05Z</time>
      </trkpt>
      <trkpt lat="44.61973" lon="6.2036">
        <ele>1336</ele>
        <time>2018-05-10T10:06:23Z</time>
      </trkpt>
      <trkpt lat="44.61958" lon="6.20374">
        <ele>1337</ele>
        <time>2018-05-10T10:06:39Z</time>
      </trkpt>
      <trkpt lat="44.61953" lon="6.20381">
        <ele>1337</ele>
        <time>2018-05-10T10:06:46Z</time>
      </trkpt>
      <trkpt lat="44.61949" lon="6.20387">
        <ele>1337</ele>
        <time>2018-05-10T10:06:50Z</time>
      </trkpt>
      <trkpt lat="44.61931" lon="6.20409">
        <ele>1338</ele>
        <time>2018-05-10T10:07:09Z</time>
      </trkpt>
      <trkpt lat="44.61918" lon="6.20426">
        <ele>1340</ele>
        <time>2018-05-10T10:07:25Z</time>
      </trkpt>
      <trkpt lat="44.61916" lon="6.20428">
        <ele>1341</ele>
        <time>2018-05-10T10:07:27Z</time>
      </trkpt>
      <trkpt lat="44.61912" lon="6.20434">
        <ele>1342</ele>
        <time>2018-05-10T10:07:32Z</time>
      </trkpt>
      <trkpt lat="44.61905" lon="6.2045">
        <ele>1344</ele>
        <time>2018-05-10T10:07:44Z</time>
      </trkpt>
      <trkpt lat="44.61902" lon="6.20456">
        <ele>1344</ele>
        <time>2018-05-10T10:07:47Z</time>
      </trkpt>
      <trkpt lat="44.61894" lon="6.20478">
        <ele>1344</ele>
        <time>2018-05-10T10:08:03Z</time>
      </trkpt>
      <trkpt lat="44.61881" lon="6.20507">
        <ele>1347</ele>
        <time>2018-05-10T10:08:26Z</time>
      </trkpt>
      <trkpt lat="44.61869" lon="6.20544">
        <ele>1348</ele>
        <time>2018-05-10T10:08:46Z</time>
      </trkpt>
      <trkpt lat="44.61863" lon="6.20569">
        <ele>1349</ele>
        <time>2018-05-10T10:09:03Z</time>
      </trkpt>
      <trkpt lat="44.61862" lon="6.20573">
        <ele>1349</ele>
        <time>2018-05-10T10:09:06Z</time>
      </trkpt>
      <trkpt lat="44.61857" lon="6.206">
        <ele>1350</ele>
        <time>2018-05-10T10:09:21Z</time>
      </trkpt>
      <trkpt lat="44.61857" lon="6.20603">
        <ele>1350</ele>
        <time>2018-05-10T10:09:23Z</time>
      </trkpt>
      <trkpt lat="44.61855" lon="6.20635">
        <ele>1351</ele>
        <time>2018-05-10T10:09:42Z</time>
      </trkpt>
      <trkpt lat="44.61852" lon="6.20657">
        <ele>1351</ele>
        <time>2018-05-10T10:09:58Z</time>
      </trkpt>
      <trkpt lat="44.61847" lon="6.20681">
        <ele>1351</ele>
        <time>2018-05-10T10:10:13Z</time>
      </trkpt>
      <trkpt lat="44.61844" lon="6.2069">
        <ele>1352</ele>
        <time>2018-05-10T10:10:19Z</time>
      </trkpt>
      <trkpt lat="44.61841" lon="6.20699">
        <ele>1352</ele>
        <time>2018-05-10T10:10:24Z</time>
      </trkpt>
      <trkpt lat="44.61833" lon="6.20727">
        <ele>1356</ele>
        <time>2018-05-10T10:10:41Z</time>
      </trkpt>
      <trkpt lat="44.61826" lon="6.20751">
        <ele>1355</ele>
        <time>2018-05-10T10:10:57Z</time>
      </trkpt>
      <trkpt lat="44.61815" lon="6.20785">
        <ele>1358</ele>
        <time>2018-05-10T10:11:21Z</time>
      </trkpt>
      <trkpt lat="44.61803" lon="6.20819">
        <ele>1358</ele>
        <time>2018-05-10T10:11:42Z</time>
      </trkpt>
      <trkpt lat="44.618" lon="6.20829">
        <ele>1358</ele>
        <time>2018-05-10T10:11:48Z</time>
      </trkpt>
      <trkpt lat="44.61797" lon="6.20835">
        <ele>1358</ele>
        <time>2018-05-10T10:11:51Z</time>
      </trkpt>
      <trkpt lat="44.61786" lon="6.20865">
        <ele>1358</ele>
        <time>2018-05-10T10:12:11Z</time>
      </trkpt>
      <trkpt lat="44.61776" lon="6.20885">
        <ele>1359</ele>
        <time>2018-05-10T10:12:25Z</time>
      </trkpt>
      <trkpt lat="44.61768" lon="6.20911">
        <ele>1359</ele>
        <time>2018-05-10T10:12:43Z</time>
      </trkpt>
      <trkpt lat="44.61768" lon="6.20916">
        <ele>1359</ele>
        <time>2018-05-10T10:12:46Z</time>
      </trkpt>
      <trkpt lat="44.61768" lon="6.20953">
        <ele>1360</ele>
        <time>2018-05-10T10:13:06Z</time>
      </trkpt>
      <trkpt lat="44.61762" lon="6.20953">
        <ele>1360</ele>
        <time>2018-05-10T10:13:13Z</time>
      </trkpt>
      <trkpt lat="44.61738" lon="6.20943">
        <ele>1362</ele>
        <time>2018-05-10T10:13:33Z</time>
      </trkpt>
      <trkpt lat="44.61719" lon="6.20947">
        <ele>1363</ele>
        <time>2018-05-10T10:13:49Z</time>
      </trkpt>
      <trkpt lat="44.61713" lon="6.20952">
        <ele>1363</ele>
        <time>2018-05-10T10:14:01Z</time>
      </trkpt>
      <trkpt lat="44.61696" lon="6.20951">
        <ele>1364</ele>
        <time>2018-05-10T10:14:16Z</time>
      </trkpt>
      <trkpt lat="44.61689" lon="6.20953">
        <ele>1364</ele>
        <time>2018-05-10T10:14:23Z</time>
      </trkpt>
      <trkpt lat="44.61666" lon="6.20969">
        <ele>1373</ele>
        <time>2018-05-10T10:14:41Z</time>
      </trkpt>
      <trkpt lat="44.61652" lon="6.20968">
        <ele>1374</ele>
        <time>2018-05-10T10:14:53Z</time>
      </trkpt>
      <trkpt lat="44.61645" lon="6.20997">
        <ele>1373</ele>
        <time>2018-05-10T10:15:08Z</time>
      </trkpt>
      <trkpt lat="44.61639" lon="6.21027">
        <ele>1376</ele>
        <time>2018-05-10T10:15:25Z</time>
      </trkpt>
      <trkpt lat="44.6164" lon="6.21054">
        <ele>1376</ele>
        <time>2018-05-10T10:15:39Z</time>
      </trkpt>
      <trkpt lat="44.61646" lon="6.21083">
        <ele>1374</ele>
        <time>2018-05-10T10:15:56Z</time>
      </trkpt>
      <trkpt lat="44.61646" lon="6.21085">
        <ele>1374</ele>
        <time>2018-05-10T10:15:57Z</time>
      </trkpt>
      <trkpt lat="44.61647" lon="6.21099">
        <ele>1375</ele>
        <time>2018-05-10T10:16:04Z</time>
      </trkpt>
      <trkpt lat="44.61636" lon="6.21127">
        <ele>1377</ele>
        <time>2018-05-10T10:16:20Z</time>
      </trkpt>
      <trkpt lat="44.61625" lon="6.21155">
        <ele>1379</ele>
        <time>2018-05-10T10:16:38Z</time>
      </trkpt>
      <trkpt lat="44.61623" lon="6.21159">
        <ele>1379</ele>
        <time>2018-05-10T10:16:42Z</time>
      </trkpt>
      <trkpt lat="44.61622" lon="6.21163">
        <ele>1379</ele>
        <time>2018-05-10T10:16:45Z</time>
      </trkpt>
      <trkpt lat="44.61612" lon="6.21184">
        <ele>1383</ele>
        <time>2018-05-10T10:17:01Z</time>
      </trkpt>
      <trkpt lat="44.61596" lon="6.21202">
        <ele>1384</ele>
        <time>2018-05-10T10:17:17Z</time>
      </trkpt>
      <trkpt lat="44.61591" lon="6.21219">
        <ele>1385</ele>
        <time>2018-05-10T10:17:29Z</time>
      </trkpt>
      <trkpt lat="44.61583" lon="6.21245">
        <ele>1391</ele>
        <time>2018-05-10T10:17:45Z</time>
      </trkpt>
      <trkpt lat="44.61577" lon="6.21271">
        <ele>1399</ele>
        <time>2018-05-10T10:17:59Z</time>
      </trkpt>
      <trkpt lat="44.61577" lon="6.21278">
        <ele>1400</ele>
        <time>2018-05-10T10:18:03Z</time>
      </trkpt>
      <trkpt lat="44.61575" lon="6.21293">
        <ele>1402</ele>
        <time>2018-05-10T10:18:12Z</time>
      </trkpt>
      <trkpt lat="44.61573" lon="6.213">
        <ele>1402</ele>
        <time>2018-05-10T10:18:15Z</time>
      </trkpt>
      <trkpt lat="44.61569" lon="6.21323">
        <ele>1401</ele>
        <time>2018-05-10T10:18:26Z</time>
      </trkpt>
      <trkpt lat="44.6156" lon="6.21347">
        <ele>1407</ele>
        <time>2018-05-10T10:18:41Z</time>
      </trkpt>
      <trkpt lat="44.61556" lon="6.2136">
        <ele>1409</ele>
        <time>2018-05-10T10:18:48Z</time>
      </trkpt>
      <trkpt lat="44.61546" lon="6.21386">
        <ele>1412</ele>
        <time>2018-05-10T10:19:02Z</time>
      </trkpt>
      <trkpt lat="44.61539" lon="6.21402">
        <ele>1415</ele>
        <time>2018-05-10T10:19:12Z</time>
      </trkpt>
      <trkpt lat="44.61533" lon="6.21422">
        <ele>1415</ele>
        <time>2018-05-10T10:19:24Z</time>
      </trkpt>
      <trkpt lat="44.61522" lon="6.21439">
        <ele>1416</ele>
        <time>2018-05-10T10:19:35Z</time>
      </trkpt>
      <trkpt lat="44.6152" lon="6.21445">
        <ele>1416</ele>
        <time>2018-05-10T10:19:53Z</time>
      </trkpt>
      <trkpt lat="44.61519" lon="6.21446">
        <ele>1416</ele>
        <time>2018-05-10T10:19:55Z</time>
      </trkpt>
      <trkpt lat="44.61512" lon="6.21454">
        <ele>1416</ele>
        <time>2018-05-10T10:20:07Z</time>
      </trkpt>
      <trkpt lat="44.61499" lon="6.21478">
        <ele>1434</ele>
        <time>2018-05-10T10:20:23Z</time>
      </trkpt>
      <trkpt lat="44.61496" lon="6.21484">
        <ele>1431</ele>
        <time>2018-05-10T10:20:27Z</time>
      </trkpt>
      <trkpt lat="44.61492" lon="6.21493">
        <ele>1428</ele>
        <time>2018-05-10T10:20:33Z</time>
      </trkpt>
      <trkpt lat="44.61489" lon="6.21497">
        <ele>1429</ele>
        <time>2018-05-10T10:20:37Z</time>
      </trkpt>
      <trkpt lat="44.61485" lon="6.215">
        <ele>1422</ele>
        <time>2018-05-10T10:20:39Z</time>
      </trkpt>
      <trkpt lat="44.61479" lon="6.2151">
        <ele>1424</ele>
        <time>2018-05-10T10:20:45Z</time>
      </trkpt>
      <trkpt lat="44.61473" lon="6.21521">
        <ele>1425</ele>
        <time>2018-05-10T10:20:54Z</time>
      </trkpt>
      <trkpt lat="44.61463" lon="6.21537">
        <ele>1425</ele>
        <time>2018-05-10T10:21:07Z</time>
      </trkpt>
      <trkpt lat="44.61454" lon="6.21544">
        <ele>1426</ele>
        <time>2018-05-10T10:21:16Z</time>
      </trkpt>
      <trkpt lat="44.61452" lon="6.21546">
        <ele>1426</ele>
        <time>2018-05-10T10:21:17Z</time>
      </trkpt>
      <trkpt lat="44.61437" lon="6.21552">
        <ele>1427</ele>
        <time>2018-05-10T10:21:29Z</time>
      </trkpt>
      <trkpt lat="44.6143" lon="6.21555">
        <ele>1427</ele>
        <time>2018-05-10T10:21:43Z</time>
      </trkpt>
      <trkpt lat="44.61422" lon="6.21548">
        <ele>1429</ele>
        <time>2018-05-10T10:22:03Z</time>
      </trkpt>
      <trkpt lat="44.6142" lon="6.21548">
        <ele>1429</ele>
        <time>2018-05-10T10:22:05Z</time>
      </trkpt>
      <trkpt lat="44.61404" lon="6.2154">
        <ele>1445</ele>
        <time>2018-05-10T10:22:20Z</time>
      </trkpt>
      <trkpt lat="44.61385" lon="6.21538">
        <ele>1446</ele>
        <time>2018-05-10T10:22:39Z</time>
      </trkpt>
      <trkpt lat="44.61372" lon="6.21532">
        <ele>1448</ele>
        <time>2018-05-10T10:22:50Z</time>
      </trkpt>
      <trkpt lat="44.61351" lon="6.21524">
        <ele>1452</ele>
        <time>2018-05-10T10:23:06Z</time>
      </trkpt>
      <trkpt lat="44.61338" lon="6.21514">
        <ele>1458</ele>
        <time>2018-05-10T10:23:16Z</time>
      </trkpt>
      <trkpt lat="44.61324" lon="6.21514">
        <ele>1463</ele>
        <time>2018-05-10T10:23:29Z</time>
      </trkpt>
      <trkpt lat="44.61308" lon="6.21522">
        <ele>1462</ele>
        <time>2018-05-10T10:23:43Z</time>
      </trkpt>
      <trkpt lat="44.61285" lon="6.2153">
        <ele>1462</ele>
        <time>2018-05-10T10:24:04Z</time>
      </trkpt>
      <trkpt lat="44.61269" lon="6.21558">
        <ele>1458</ele>
        <time>2018-05-10T10:24:24Z</time>
      </trkpt>
      <trkpt lat="44.61269" lon="6.21563">
        <ele>1457</ele>
        <time>2018-05-10T10:24:47Z</time>
      </trkpt>
      <trkpt lat="44.61266" lon="6.21558">
        <ele>1458</ele>
        <time>2018-05-10T10:25:16Z</time>
      </trkpt>
      <trkpt lat="44.61269" lon="6.21558">
        <ele>1458</ele>
        <time>2018-05-10T10:25:43Z</time>
      </trkpt>
      <trkpt lat="44.61271" lon="6.2156">
        <ele>1457</ele>
        <time>2018-05-10T10:26:12Z</time>
      </trkpt>
      <trkpt lat="44.61271" lon="6.21557">
        <ele>1458</ele>
        <time>2018-05-10T10:26:39Z</time>
      </trkpt>
      <trkpt lat="44.61264" lon="6.21562">
        <ele>1457</ele>
        <time>2018-05-10T10:26:45Z</time>
      </trkpt>
      <trkpt lat="44.61242" lon="6.21574">
        <ele>1460</ele>
        <time>2018-05-10T10:27:02Z</time>
      </trkpt>
      <trkpt lat="44.61233" lon="6.21576">
        <ele>1463</ele>
        <time>2018-05-10T10:27:09Z</time>
      </trkpt>
      <trkpt lat="44.6122" lon="6.21573">
        <ele>1467</ele>
        <time>2018-05-10T10:27:24Z</time>
      </trkpt>
      <trkpt lat="44.61194" lon="6.21564">
        <ele>1471</ele>
        <time>2018-05-10T10:27:41Z</time>
      </trkpt>
      <trkpt lat="44.61192" lon="6.21564">
        <ele>1471</ele>
        <time>2018-05-10T10:27:42Z</time>
      </trkpt>
      <trkpt lat="44.6118" lon="6.21564">
        <ele>1471</ele>
        <time>2018-05-10T10:27:49Z</time>
      </trkpt>
      <trkpt lat="44.61157" lon="6.21579">
        <ele>1474</ele>
        <time>2018-05-10T10:28:05Z</time>
      </trkpt>
      <trkpt lat="44.61146" lon="6.21584">
        <ele>1469</ele>
        <time>2018-05-10T10:28:18Z</time>
      </trkpt>
      <trkpt lat="44.61144" lon="6.21585">
        <ele>1469</ele>
        <time>2018-05-10T10:28:19Z</time>
      </trkpt>
      <trkpt lat="44.61139" lon="6.21585">
        <ele>1470</ele>
        <time>2018-05-10T10:28:22Z</time>
      </trkpt>
      <trkpt lat="44.61134" lon="6.21585">
        <ele>1470</ele>
        <time>2018-05-10T10:28:26Z</time>
      </trkpt>
      <trkpt lat="44.61118" lon="6.21586">
        <ele>1472</ele>
        <time>2018-05-10T10:28:39Z</time>
      </trkpt>
      <trkpt lat="44.61105" lon="6.21593">
        <ele>1473</ele>
        <time>2018-05-10T10:28:53Z</time>
      </trkpt>
      <trkpt lat="44.61105" lon="6.21594">
        <ele>1473</ele>
        <time>2018-05-10T10:28:55Z</time>
      </trkpt>
      <trkpt lat="44.61088" lon="6.21604">
        <ele>1474</ele>
        <time>2018-05-10T10:29:11Z</time>
      </trkpt>
      <trkpt lat="44.61087" lon="6.21605">
        <ele>1474</ele>
        <time>2018-05-10T10:29:21Z</time>
      </trkpt>
      <trkpt lat="44.61081" lon="6.21607">
        <ele>1479</ele>
        <time>2018-05-10T10:29:32Z</time>
      </trkpt>
      <trkpt lat="44.61066" lon="6.2161">
        <ele>1479</ele>
        <time>2018-05-10T10:29:45Z</time>
      </trkpt>
      <trkpt lat="44.61055" lon="6.21614">
        <ele>1479</ele>
        <time>2018-05-10T10:29:52Z</time>
      </trkpt>
      <trkpt lat="44.61036" lon="6.21619">
        <ele>1479</ele>
        <time>2018-05-10T10:30:11Z</time>
      </trkpt>
      <trkpt lat="44.61017" lon="6.21622">
        <ele>1480</ele>
        <time>2018-05-10T10:30:26Z</time>
      </trkpt>
      <trkpt lat="44.60999" lon="6.21623">
        <ele>1486</ele>
        <time>2018-05-10T10:30:43Z</time>
      </trkpt>
      <trkpt lat="44.60981" lon="6.21627">
        <ele>1487</ele>
        <time>2018-05-10T10:30:59Z</time>
      </trkpt>
      <trkpt lat="44.60974" lon="6.2163">
        <ele>1487</ele>
        <time>2018-05-10T10:31:06Z</time>
      </trkpt>
      <trkpt lat="44.60951" lon="6.21638">
        <ele>1489</ele>
        <time>2018-05-10T10:31:24Z</time>
      </trkpt>
      <trkpt lat="44.60941" lon="6.21641">
        <ele>1489</ele>
        <time>2018-05-10T10:31:33Z</time>
      </trkpt>
      <trkpt lat="44.60936" lon="6.21641">
        <ele>1490</ele>
        <time>2018-05-10T10:31:37Z</time>
      </trkpt>
      <trkpt lat="44.60915" lon="6.21635">
        <ele>1498</ele>
        <time>2018-05-10T10:31:57Z</time>
      </trkpt>
      <trkpt lat="44.60913" lon="6.21634">
        <ele>1499</ele>
        <time>2018-05-10T10:32:00Z</time>
      </trkpt>
      <trkpt lat="44.6089" lon="6.21646">
        <ele>1499</ele>
        <time>2018-05-10T10:32:16Z</time>
      </trkpt>
      <trkpt lat="44.60873" lon="6.21663">
        <ele>1501</ele>
        <time>2018-05-10T10:32:30Z</time>
      </trkpt>
      <trkpt lat="44.6087" lon="6.21669">
        <ele>1499</ele>
        <time>2018-05-10T10:32:35Z</time>
      </trkpt>
      <trkpt lat="44.60856" lon="6.21684">
        <ele>1500</ele>
        <time>2018-05-10T10:32:49Z</time>
      </trkpt>
      <trkpt lat="44.60855" lon="6.21685">
        <ele>1500</ele>
        <time>2018-05-10T10:32:50Z</time>
      </trkpt>
      <trkpt lat="44.6084" lon="6.21697">
        <ele>1500</ele>
        <time>2018-05-10T10:33:02Z</time>
      </trkpt>
      <trkpt lat="44.60827" lon="6.217">
        <ele>1508</ele>
        <time>2018-05-10T10:33:13Z</time>
      </trkpt>
      <trkpt lat="44.60811" lon="6.21701">
        <ele>1509</ele>
        <time>2018-05-10T10:33:25Z</time>
      </trkpt>
      <trkpt lat="44.60802" lon="6.21703">
        <ele>1509</ele>
        <time>2018-05-10T10:33:33Z</time>
      </trkpt>
      <trkpt lat="44.60779" lon="6.21715">
        <ele>1510</ele>
        <time>2018-05-10T10:33:49Z</time>
      </trkpt>
      <trkpt lat="44.60756" lon="6.21723">
        <ele>1511</ele>
        <time>2018-05-10T10:34:07Z</time>
      </trkpt>
      <trkpt lat="44.60729" lon="6.21721">
        <ele>1516</ele>
        <time>2018-05-10T10:34:28Z</time>
      </trkpt>
      <trkpt lat="44.60717" lon="6.21722">
        <ele>1517</ele>
        <time>2018-05-10T10:34:37Z</time>
      </trkpt>
      <trkpt lat="44.60713" lon="6.21723">
        <ele>1517</ele>
        <time>2018-05-10T10:34:40Z</time>
      </trkpt>
      <trkpt lat="44.60712" lon="6.21725">
        <ele>1517</ele>
        <time>2018-05-10T10:34:41Z</time>
      </trkpt>
      <trkpt lat="44.60711" lon="6.21726">
        <ele>1517</ele>
        <time>2018-05-10T10:34:42Z</time>
      </trkpt>
      <trkpt lat="44.60711" lon="6.21727">
        <ele>1517</ele>
        <time>2018-05-10T10:34:43Z</time>
      </trkpt>
      <trkpt lat="44.6071" lon="6.21728">
        <ele>1517</ele>
        <time>2018-05-10T10:34:44Z</time>
      </trkpt>
      <trkpt lat="44.60707" lon="6.21729">
        <ele>1517</ele>
        <time>2018-05-10T10:34:47Z</time>
      </trkpt>
      <trkpt lat="44.60706" lon="6.21728">
        <ele>1517</ele>
        <time>2018-05-10T10:34:48Z</time>
      </trkpt>
      <trkpt lat="44.60704" lon="6.21728">
        <ele>1518</ele>
        <time>2018-05-10T10:34:49Z</time>
      </trkpt>
      <trkpt lat="44.60703" lon="6.21729">
        <ele>1518</ele>
        <time>2018-05-10T10:34:50Z</time>
      </trkpt>
      <trkpt lat="44.60702" lon="6.2173">
        <ele>1518</ele>
        <time>2018-05-10T10:34:51Z</time>
      </trkpt>
      <trkpt lat="44.607" lon="6.21733">
        <ele>1518</ele>
        <time>2018-05-10T10:35:00Z</time>
      </trkpt>
      <trkpt lat="44.607" lon="6.21735">
        <ele>1518</ele>
        <time>2018-05-10T10:35:13Z</time>
      </trkpt>
      <trkpt lat="44.60698" lon="6.21737">
        <ele>1518</ele>
        <time>2018-05-10T10:35:21Z</time>
      </trkpt>
      <trkpt lat="44.60697" lon="6.21738">
        <ele>1518</ele>
        <time>2018-05-10T10:35:22Z</time>
      </trkpt>
      <trkpt lat="44.60697" lon="6.21741">
        <ele>1518</ele>
        <time>2018-05-10T10:35:24Z</time>
      </trkpt>
      <trkpt lat="44.60697" lon="6.21742">
        <ele>1518</ele>
        <time>2018-05-10T10:35:25Z</time>
      </trkpt>
      <trkpt lat="44.60696" lon="6.21743">
        <ele>1518</ele>
        <time>2018-05-10T10:35:26Z</time>
      </trkpt>
      <trkpt lat="44.60695" lon="6.21744">
        <ele>1518</ele>
        <time>2018-05-10T10:35:27Z</time>
      </trkpt>
      <trkpt lat="44.60693" lon="6.21745">
        <ele>1518</ele>
        <time>2018-05-10T10:35:28Z</time>
      </trkpt>
      <trkpt lat="44.60692" lon="6.21746">
        <ele>1518</ele>
        <time>2018-05-10T10:35:29Z</time>
      </trkpt>
      <trkpt lat="44.60691" lon="6.21747">
        <ele>1518</ele>
        <time>2018-05-10T10:35:30Z</time>
      </trkpt>
      <trkpt lat="44.60681" lon="6.21756">
        <ele>1521</ele>
        <time>2018-05-10T10:35:40Z</time>
      </trkpt>
      <trkpt lat="44.60666" lon="6.21764">
        <ele>1524</ele>
        <time>2018-05-10T10:35:52Z</time>
      </trkpt>
      <trkpt lat="44.60651" lon="6.21774">
        <ele>1526</ele>
        <time>2018-05-10T10:36:05Z</time>
      </trkpt>
      <trkpt lat="44.60634" lon="6.21779">
        <ele>1527</ele>
        <time>2018-05-10T10:36:19Z</time>
      </trkpt>
      <trkpt lat="44.60615" lon="6.21784">
        <ele>1528</ele>
        <time>2018-05-10T10:36:32Z</time>
      </trkpt>
      <trkpt lat="44.60592" lon="6.2179">
        <ele>1529</ele>
        <time>2018-05-10T10:36:51Z</time>
      </trkpt>
      <trkpt lat="44.60581" lon="6.21794">
        <ele>1535</ele>
        <time>2018-05-10T10:37:01Z</time>
      </trkpt>
      <trkpt lat="44.6058" lon="6.21796">
        <ele>1535</ele>
        <time>2018-05-10T10:37:03Z</time>
      </trkpt>
      <trkpt lat="44.60579" lon="6.21797">
        <ele>1535</ele>
        <time>2018-05-10T10:37:04Z</time>
      </trkpt>
      <trkpt lat="44.60577" lon="6.21797">
        <ele>1535</ele>
        <time>2018-05-10T10:37:06Z</time>
      </trkpt>
      <trkpt lat="44.60556" lon="6.21807">
        <ele>1536</ele>
        <time>2018-05-10T10:37:23Z</time>
      </trkpt>
      <trkpt lat="44.60537" lon="6.21818">
        <ele>1537</ele>
        <time>2018-05-10T10:37:40Z</time>
      </trkpt>
      <trkpt lat="44.60514" lon="6.21833">
        <ele>1540</ele>
        <time>2018-05-10T10:37:59Z</time>
      </trkpt>
      <trkpt lat="44.60512" lon="6.21836">
        <ele>1542</ele>
        <time>2018-05-10T10:38:02Z</time>
      </trkpt>
      <trkpt lat="44.60495" lon="6.21844">
        <ele>1544</ele>
        <time>2018-05-10T10:38:17Z</time>
      </trkpt>
      <trkpt lat="44.60475" lon="6.21859">
        <ele>1547</ele>
        <time>2018-05-10T10:38:36Z</time>
      </trkpt>
      <trkpt lat="44.60469" lon="6.21865">
        <ele>1547</ele>
        <time>2018-05-10T10:38:43Z</time>
      </trkpt>
      <trkpt lat="44.60465" lon="6.21868">
        <ele>1548</ele>
        <time>2018-05-10T10:38:46Z</time>
      </trkpt>
      <trkpt lat="44.60464" lon="6.21869">
        <ele>1548</ele>
        <time>2018-05-10T10:38:47Z</time>
      </trkpt>
      <trkpt lat="44.60446" lon="6.21894">
        <ele>1549</ele>
        <time>2018-05-10T10:39:06Z</time>
      </trkpt>
      <trkpt lat="44.60446" lon="6.21896">
        <ele>1550</ele>
        <time>2018-05-10T10:39:07Z</time>
      </trkpt>
      <trkpt lat="44.60446" lon="6.21898">
        <ele>1550</ele>
        <time>2018-05-10T10:39:08Z</time>
      </trkpt>
      <trkpt lat="44.60447" lon="6.21904">
        <ele>1550</ele>
        <time>2018-05-10T10:39:12Z</time>
      </trkpt>
      <trkpt lat="44.60448" lon="6.21906">
        <ele>1550</ele>
        <time>2018-05-10T10:39:13Z</time>
      </trkpt>
      <trkpt lat="44.60448" lon="6.21907">
        <ele>1550</ele>
        <time>2018-05-10T10:39:14Z</time>
      </trkpt>
      <trkpt lat="44.60447" lon="6.21909">
        <ele>1550</ele>
        <time>2018-05-10T10:39:15Z</time>
      </trkpt>
      <trkpt lat="44.60447" lon="6.2191">
        <ele>1550</ele>
        <time>2018-05-10T10:39:16Z</time>
      </trkpt>
      <trkpt lat="44.60447" lon="6.21912">
        <ele>1550</ele>
        <time>2018-05-10T10:39:17Z</time>
      </trkpt>
      <trkpt lat="44.60446" lon="6.21913">
        <ele>1550</ele>
        <time>2018-05-10T10:39:18Z</time>
      </trkpt>
      <trkpt lat="44.60444" lon="6.21915">
        <ele>1550</ele>
        <time>2018-05-10T10:39:37Z</time>
      </trkpt>
      <trkpt lat="44.60444" lon="6.21918">
        <ele>1554</ele>
        <time>2018-05-10T10:39:57Z</time>
      </trkpt>
      <trkpt lat="44.60445" lon="6.21919">
        <ele>1554</ele>
        <time>2018-05-10T10:39:58Z</time>
      </trkpt>
      <trkpt lat="44.60445" lon="6.21921">
        <ele>1554</ele>
        <time>2018-05-10T10:39:59Z</time>
      </trkpt>
      <trkpt lat="44.60445" lon="6.21923">
        <ele>1554</ele>
        <time>2018-05-10T10:40:01Z</time>
      </trkpt>
      <trkpt lat="44.60445" lon="6.21924">
        <ele>1554</ele>
        <time>2018-05-10T10:40:02Z</time>
      </trkpt>
      <trkpt lat="44.60444" lon="6.21925">
        <ele>1554</ele>
        <time>2018-05-10T10:40:03Z</time>
      </trkpt>
      <trkpt lat="44.60443" lon="6.21926">
        <ele>1554</ele>
        <time>2018-05-10T10:40:04Z</time>
      </trkpt>
      <trkpt lat="44.60442" lon="6.21926">
        <ele>1554</ele>
        <time>2018-05-10T10:40:05Z</time>
      </trkpt>
      <trkpt lat="44.60441" lon="6.21927">
        <ele>1554</ele>
        <time>2018-05-10T10:40:06Z</time>
      </trkpt>
      <trkpt lat="44.6044" lon="6.21927">
        <ele>1554</ele>
        <time>2018-05-10T10:40:07Z</time>
      </trkpt>
      <trkpt lat="44.60419" lon="6.21931">
        <ele>1555</ele>
        <time>2018-05-10T10:40:25Z</time>
      </trkpt>
      <trkpt lat="44.60395" lon="6.21933">
        <ele>1558</ele>
        <time>2018-05-10T10:40:45Z</time>
      </trkpt>
      <trkpt lat="44.60375" lon="6.21936">
        <ele>1559</ele>
        <time>2018-05-10T10:41:00Z</time>
      </trkpt>
      <trkpt lat="44.60375" lon="6.21937">
        <ele>1559</ele>
        <time>2018-05-10T10:41:01Z</time>
      </trkpt>
      <trkpt lat="44.60372" lon="6.21936">
        <ele>1559</ele>
        <time>2018-05-10T10:41:02Z</time>
      </trkpt>
      <trkpt lat="44.6037" lon="6.21936">
        <ele>1559</ele>
        <time>2018-05-10T10:41:03Z</time>
      </trkpt>
      <trkpt lat="44.60369" lon="6.21936">
        <ele>1559</ele>
        <time>2018-05-10T10:41:04Z</time>
      </trkpt>
      <trkpt lat="44.60358" lon="6.21936">
        <ele>1560</ele>
        <time>2018-05-10T10:41:20Z</time>
      </trkpt>
      <trkpt lat="44.60357" lon="6.21935">
        <ele>1560</ele>
        <time>2018-05-10T10:41:21Z</time>
      </trkpt>
      <trkpt lat="44.60355" lon="6.21935">
        <ele>1560</ele>
        <time>2018-05-10T10:41:22Z</time>
      </trkpt>
      <trkpt lat="44.60354" lon="6.21936">
        <ele>1560</ele>
        <time>2018-05-10T10:41:23Z</time>
      </trkpt>
      <trkpt lat="44.60353" lon="6.21937">
        <ele>1560</ele>
        <time>2018-05-10T10:41:24Z</time>
      </trkpt>
      <trkpt lat="44.60351" lon="6.21937">
        <ele>1560</ele>
        <time>2018-05-10T10:41:25Z</time>
      </trkpt>
      <trkpt lat="44.6032" lon="6.21945">
        <ele>1564</ele>
        <time>2018-05-10T10:41:47Z</time>
      </trkpt>
      <trkpt lat="44.60299" lon="6.21947">
        <ele>1565</ele>
        <time>2018-05-10T10:42:07Z</time>
      </trkpt>
      <trkpt lat="44.60298" lon="6.21947">
        <ele>1565</ele>
        <time>2018-05-10T10:42:08Z</time>
      </trkpt>
      <trkpt lat="44.60295" lon="6.21946">
        <ele>1565</ele>
        <time>2018-05-10T10:42:11Z</time>
      </trkpt>
      <trkpt lat="44.60294" lon="6.21946">
        <ele>1565</ele>
        <time>2018-05-10T10:42:12Z</time>
      </trkpt>
      <trkpt lat="44.60292" lon="6.21946">
        <ele>1565</ele>
        <time>2018-05-10T10:42:13Z</time>
      </trkpt>
      <trkpt lat="44.60291" lon="6.21947">
        <ele>1565</ele>
        <time>2018-05-10T10:42:14Z</time>
      </trkpt>
      <trkpt lat="44.6029" lon="6.21948">
        <ele>1565</ele>
        <time>2018-05-10T10:42:15Z</time>
      </trkpt>
      <trkpt lat="44.60262" lon="6.21955">
        <ele>1566</ele>
        <time>2018-05-10T10:42:33Z</time>
      </trkpt>
      <trkpt lat="44.6024" lon="6.21962">
        <ele>1570</ele>
        <time>2018-05-10T10:42:48Z</time>
      </trkpt>
      <trkpt lat="44.60198" lon="6.21975">
        <ele>1571</ele>
        <time>2018-05-10T10:43:18Z</time>
      </trkpt>
      <trkpt lat="44.60162" lon="6.2199">
        <ele>1574</ele>
        <time>2018-05-10T10:43:45Z</time>
      </trkpt>
      <trkpt lat="44.60131" lon="6.22001">
        <ele>1574</ele>
        <time>2018-05-10T10:44:07Z</time>
      </trkpt>
      <trkpt lat="44.60095" lon="6.22019">
        <ele>1574</ele>
        <time>2018-05-10T10:44:35Z</time>
      </trkpt>
      <trkpt lat="44.60061" lon="6.22041">
        <ele>1572</ele>
        <time>2018-05-10T10:45:02Z</time>
      </trkpt>
      <trkpt lat="44.60025" lon="6.22063">
        <ele>1571</ele>
        <time>2018-05-10T10:45:28Z</time>
      </trkpt>
      <trkpt lat="44.60007" lon="6.22048">
        <ele>1570</ele>
        <time>2018-05-10T10:45:44Z</time>
      </trkpt>
      <trkpt lat="44.6" lon="6.22004">
        <ele>1568</ele>
        <time>2018-05-10T10:46:06Z</time>
      </trkpt>
      <trkpt lat="44.59997" lon="6.21979">
        <ele>1564</ele>
        <time>2018-05-10T10:46:18Z</time>
      </trkpt>
      <trkpt lat="44.59995" lon="6.21968">
        <ele>1563</ele>
        <time>2018-05-10T10:46:23Z</time>
      </trkpt>
      <trkpt lat="44.59987" lon="6.21955">
        <ele>1563</ele>
        <time>2018-05-10T10:46:33Z</time>
      </trkpt>
      <trkpt lat="44.59986" lon="6.21954">
        <ele>1563</ele>
        <time>2018-05-10T10:46:34Z</time>
      </trkpt>
      <trkpt lat="44.59985" lon="6.21952">
        <ele>1563</ele>
        <time>2018-05-10T10:46:35Z</time>
      </trkpt>
      <trkpt lat="44.59984" lon="6.21951">
        <ele>1563</ele>
        <time>2018-05-10T10:46:36Z</time>
      </trkpt>
      <trkpt lat="44.59983" lon="6.21949">
        <ele>1563</ele>
        <time>2018-05-10T10:46:37Z</time>
      </trkpt>
      <trkpt lat="44.59964" lon="6.21921">
        <ele>1561</ele>
        <time>2018-05-10T10:46:55Z</time>
      </trkpt>
      <trkpt lat="44.59958" lon="6.21909">
        <ele>1562</ele>
        <time>2018-05-10T10:47:02Z</time>
      </trkpt>
      <trkpt lat="44.59959" lon="6.21896">
        <ele>1562</ele>
        <time>2018-05-10T10:47:08Z</time>
      </trkpt>
      <trkpt lat="44.59961" lon="6.21861">
        <ele>1563</ele>
        <time>2018-05-10T10:47:26Z</time>
      </trkpt>
      <trkpt lat="44.59961" lon="6.21855">
        <ele>1563</ele>
        <time>2018-05-10T10:47:29Z</time>
      </trkpt>
      <trkpt lat="44.59963" lon="6.21845">
        <ele>1563</ele>
        <time>2018-05-10T10:47:34Z</time>
      </trkpt>
      <trkpt lat="44.59972" lon="6.21801">
        <ele>1567</ele>
        <time>2018-05-10T10:47:57Z</time>
      </trkpt>
      <trkpt lat="44.59975" lon="6.21777">
        <ele>1568</ele>
        <time>2018-05-10T10:48:11Z</time>
      </trkpt>
      <trkpt lat="44.59975" lon="6.21777">
        <ele>1568</ele>
        <time>2018-05-10T10:48:18Z</time>
      </trkpt>
      <trkpt lat="44.59975" lon="6.2177">
        <ele>1569</ele>
        <time>2018-05-10T10:48:22Z</time>
      </trkpt>
      <trkpt lat="44.59977" lon="6.21753">
        <ele>1570</ele>
        <time>2018-05-10T10:48:34Z</time>
      </trkpt>
      <trkpt lat="44.59978" lon="6.21752">
        <ele>1570</ele>
        <time>2018-05-10T10:48:46Z</time>
      </trkpt>
      <trkpt lat="44.59976" lon="6.21749">
        <ele>1574</ele>
        <time>2018-05-10T10:49:14Z</time>
      </trkpt>
      <trkpt lat="44.59975" lon="6.21746">
        <ele>1574</ele>
        <time>2018-05-10T10:49:16Z</time>
      </trkpt>
      <trkpt lat="44.59962" lon="6.21707">
        <ele>1574</ele>
        <time>2018-05-10T10:49:36Z</time>
      </trkpt>
      <trkpt lat="44.59949" lon="6.21688">
        <ele>1574</ele>
        <time>2018-05-10T10:49:50Z</time>
      </trkpt>
      <trkpt lat="44.5993" lon="6.21701">
        <ele>1572</ele>
        <time>2018-05-10T10:50:05Z</time>
      </trkpt>
      <trkpt lat="44.59907" lon="6.21713">
        <ele>1567</ele>
        <time>2018-05-10T10:50:21Z</time>
      </trkpt>
      <trkpt lat="44.59881" lon="6.21712">
        <ele>1568</ele>
        <time>2018-05-10T10:50:38Z</time>
      </trkpt>
      <trkpt lat="44.59848" lon="6.21721">
        <ele>1566</ele>
        <time>2018-05-10T10:51:02Z</time>
      </trkpt>
      <trkpt lat="44.59813" lon="6.21719">
        <ele>1568</ele>
        <time>2018-05-10T10:51:27Z</time>
      </trkpt>
      <trkpt lat="44.59783" lon="6.21708">
        <ele>1571</ele>
        <time>2018-05-10T10:51:50Z</time>
      </trkpt>
      <trkpt lat="44.59781" lon="6.21707">
        <ele>1571</ele>
        <time>2018-05-10T10:51:52Z</time>
      </trkpt>
      <trkpt lat="44.59773" lon="6.21714">
        <ele>1570</ele>
        <time>2018-05-10T10:51:59Z</time>
      </trkpt>
      <trkpt lat="44.59756" lon="6.21736">
        <ele>1565</ele>
        <time>2018-05-10T10:52:17Z</time>
      </trkpt>
      <trkpt lat="44.59728" lon="6.21747">
        <ele>1569</ele>
        <time>2018-05-10T10:52:37Z</time>
      </trkpt>
      <trkpt lat="44.59699" lon="6.21756">
        <ele>1555</ele>
        <time>2018-05-10T10:52:59Z</time>
      </trkpt>
      <trkpt lat="44.59665" lon="6.21755">
        <ele>1563</ele>
        <time>2018-05-10T10:53:22Z</time>
      </trkpt>
      <trkpt lat="44.59626" lon="6.21755">
        <ele>1557</ele>
        <time>2018-05-10T10:53:50Z</time>
      </trkpt>
      <trkpt lat="44.59592" lon="6.21752">
        <ele>1562</ele>
        <time>2018-05-10T10:54:14Z</time>
      </trkpt>
      <trkpt lat="44.59559" lon="6.21746">
        <ele>1573</ele>
        <time>2018-05-10T10:54:39Z</time>
      </trkpt>
      <trkpt lat="44.5953" lon="6.2174">
        <ele>1573</ele>
        <time>2018-05-10T10:55:03Z</time>
      </trkpt>
      <trkpt lat="44.59496" lon="6.21729">
        <ele>1566</ele>
        <time>2018-05-10T10:55:30Z</time>
      </trkpt>
      <trkpt lat="44.59483" lon="6.21724">
        <ele>1566</ele>
        <time>2018-05-10T10:55:40Z</time>
      </trkpt>
      <trkpt lat="44.59459" lon="6.21715">
        <ele>1566</ele>
        <time>2018-05-10T10:55:59Z</time>
      </trkpt>
      <trkpt lat="44.59431" lon="6.21703">
        <ele>1566</ele>
        <time>2018-05-10T10:56:20Z</time>
      </trkpt>
      <trkpt lat="44.59406" lon="6.2169">
        <ele>1560</ele>
        <time>2018-05-10T10:56:40Z</time>
      </trkpt>
      <trkpt lat="44.59389" lon="6.21674">
        <ele>1560</ele>
        <time>2018-05-10T10:56:56Z</time>
      </trkpt>
      <trkpt lat="44.5938" lon="6.21663">
        <ele>1572</ele>
        <time>2018-05-10T10:57:05Z</time>
      </trkpt>
      <trkpt lat="44.59353" lon="6.21644">
        <ele>1570</ele>
        <time>2018-05-10T10:57:23Z</time>
      </trkpt>
      <trkpt lat="44.59332" lon="6.21637">
        <ele>1561</ele>
        <time>2018-05-10T10:57:40Z</time>
      </trkpt>
      <trkpt lat="44.59314" lon="6.21631">
        <ele>1560</ele>
        <time>2018-05-10T10:57:53Z</time>
      </trkpt>
      <trkpt lat="44.59295" lon="6.21617">
        <ele>1559</ele>
        <time>2018-05-10T10:58:10Z</time>
      </trkpt>
      <trkpt lat="44.5929" lon="6.21609">
        <ele>1559</ele>
        <time>2018-05-10T10:58:15Z</time>
      </trkpt>
      <trkpt lat="44.59286" lon="6.21597">
        <ele>1559</ele>
        <time>2018-05-10T10:58:23Z</time>
      </trkpt>
      <trkpt lat="44.59285" lon="6.21595">
        <ele>1559</ele>
        <time>2018-05-10T10:58:24Z</time>
      </trkpt>
      <trkpt lat="44.59285" lon="6.21594">
        <ele>1559</ele>
        <time>2018-05-10T10:58:25Z</time>
      </trkpt>
      <trkpt lat="44.59284" lon="6.21592">
        <ele>1559</ele>
        <time>2018-05-10T10:58:26Z</time>
      </trkpt>
      <trkpt lat="44.59282" lon="6.21586">
        <ele>1559</ele>
        <time>2018-05-10T10:58:29Z</time>
      </trkpt>
      <trkpt lat="44.5928" lon="6.21584">
        <ele>1559</ele>
        <time>2018-05-10T10:58:30Z</time>
      </trkpt>
      <trkpt lat="44.5928" lon="6.21582">
        <ele>1567</ele>
        <time>2018-05-10T10:58:31Z</time>
      </trkpt>
      <trkpt lat="44.59279" lon="6.2158">
        <ele>1567</ele>
        <time>2018-05-10T10:58:32Z</time>
      </trkpt>
      <trkpt lat="44.59278" lon="6.21579">
        <ele>1567</ele>
        <time>2018-05-10T10:58:33Z</time>
      </trkpt>
      <trkpt lat="44.59277" lon="6.21577">
        <ele>1567</ele>
        <time>2018-05-10T10:58:34Z</time>
      </trkpt>
      <trkpt lat="44.59271" lon="6.21553">
        <ele>1568</ele>
        <time>2018-05-10T10:58:49Z</time>
      </trkpt>
      <trkpt lat="44.59269" lon="6.21548">
        <ele>1569</ele>
        <time>2018-05-10T10:58:52Z</time>
      </trkpt>
      <trkpt lat="44.59268" lon="6.21545">
        <ele>1569</ele>
        <time>2018-05-10T10:58:53Z</time>
      </trkpt>
      <trkpt lat="44.59266" lon="6.21537">
        <ele>1569</ele>
        <time>2018-05-10T10:58:57Z</time>
      </trkpt>
      <trkpt lat="44.59267" lon="6.21536">
        <ele>1569</ele>
        <time>2018-05-10T10:58:58Z</time>
      </trkpt>
      <trkpt lat="44.59266" lon="6.21534">
        <ele>1570</ele>
        <time>2018-05-10T10:58:59Z</time>
      </trkpt>
      <trkpt lat="44.59266" lon="6.21532">
        <ele>1570</ele>
        <time>2018-05-10T10:59:00Z</time>
      </trkpt>
      <trkpt lat="44.59266" lon="6.21531">
        <ele>1570</ele>
        <time>2018-05-10T10:59:01Z</time>
      </trkpt>
      <trkpt lat="44.59265" lon="6.21529">
        <ele>1570</ele>
        <time>2018-05-10T10:59:02Z</time>
      </trkpt>
      <trkpt lat="44.59265" lon="6.21527">
        <ele>1570</ele>
        <time>2018-05-10T10:59:03Z</time>
      </trkpt>
      <trkpt lat="44.5926" lon="6.2151">
        <ele>1568</ele>
        <time>2018-05-10T10:59:13Z</time>
      </trkpt>
      <trkpt lat="44.59259" lon="6.21506">
        <ele>1567</ele>
        <time>2018-05-10T10:59:16Z</time>
      </trkpt>
      <trkpt lat="44.59258" lon="6.21504">
        <ele>1566</ele>
        <time>2018-05-10T10:59:17Z</time>
      </trkpt>
      <trkpt lat="44.59258" lon="6.21502">
        <ele>1566</ele>
        <time>2018-05-10T10:59:18Z</time>
      </trkpt>
      <trkpt lat="44.59258" lon="6.215">
        <ele>1566</ele>
        <time>2018-05-10T10:59:19Z</time>
      </trkpt>
      <trkpt lat="44.59257" lon="6.21498">
        <ele>1568</ele>
        <time>2018-05-10T10:59:20Z</time>
      </trkpt>
      <trkpt lat="44.59253" lon="6.2147">
        <ele>1577</ele>
        <time>2018-05-10T10:59:34Z</time>
      </trkpt>
      <trkpt lat="44.59252" lon="6.21468">
        <ele>1577</ele>
        <time>2018-05-10T10:59:35Z</time>
      </trkpt>
      <trkpt lat="44.59252" lon="6.21466">
        <ele>1577</ele>
        <time>2018-05-10T10:59:36Z</time>
      </trkpt>
      <trkpt lat="44.59251" lon="6.21465">
        <ele>1577</ele>
        <time>2018-05-10T10:59:37Z</time>
      </trkpt>
      <trkpt lat="44.5925" lon="6.21463">
        <ele>1577</ele>
        <time>2018-05-10T10:59:38Z</time>
      </trkpt>
      <trkpt lat="44.5925" lon="6.21458">
        <ele>1552</ele>
        <time>2018-05-10T10:59:41Z</time>
      </trkpt>
      <trkpt lat="44.59243" lon="6.21437">
        <ele>1556</ele>
        <time>2018-05-10T10:59:51Z</time>
      </trkpt>
      <trkpt lat="44.59243" lon="6.21435">
        <ele>1556</ele>
        <time>2018-05-10T10:59:52Z</time>
      </trkpt>
      <trkpt lat="44.59242" lon="6.21433">
        <ele>1557</ele>
        <time>2018-05-10T10:59:53Z</time>
      </trkpt>
      <trkpt lat="44.59244" lon="6.2141">
        <ele>1562</ele>
        <time>2018-05-10T11:00:05Z</time>
      </trkpt>
      <trkpt lat="44.59254" lon="6.21391">
        <ele>1577</ele>
        <time>2018-05-10T11:00:18Z</time>
      </trkpt>
      <trkpt lat="44.59255" lon="6.2139">
        <ele>1577</ele>
        <time>2018-05-10T11:00:19Z</time>
      </trkpt>
      <trkpt lat="44.59256" lon="6.21389">
        <ele>1578</ele>
        <time>2018-05-10T11:00:20Z</time>
      </trkpt>
      <trkpt lat="44.59257" lon="6.21387">
        <ele>1578</ele>
        <time>2018-05-10T11:00:21Z</time>
      </trkpt>
      <trkpt lat="44.59258" lon="6.21386">
        <ele>1578</ele>
        <time>2018-05-10T11:00:22Z</time>
      </trkpt>
      <trkpt lat="44.59259" lon="6.21384">
        <ele>1578</ele>
        <time>2018-05-10T11:00:23Z</time>
      </trkpt>
      <trkpt lat="44.5926" lon="6.21383">
        <ele>1578</ele>
        <time>2018-05-10T11:00:24Z</time>
      </trkpt>
      <trkpt lat="44.59261" lon="6.21381">
        <ele>1578</ele>
        <time>2018-05-10T11:00:25Z</time>
      </trkpt>
      <trkpt lat="44.59262" lon="6.2138">
        <ele>1578</ele>
        <time>2018-05-10T11:00:26Z</time>
      </trkpt>
      <trkpt lat="44.59263" lon="6.21379">
        <ele>1579</ele>
        <time>2018-05-10T11:00:27Z</time>
      </trkpt>
      <trkpt lat="44.59264" lon="6.21378">
        <ele>1579</ele>
        <time>2018-05-10T11:00:28Z</time>
      </trkpt>
      <trkpt lat="44.59271" lon="6.21354">
        <ele>1578</ele>
        <time>2018-05-10T11:00:43Z</time>
      </trkpt>
      <trkpt lat="44.5927" lon="6.21352">
        <ele>1577</ele>
        <time>2018-05-10T11:00:44Z</time>
      </trkpt>
      <trkpt lat="44.59269" lon="6.2135">
        <ele>1577</ele>
        <time>2018-05-10T11:00:45Z</time>
      </trkpt>
      <trkpt lat="44.59268" lon="6.21348">
        <ele>1576</ele>
        <time>2018-05-10T11:00:46Z</time>
      </trkpt>
      <trkpt lat="44.59267" lon="6.21346">
        <ele>1575</ele>
        <time>2018-05-10T11:00:47Z</time>
      </trkpt>
      <trkpt lat="44.5925" lon="6.21303">
        <ele>1546</ele>
        <time>2018-05-10T11:01:10Z</time>
      </trkpt>
      <trkpt lat="44.59253" lon="6.21275">
        <ele>1563</ele>
        <time>2018-05-10T11:01:29Z</time>
      </trkpt>
      <trkpt lat="44.59253" lon="6.21274">
        <ele>1563</ele>
        <time>2018-05-10T11:01:30Z</time>
      </trkpt>
      <trkpt lat="44.59254" lon="6.21272">
        <ele>1562</ele>
        <time>2018-05-10T11:01:31Z</time>
      </trkpt>
      <trkpt lat="44.59255" lon="6.2127">
        <ele>1562</ele>
        <time>2018-05-10T11:01:32Z</time>
      </trkpt>
      <trkpt lat="44.59255" lon="6.21268">
        <ele>1561</ele>
        <time>2018-05-10T11:01:33Z</time>
      </trkpt>
      <trkpt lat="44.59256" lon="6.21266">
        <ele>1561</ele>
        <time>2018-05-10T11:01:34Z</time>
      </trkpt>
      <trkpt lat="44.59283" lon="6.21233">
        <ele>1550</ele>
        <time>2018-05-10T11:01:55Z</time>
      </trkpt>
      <trkpt lat="44.59305" lon="6.21221">
        <ele>1550</ele>
        <time>2018-05-10T11:02:09Z</time>
      </trkpt>
      <trkpt lat="44.59336" lon="6.21214">
        <ele>1555</ele>
        <time>2018-05-10T11:02:28Z</time>
      </trkpt>
      <trkpt lat="44.59347" lon="6.21215">
        <ele>1556</ele>
        <time>2018-05-10T11:02:36Z</time>
      </trkpt>
      <trkpt lat="44.59349" lon="6.21216">
        <ele>1556</ele>
        <time>2018-05-10T11:02:37Z</time>
      </trkpt>
      <trkpt lat="44.5935" lon="6.21217">
        <ele>1556</ele>
        <time>2018-05-10T11:02:38Z</time>
      </trkpt>
      <trkpt lat="44.59352" lon="6.21217">
        <ele>1556</ele>
        <time>2018-05-10T11:02:39Z</time>
      </trkpt>
      <trkpt lat="44.59354" lon="6.21217">
        <ele>1556</ele>
        <time>2018-05-10T11:02:40Z</time>
      </trkpt>
      <trkpt lat="44.59355" lon="6.21218">
        <ele>1556</ele>
        <time>2018-05-10T11:02:41Z</time>
      </trkpt>
      <trkpt lat="44.59357" lon="6.21218">
        <ele>1556</ele>
        <time>2018-05-10T11:02:42Z</time>
      </trkpt>
      <trkpt lat="44.59358" lon="6.21218">
        <ele>1556</ele>
        <time>2018-05-10T11:02:43Z</time>
      </trkpt>
      <trkpt lat="44.59375" lon="6.2122">
        <ele>1557</ele>
        <time>2018-05-10T11:02:54Z</time>
      </trkpt>
      <trkpt lat="44.594" lon="6.21219">
        <ele>1558</ele>
        <time>2018-05-10T11:03:09Z</time>
      </trkpt>
      <trkpt lat="44.59415" lon="6.21216">
        <ele>1558</ele>
        <time>2018-05-10T11:03:24Z</time>
      </trkpt>
      <trkpt lat="44.59417" lon="6.21215">
        <ele>1558</ele>
        <time>2018-05-10T11:03:25Z</time>
      </trkpt>
      <trkpt lat="44.59419" lon="6.21215">
        <ele>1565</ele>
        <time>2018-05-10T11:03:27Z</time>
      </trkpt>
      <trkpt lat="44.5942" lon="6.21214">
        <ele>1565</ele>
        <time>2018-05-10T11:03:28Z</time>
      </trkpt>
      <trkpt lat="44.59432" lon="6.21207">
        <ele>1564</ele>
        <time>2018-05-10T11:03:41Z</time>
      </trkpt>
      <trkpt lat="44.59435" lon="6.21207">
        <ele>1564</ele>
        <time>2018-05-10T11:03:43Z</time>
      </trkpt>
      <trkpt lat="44.59436" lon="6.21207">
        <ele>1564</ele>
        <time>2018-05-10T11:03:44Z</time>
      </trkpt>
      <trkpt lat="44.59438" lon="6.21207">
        <ele>1564</ele>
        <time>2018-05-10T11:03:45Z</time>
      </trkpt>
      <trkpt lat="44.59453" lon="6.212">
        <ele>1564</ele>
        <time>2018-05-10T11:03:59Z</time>
      </trkpt>
      <trkpt lat="44.59454" lon="6.21199">
        <ele>1564</ele>
        <time>2018-05-10T11:04:00Z</time>
      </trkpt>
      <trkpt lat="44.59455" lon="6.21198">
        <ele>1564</ele>
        <time>2018-05-10T11:04:01Z</time>
      </trkpt>
      <trkpt lat="44.59481" lon="6.21175">
        <ele>1562</ele>
        <time>2018-05-10T11:04:22Z</time>
      </trkpt>
      <trkpt lat="44.59507" lon="6.21157">
        <ele>1556</ele>
        <time>2018-05-10T11:04:41Z</time>
      </trkpt>
      <trkpt lat="44.59523" lon="6.21137">
        <ele>1554</ele>
        <time>2018-05-10T11:04:54Z</time>
      </trkpt>
      <trkpt lat="44.5953" lon="6.21129">
        <ele>1553</ele>
        <time>2018-05-10T11:05:00Z</time>
      </trkpt>
      <trkpt lat="44.59531" lon="6.21128">
        <ele>1553</ele>
        <time>2018-05-10T11:05:01Z</time>
      </trkpt>
      <trkpt lat="44.5955" lon="6.21098">
        <ele>1550</ele>
        <time>2018-05-10T11:05:18Z</time>
      </trkpt>
      <trkpt lat="44.5957" lon="6.21068">
        <ele>1535</ele>
        <time>2018-05-10T11:05:36Z</time>
      </trkpt>
      <trkpt lat="44.59587" lon="6.21042">
        <ele>1542</ele>
        <time>2018-05-10T11:05:53Z</time>
      </trkpt>
      <trkpt lat="44.59605" lon="6.21041">
        <ele>1543</ele>
        <time>2018-05-10T11:06:05Z</time>
      </trkpt>
      <trkpt lat="44.5963" lon="6.21033">
        <ele>1544</ele>
        <time>2018-05-10T11:06:20Z</time>
      </trkpt>
      <trkpt lat="44.59651" lon="6.20999">
        <ele>1534</ele>
        <time>2018-05-10T11:06:38Z</time>
      </trkpt>
      <trkpt lat="44.59654" lon="6.20994">
        <ele>1535</ele>
        <time>2018-05-10T11:06:44Z</time>
      </trkpt>
      <trkpt lat="44.59655" lon="6.20992">
        <ele>1534</ele>
        <time>2018-05-10T11:06:45Z</time>
      </trkpt>
      <trkpt lat="44.59655" lon="6.2099">
        <ele>1534</ele>
        <time>2018-05-10T11:06:46Z</time>
      </trkpt>
      <trkpt lat="44.59655" lon="6.20988">
        <ele>1534</ele>
        <time>2018-05-10T11:06:47Z</time>
      </trkpt>
      <trkpt lat="44.59655" lon="6.20986">
        <ele>1533</ele>
        <time>2018-05-10T11:06:48Z</time>
      </trkpt>
      <trkpt lat="44.59655" lon="6.20983">
        <ele>1533</ele>
        <time>2018-05-10T11:06:49Z</time>
      </trkpt>
      <trkpt lat="44.59655" lon="6.20981">
        <ele>1533</ele>
        <time>2018-05-10T11:06:50Z</time>
      </trkpt>
      <trkpt lat="44.59655" lon="6.20979">
        <ele>1532</ele>
        <time>2018-05-10T11:06:51Z</time>
      </trkpt>
      <trkpt lat="44.59655" lon="6.20977">
        <ele>1532</ele>
        <time>2018-05-10T11:06:52Z</time>
      </trkpt>
      <trkpt lat="44.59655" lon="6.20975">
        <ele>1532</ele>
        <time>2018-05-10T11:06:53Z</time>
      </trkpt>
      <trkpt lat="44.59654" lon="6.2095">
        <ele>1529</ele>
        <time>2018-05-10T11:07:05Z</time>
      </trkpt>
      <trkpt lat="44.59667" lon="6.20914">
        <ele>1532</ele>
        <time>2018-05-10T11:07:23Z</time>
      </trkpt>
      <trkpt lat="44.59656" lon="6.20887">
        <ele>1525</ele>
        <time>2018-05-10T11:07:38Z</time>
      </trkpt>
      <trkpt lat="44.59649" lon="6.2086">
        <ele>1524</ele>
        <time>2018-05-10T11:07:52Z</time>
      </trkpt>
      <trkpt lat="44.59644" lon="6.20825">
        <ele>1526</ele>
        <time>2018-05-10T11:08:09Z</time>
      </trkpt>
      <trkpt lat="44.59611" lon="6.20803">
        <ele>1522</ele>
        <time>2018-05-10T11:08:29Z</time>
      </trkpt>
      <trkpt lat="44.59594" lon="6.20783">
        <ele>1521</ele>
        <time>2018-05-10T11:08:45Z</time>
      </trkpt>
      <trkpt lat="44.59589" lon="6.20747">
        <ele>1519</ele>
        <time>2018-05-10T11:09:03Z</time>
      </trkpt>
      <trkpt lat="44.59589" lon="6.20721">
        <ele>1522</ele>
        <time>2018-05-10T11:09:16Z</time>
      </trkpt>
      <trkpt lat="44.59589" lon="6.20715">
        <ele>1522</ele>
        <time>2018-05-10T11:09:19Z</time>
      </trkpt>
      <trkpt lat="44.59589" lon="6.20688">
        <ele>1520</ele>
        <time>2018-05-10T11:09:32Z</time>
      </trkpt>
      <trkpt lat="44.59588" lon="6.20676">
        <ele>1517</ele>
        <time>2018-05-10T11:09:45Z</time>
      </trkpt>
      <trkpt lat="44.59588" lon="6.20674">
        <ele>1517</ele>
        <time>2018-05-10T11:09:46Z</time>
      </trkpt>
      <trkpt lat="44.59588" lon="6.20671">
        <ele>1516</ele>
        <time>2018-05-10T11:09:47Z</time>
      </trkpt>
      <trkpt lat="44.59585" lon="6.20646">
        <ele>1518</ele>
        <time>2018-05-10T11:09:58Z</time>
      </trkpt>
      <trkpt lat="44.59562" lon="6.20654">
        <ele>1507</ele>
        <time>2018-05-10T11:10:13Z</time>
      </trkpt>
      <trkpt lat="44.59558" lon="6.20662">
        <ele>1507</ele>
        <time>2018-05-10T11:10:19Z</time>
      </trkpt>
      <trkpt lat="44.59555" lon="6.20667">
        <ele>1507</ele>
        <time>2018-05-10T11:10:23Z</time>
      </trkpt>
      <trkpt lat="44.59533" lon="6.20701">
        <ele>1504</ele>
        <time>2018-05-10T11:10:45Z</time>
      </trkpt>
      <trkpt lat="44.59525" lon="6.20707">
        <ele>1503</ele>
        <time>2018-05-10T11:10:57Z</time>
      </trkpt>
      <trkpt lat="44.59518" lon="6.20711">
        <ele>1502</ele>
        <time>2018-05-10T11:11:04Z</time>
      </trkpt>
      <trkpt lat="44.59516" lon="6.20709">
        <ele>1502</ele>
        <time>2018-05-10T11:11:06Z</time>
      </trkpt>
      <trkpt lat="44.59514" lon="6.20718">
        <ele>1502</ele>
        <time>2018-05-10T11:11:11Z</time>
      </trkpt>
      <trkpt lat="44.59516" lon="6.20768">
        <ele>1500</ele>
        <time>2018-05-10T11:11:30Z</time>
      </trkpt>
      <trkpt lat="44.59512" lon="6.2082">
        <ele>1498</ele>
        <time>2018-05-10T11:11:51Z</time>
      </trkpt>
      <trkpt lat="44.59495" lon="6.20842">
        <ele>1491</ele>
        <time>2018-05-10T11:12:06Z</time>
      </trkpt>
      <trkpt lat="44.59468" lon="6.20859">
        <ele>1486</ele>
        <time>2018-05-10T11:12:25Z</time>
      </trkpt>
      <trkpt lat="44.59449" lon="6.20885">
        <ele>1485</ele>
        <time>2018-05-10T11:12:43Z</time>
      </trkpt>
      <trkpt lat="44.59446" lon="6.2092">
        <ele>1487</ele>
        <time>2018-05-10T11:13:00Z</time>
      </trkpt>
      <trkpt lat="44.59448" lon="6.20956">
        <ele>1488</ele>
        <time>2018-05-10T11:13:17Z</time>
      </trkpt>
      <trkpt lat="44.59449" lon="6.20988">
        <ele>1489</ele>
        <time>2018-05-10T11:13:34Z</time>
      </trkpt>
      <trkpt lat="44.59428" lon="6.2101">
        <ele>1492</ele>
        <time>2018-05-10T11:13:51Z</time>
      </trkpt>
      <trkpt lat="44.59406" lon="6.21029">
        <ele>1490</ele>
        <time>2018-05-10T11:14:07Z</time>
      </trkpt>
      <trkpt lat="44.59377" lon="6.21036">
        <ele>1491</ele>
        <time>2018-05-10T11:14:25Z</time>
      </trkpt>
      <trkpt lat="44.59352" lon="6.21027">
        <ele>1488</ele>
        <time>2018-05-10T11:14:41Z</time>
      </trkpt>
      <trkpt lat="44.59331" lon="6.21015">
        <ele>1482</ele>
        <time>2018-05-10T11:14:58Z</time>
      </trkpt>
      <trkpt lat="44.59322" lon="6.21001">
        <ele>1480</ele>
        <time>2018-05-10T11:15:10Z</time>
      </trkpt>
      <trkpt lat="44.593" lon="6.20982">
        <ele>1467</ele>
        <time>2018-05-10T11:15:25Z</time>
      </trkpt>
      <trkpt lat="44.59297" lon="6.2098">
        <ele>1467</ele>
        <time>2018-05-10T11:15:27Z</time>
      </trkpt>
      <trkpt lat="44.59283" lon="6.20979">
        <ele>1466</ele>
        <time>2018-05-10T11:15:36Z</time>
      </trkpt>
      <trkpt lat="44.59263" lon="6.20992">
        <ele>1469</ele>
        <time>2018-05-10T11:15:54Z</time>
      </trkpt>
      <trkpt lat="44.5925" lon="6.21004">
        <ele>1474</ele>
        <time>2018-05-10T11:16:06Z</time>
      </trkpt>
      <trkpt lat="44.59247" lon="6.21006">
        <ele>1475</ele>
        <time>2018-05-10T11:16:08Z</time>
      </trkpt>
      <trkpt lat="44.59225" lon="6.21012">
        <ele>1478</ele>
        <time>2018-05-10T11:16:23Z</time>
      </trkpt>
      <trkpt lat="44.59199" lon="6.21005">
        <ele>1476</ele>
        <time>2018-05-10T11:16:41Z</time>
      </trkpt>
      <trkpt lat="44.59178" lon="6.20996">
        <ele>1459</ele>
        <time>2018-05-10T11:16:56Z</time>
      </trkpt>
      <trkpt lat="44.59153" lon="6.20991">
        <ele>1451</ele>
        <time>2018-05-10T11:17:15Z</time>
      </trkpt>
      <trkpt lat="44.59148" lon="6.20994">
        <ele>1450</ele>
        <time>2018-05-10T11:17:20Z</time>
      </trkpt>
      <trkpt lat="44.59138" lon="6.20998">
        <ele>1447</ele>
        <time>2018-05-10T11:17:28Z</time>
      </trkpt>
      <trkpt lat="44.59131" lon="6.20994">
        <ele>1445</ele>
        <time>2018-05-10T11:17:34Z</time>
      </trkpt>
      <trkpt lat="44.59141" lon="6.20979">
        <ele>1445</ele>
        <time>2018-05-10T11:17:49Z</time>
      </trkpt>
      <trkpt lat="44.5915" lon="6.20974">
        <ele>1445</ele>
        <time>2018-05-10T11:17:58Z</time>
      </trkpt>
      <trkpt lat="44.59157" lon="6.20974">
        <ele>1446</ele>
        <time>2018-05-10T11:18:02Z</time>
      </trkpt>
      <trkpt lat="44.59177" lon="6.20973">
        <ele>1455</ele>
        <time>2018-05-10T11:18:16Z</time>
      </trkpt>
      <trkpt lat="44.59183" lon="6.20974">
        <ele>1455</ele>
        <time>2018-05-10T11:18:19Z</time>
      </trkpt>
      <trkpt lat="44.59191" lon="6.20976">
        <ele>1456</ele>
        <time>2018-05-10T11:18:24Z</time>
      </trkpt>
      <trkpt lat="44.59204" lon="6.20978">
        <ele>1456</ele>
        <time>2018-05-10T11:18:32Z</time>
      </trkpt>
      <trkpt lat="44.59226" lon="6.2096">
        <ele>1455</ele>
        <time>2018-05-10T11:18:48Z</time>
      </trkpt>
      <trkpt lat="44.59235" lon="6.20913">
        <ele>1442</ele>
        <time>2018-05-10T11:19:10Z</time>
      </trkpt>
      <trkpt lat="44.59242" lon="6.20877">
        <ele>1437</ele>
        <time>2018-05-10T11:19:29Z</time>
      </trkpt>
      <trkpt lat="44.59257" lon="6.20842">
        <ele>1441</ele>
        <time>2018-05-10T11:19:49Z</time>
      </trkpt>
      <trkpt lat="44.59269" lon="6.20813">
        <ele>1442</ele>
        <time>2018-05-10T11:20:05Z</time>
      </trkpt>
      <trkpt lat="44.59251" lon="6.20784">
        <ele>1440</ele>
        <time>2018-05-10T11:20:23Z</time>
      </trkpt>
      <trkpt lat="44.59261" lon="6.20752">
        <ele>1437</ele>
        <time>2018-05-10T11:20:40Z</time>
      </trkpt>
      <trkpt lat="44.59273" lon="6.20723">
        <ele>1443</ele>
        <time>2018-05-10T11:20:56Z</time>
      </trkpt>
      <trkpt lat="44.59274" lon="6.20721">
        <ele>1444</ele>
        <time>2018-05-10T11:21:11Z</time>
      </trkpt>
      <trkpt lat="44.59273" lon="6.20722">
        <ele>1443</ele>
        <time>2018-05-10T11:21:40Z</time>
      </trkpt>
      <trkpt lat="44.59274" lon="6.20721">
        <ele>1444</ele>
        <time>2018-05-10T11:22:13Z</time>
      </trkpt>
      <trkpt lat="44.59277" lon="6.20722">
        <ele>1444</ele>
        <time>2018-05-10T11:22:29Z</time>
      </trkpt>
      <trkpt lat="44.59283" lon="6.2072">
        <ele>1445</ele>
        <time>2018-05-10T11:22:35Z</time>
      </trkpt>
      <trkpt lat="44.5929" lon="6.20718">
        <ele>1446</ele>
        <time>2018-05-10T11:22:50Z</time>
      </trkpt>
      <trkpt lat="44.5929" lon="6.20718">
        <ele>1446</ele>
        <time>2018-05-10T11:23:27Z</time>
      </trkpt>
      <trkpt lat="44.5929" lon="6.20716">
        <ele>1446</ele>
        <time>2018-05-10T11:23:44Z</time>
      </trkpt>
      <trkpt lat="44.59291" lon="6.20716">
        <ele>1446</ele>
        <time>2018-05-10T11:24:17Z</time>
      </trkpt>
      <trkpt lat="44.59291" lon="6.20717">
        <ele>1446</ele>
        <time>2018-05-10T11:24:48Z</time>
      </trkpt>
      <trkpt lat="44.59285" lon="6.20718">
        <ele>1445</ele>
        <time>2018-05-10T11:25:04Z</time>
      </trkpt>
      <trkpt lat="44.59286" lon="6.20718">
        <ele>1445</ele>
        <time>2018-05-10T11:25:37Z</time>
      </trkpt>
      <trkpt lat="44.59286" lon="6.20717">
        <ele>1445</ele>
        <time>2018-05-10T11:26:14Z</time>
      </trkpt>
      <trkpt lat="44.59285" lon="6.20718">
        <ele>1445</ele>
        <time>2018-05-10T11:26:55Z</time>
      </trkpt>
      <trkpt lat="44.59283" lon="6.2072">
        <ele>1445</ele>
        <time>2018-05-10T11:27:11Z</time>
      </trkpt>
      <trkpt lat="44.59284" lon="6.20721">
        <ele>1445</ele>
        <time>2018-05-10T11:27:39Z</time>
      </trkpt>
      <trkpt lat="44.59286" lon="6.20717">
        <ele>1445</ele>
        <time>2018-05-10T12:26:46Z</time>
      </trkpt>
      <trkpt lat="44.59286" lon="6.20717">
        <ele>1445</ele>
        <time>2018-05-10T12:26:47Z</time>
      </trkpt>
      <trkpt lat="44.59287" lon="6.20716">
        <ele>1446</ele>
        <time>2018-05-10T12:27:21Z</time>
      </trkpt>
      <trkpt lat="44.59288" lon="6.20716">
        <ele>1446</ele>
        <time>2018-05-10T12:27:54Z</time>
      </trkpt>
      <trkpt lat="44.59288" lon="6.20718">
        <ele>1446</ele>
        <time>2018-05-10T12:28:35Z</time>
      </trkpt>
      <trkpt lat="44.59283" lon="6.2072">
        <ele>1445</ele>
        <time>2018-05-10T12:28:40Z</time>
      </trkpt>
      <trkpt lat="44.59282" lon="6.20718">
        <ele>1445</ele>
        <time>2018-05-10T12:28:58Z</time>
      </trkpt>
      <trkpt lat="44.59282" lon="6.20715">
        <ele>1445</ele>
        <time>2018-05-10T12:29:24Z</time>
      </trkpt>
      <trkpt lat="44.59276" lon="6.20712">
        <ele>1444</ele>
        <time>2018-05-10T12:29:28Z</time>
      </trkpt>
      <trkpt lat="44.59273" lon="6.2071">
        <ele>1444</ele>
        <time>2018-05-10T12:29:43Z</time>
      </trkpt>
      <trkpt lat="44.59271" lon="6.20708">
        <ele>1444</ele>
        <time>2018-05-10T12:30:10Z</time>
      </trkpt>
      <trkpt lat="44.5927" lon="6.20707">
        <ele>1444</ele>
        <time>2018-05-10T12:30:14Z</time>
      </trkpt>
      <trkpt lat="44.59265" lon="6.20703">
        <ele>1444</ele>
        <time>2018-05-10T12:30:18Z</time>
      </trkpt>
      <trkpt lat="44.59249" lon="6.20679">
        <ele>1435</ele>
        <time>2018-05-10T12:30:36Z</time>
      </trkpt>
      <trkpt lat="44.59241" lon="6.20646">
        <ele>1435</ele>
        <time>2018-05-10T12:30:55Z</time>
      </trkpt>
      <trkpt lat="44.59238" lon="6.20617">
        <ele>1434</ele>
        <time>2018-05-10T12:31:12Z</time>
      </trkpt>
      <trkpt lat="44.59237" lon="6.20593">
        <ele>1435</ele>
        <time>2018-05-10T12:31:25Z</time>
      </trkpt>
      <trkpt lat="44.59232" lon="6.20568">
        <ele>1433</ele>
        <time>2018-05-10T12:31:39Z</time>
      </trkpt>
      <trkpt lat="44.5923" lon="6.20561">
        <ele>1432</ele>
        <time>2018-05-10T12:31:43Z</time>
      </trkpt>
      <trkpt lat="44.5923" lon="6.20529">
        <ele>1431</ele>
        <time>2018-05-10T12:31:59Z</time>
      </trkpt>
      <trkpt lat="44.59227" lon="6.20513">
        <ele>1431</ele>
        <time>2018-05-10T12:32:06Z</time>
      </trkpt>
      <trkpt lat="44.59221" lon="6.20487">
        <ele>1427</ele>
        <time>2018-05-10T12:32:19Z</time>
      </trkpt>
      <trkpt lat="44.59211" lon="6.20465">
        <ele>1425</ele>
        <time>2018-05-10T12:32:32Z</time>
      </trkpt>
      <trkpt lat="44.59206" lon="6.20457">
        <ele>1425</ele>
        <time>2018-05-10T12:32:38Z</time>
      </trkpt>
      <trkpt lat="44.59196" lon="6.20443">
        <ele>1424</ele>
        <time>2018-05-10T12:32:48Z</time>
      </trkpt>
      <trkpt lat="44.59187" lon="6.20419">
        <ele>1421</ele>
        <time>2018-05-10T12:33:00Z</time>
      </trkpt>
      <trkpt lat="44.59177" lon="6.20396">
        <ele>1424</ele>
        <time>2018-05-10T12:33:15Z</time>
      </trkpt>
      <trkpt lat="44.59171" lon="6.20379">
        <ele>1426</ele>
        <time>2018-05-10T12:33:28Z</time>
      </trkpt>
      <trkpt lat="44.59167" lon="6.20375">
        <ele>1426</ele>
        <time>2018-05-10T12:33:30Z</time>
      </trkpt>
      <trkpt lat="44.59154" lon="6.20343">
        <ele>1418</ele>
        <time>2018-05-10T12:33:45Z</time>
      </trkpt>
      <trkpt lat="44.59142" lon="6.20328">
        <ele>1419</ele>
        <time>2018-05-10T12:33:57Z</time>
      </trkpt>
      <trkpt lat="44.59136" lon="6.20321">
        <ele>1417</ele>
        <time>2018-05-10T12:34:02Z</time>
      </trkpt>
      <trkpt lat="44.59132" lon="6.20311">
        <ele>1417</ele>
        <time>2018-05-10T12:34:07Z</time>
      </trkpt>
      <trkpt lat="44.59129" lon="6.20299">
        <ele>1416</ele>
        <time>2018-05-10T12:34:13Z</time>
      </trkpt>
      <trkpt lat="44.59125" lon="6.20263">
        <ele>1417</ele>
        <time>2018-05-10T12:34:31Z</time>
      </trkpt>
      <trkpt lat="44.59114" lon="6.20232">
        <ele>1416</ele>
        <time>2018-05-10T12:34:47Z</time>
      </trkpt>
      <trkpt lat="44.59097" lon="6.20203">
        <ele>1413</ele>
        <time>2018-05-10T12:35:05Z</time>
      </trkpt>
      <trkpt lat="44.59103" lon="6.20182">
        <ele>1412</ele>
        <time>2018-05-10T12:35:20Z</time>
      </trkpt>
      <trkpt lat="44.59126" lon="6.20155">
        <ele>1410</ele>
        <time>2018-05-10T12:35:39Z</time>
      </trkpt>
      <trkpt lat="44.59151" lon="6.20143">
        <ele>1414</ele>
        <time>2018-05-10T12:35:55Z</time>
      </trkpt>
      <trkpt lat="44.59161" lon="6.20118">
        <ele>1410</ele>
        <time>2018-05-10T12:36:10Z</time>
      </trkpt>
      <trkpt lat="44.59162" lon="6.20075">
        <ele>1406</ele>
        <time>2018-05-10T12:36:27Z</time>
      </trkpt>
      <trkpt lat="44.59175" lon="6.20044">
        <ele>1415</ele>
        <time>2018-05-10T12:36:44Z</time>
      </trkpt>
      <trkpt lat="44.59183" lon="6.20008">
        <ele>1411</ele>
        <time>2018-05-10T12:37:00Z</time>
      </trkpt>
      <trkpt lat="44.59186" lon="6.19978">
        <ele>1408</ele>
        <time>2018-05-10T12:37:13Z</time>
      </trkpt>
      <trkpt lat="44.59187" lon="6.19944">
        <ele>1407</ele>
        <time>2018-05-10T12:37:27Z</time>
      </trkpt>
      <trkpt lat="44.59192" lon="6.19904">
        <ele>1404</ele>
        <time>2018-05-10T12:37:45Z</time>
      </trkpt>
      <trkpt lat="44.59197" lon="6.19877">
        <ele>1404</ele>
        <time>2018-05-10T12:37:59Z</time>
      </trkpt>
      <trkpt lat="44.59199" lon="6.19875">
        <ele>1404</ele>
        <time>2018-05-10T12:38:01Z</time>
      </trkpt>
      <trkpt lat="44.59207" lon="6.19855">
        <ele>1404</ele>
        <time>2018-05-10T12:38:13Z</time>
      </trkpt>
      <trkpt lat="44.59211" lon="6.19849">
        <ele>1404</ele>
        <time>2018-05-10T12:38:17Z</time>
      </trkpt>
      <trkpt lat="44.59219" lon="6.19833">
        <ele>1405</ele>
        <time>2018-05-10T12:38:35Z</time>
      </trkpt>
      <trkpt lat="44.5922" lon="6.19831">
        <ele>1402</ele>
        <time>2018-05-10T12:38:52Z</time>
      </trkpt>
      <trkpt lat="44.59221" lon="6.19829">
        <ele>1402</ele>
        <time>2018-05-10T12:39:09Z</time>
      </trkpt>
      <trkpt lat="44.59221" lon="6.19825">
        <ele>1402</ele>
        <time>2018-05-10T12:39:28Z</time>
      </trkpt>
      <trkpt lat="44.59222" lon="6.19822">
        <ele>1402</ele>
        <time>2018-05-10T12:39:48Z</time>
      </trkpt>
      <trkpt lat="44.59225" lon="6.198">
        <ele>1402</ele>
        <time>2018-05-10T12:40:01Z</time>
      </trkpt>
      <trkpt lat="44.59235" lon="6.19766">
        <ele>1403</ele>
        <time>2018-05-10T12:40:19Z</time>
      </trkpt>
      <trkpt lat="44.59242" lon="6.19748">
        <ele>1403</ele>
        <time>2018-05-10T12:40:31Z</time>
      </trkpt>
      <trkpt lat="44.59244" lon="6.19736">
        <ele>1401</ele>
        <time>2018-05-10T12:40:38Z</time>
      </trkpt>
      <trkpt lat="44.59243" lon="6.19728">
        <ele>1400</ele>
        <time>2018-05-10T12:40:42Z</time>
      </trkpt>
      <trkpt lat="44.59233" lon="6.19695">
        <ele>1397</ele>
        <time>2018-05-10T12:41:00Z</time>
      </trkpt>
      <trkpt lat="44.5923" lon="6.19665">
        <ele>1396</ele>
        <time>2018-05-10T12:41:15Z</time>
      </trkpt>
      <trkpt lat="44.5923" lon="6.19663">
        <ele>1396</ele>
        <time>2018-05-10T12:41:16Z</time>
      </trkpt>
      <trkpt lat="44.59238" lon="6.19646">
        <ele>1396</ele>
        <time>2018-05-10T12:41:25Z</time>
      </trkpt>
      <trkpt lat="44.59248" lon="6.19632">
        <ele>1396</ele>
        <time>2018-05-10T12:41:34Z</time>
      </trkpt>
      <trkpt lat="44.59264" lon="6.19612">
        <ele>1405</ele>
        <time>2018-05-10T12:41:50Z</time>
      </trkpt>
      <trkpt lat="44.59281" lon="6.19593">
        <ele>1406</ele>
        <time>2018-05-10T12:42:05Z</time>
      </trkpt>
      <trkpt lat="44.59293" lon="6.19571">
        <ele>1406</ele>
        <time>2018-05-10T12:42:19Z</time>
      </trkpt>
      <trkpt lat="44.59299" lon="6.19556">
        <ele>1407</ele>
        <time>2018-05-10T12:42:29Z</time>
      </trkpt>
      <trkpt lat="44.5931" lon="6.1952">
        <ele>1407</ele>
        <time>2018-05-10T12:42:48Z</time>
      </trkpt>
      <trkpt lat="44.59328" lon="6.195">
        <ele>1409</ele>
        <time>2018-05-10T12:43:04Z</time>
      </trkpt>
      <trkpt lat="44.5933" lon="6.19498">
        <ele>1409</ele>
        <time>2018-05-10T12:43:06Z</time>
      </trkpt>
      <trkpt lat="44.59335" lon="6.19484">
        <ele>1411</ele>
        <time>2018-05-10T12:43:14Z</time>
      </trkpt>
      <trkpt lat="44.59338" lon="6.19452">
        <ele>1410</ele>
        <time>2018-05-10T12:43:30Z</time>
      </trkpt>
      <trkpt lat="44.59336" lon="6.19413">
        <ele>1405</ele>
        <time>2018-05-10T12:43:50Z</time>
      </trkpt>
      <trkpt lat="44.59343" lon="6.19375">
        <ele>1406</ele>
        <time>2018-05-10T12:44:06Z</time>
      </trkpt>
      <trkpt lat="44.59348" lon="6.19341">
        <ele>1403</ele>
        <time>2018-05-10T12:44:24Z</time>
      </trkpt>
      <trkpt lat="44.5935" lon="6.19314">
        <ele>1399</ele>
        <time>2018-05-10T12:44:39Z</time>
      </trkpt>
      <trkpt lat="44.59345" lon="6.19292">
        <ele>1397</ele>
        <time>2018-05-10T12:44:51Z</time>
      </trkpt>
      <trkpt lat="44.59343" lon="6.19264">
        <ele>1394</ele>
        <time>2018-05-10T12:45:03Z</time>
      </trkpt>
      <trkpt lat="44.59343" lon="6.19244">
        <ele>1390</ele>
        <time>2018-05-10T12:45:12Z</time>
      </trkpt>
      <trkpt lat="44.59343" lon="6.19243">
        <ele>1390</ele>
        <time>2018-05-10T12:45:13Z</time>
      </trkpt>
      <trkpt lat="44.59342" lon="6.19241">
        <ele>1390</ele>
        <time>2018-05-10T12:45:14Z</time>
      </trkpt>
      <trkpt lat="44.59341" lon="6.19239">
        <ele>1390</ele>
        <time>2018-05-10T12:45:15Z</time>
      </trkpt>
      <trkpt lat="44.59341" lon="6.19237">
        <ele>1390</ele>
        <time>2018-05-10T12:45:16Z</time>
      </trkpt>
      <trkpt lat="44.59341" lon="6.19235">
        <ele>1390</ele>
        <time>2018-05-10T12:45:17Z</time>
      </trkpt>
      <trkpt lat="44.59333" lon="6.19202">
        <ele>1383</ele>
        <time>2018-05-10T12:45:31Z</time>
      </trkpt>
      <trkpt lat="44.59325" lon="6.19166">
        <ele>1381</ele>
        <time>2018-05-10T12:45:48Z</time>
      </trkpt>
      <trkpt lat="44.59324" lon="6.19125">
        <ele>1379</ele>
        <time>2018-05-10T12:46:06Z</time>
      </trkpt>
      <trkpt lat="44.59322" lon="6.19079">
        <ele>1383</ele>
        <time>2018-05-10T12:46:27Z</time>
      </trkpt>
      <trkpt lat="44.59329" lon="6.19035">
        <ele>1380</ele>
        <time>2018-05-10T12:46:48Z</time>
      </trkpt>
      <trkpt lat="44.59343" lon="6.18993">
        <ele>1386</ele>
        <time>2018-05-10T12:47:09Z</time>
      </trkpt>
      <trkpt lat="44.5936" lon="6.18946">
        <ele>1386</ele>
        <time>2018-05-10T12:47:31Z</time>
      </trkpt>
      <trkpt lat="44.59366" lon="6.18914">
        <ele>1385</ele>
        <time>2018-05-10T12:47:47Z</time>
      </trkpt>
      <trkpt lat="44.59373" lon="6.18882">
        <ele>1386</ele>
        <time>2018-05-10T12:48:03Z</time>
      </trkpt>
      <trkpt lat="44.59383" lon="6.18852">
        <ele>1387</ele>
        <time>2018-05-10T12:48:18Z</time>
      </trkpt>
      <trkpt lat="44.59395" lon="6.18838">
        <ele>1389</ele>
        <time>2018-05-10T12:48:29Z</time>
      </trkpt>
      <trkpt lat="44.59414" lon="6.18822">
        <ele>1391</ele>
        <time>2018-05-10T12:48:45Z</time>
      </trkpt>
      <trkpt lat="44.59434" lon="6.18793">
        <ele>1394</ele>
        <time>2018-05-10T12:49:07Z</time>
      </trkpt>
      <trkpt lat="44.59447" lon="6.18781">
        <ele>1393</ele>
        <time>2018-05-10T12:49:16Z</time>
      </trkpt>
      <trkpt lat="44.59469" lon="6.18754">
        <ele>1393</ele>
        <time>2018-05-10T12:49:34Z</time>
      </trkpt>
      <trkpt lat="44.59488" lon="6.18725">
        <ele>1386</ele>
        <time>2018-05-10T12:49:54Z</time>
      </trkpt>
      <trkpt lat="44.5951" lon="6.18709">
        <ele>1390</ele>
        <time>2018-05-10T12:50:11Z</time>
      </trkpt>
      <trkpt lat="44.59537" lon="6.18689">
        <ele>1389</ele>
        <time>2018-05-10T12:50:29Z</time>
      </trkpt>
      <trkpt lat="44.59552" lon="6.18675">
        <ele>1389</ele>
        <time>2018-05-10T12:50:44Z</time>
      </trkpt>
      <trkpt lat="44.59558" lon="6.18648">
        <ele>1383</ele>
        <time>2018-05-10T12:50:59Z</time>
      </trkpt>
      <trkpt lat="44.59568" lon="6.18637">
        <ele>1383</ele>
        <time>2018-05-10T12:51:07Z</time>
      </trkpt>
      <trkpt lat="44.59595" lon="6.18639">
        <ele>1391</ele>
        <time>2018-05-10T12:51:26Z</time>
      </trkpt>
      <trkpt lat="44.59623" lon="6.18638">
        <ele>1393</ele>
        <time>2018-05-10T12:51:44Z</time>
      </trkpt>
      <trkpt lat="44.59642" lon="6.18609">
        <ele>1394</ele>
        <time>2018-05-10T12:52:04Z</time>
      </trkpt>
      <trkpt lat="44.59654" lon="6.18581">
        <ele>1395</ele>
        <time>2018-05-10T12:52:22Z</time>
      </trkpt>
      <trkpt lat="44.59672" lon="6.1854">
        <ele>1411</ele>
        <time>2018-05-10T12:52:41Z</time>
      </trkpt>
      <trkpt lat="44.59665" lon="6.18507">
        <ele>1401</ele>
        <time>2018-05-10T12:52:55Z</time>
      </trkpt>
      <trkpt lat="44.59648" lon="6.1848">
        <ele>1399</ele>
        <time>2018-05-10T12:53:09Z</time>
      </trkpt>
      <trkpt lat="44.59634" lon="6.18454">
        <ele>1397</ele>
        <time>2018-05-10T12:53:24Z</time>
      </trkpt>
      <trkpt lat="44.59639" lon="6.18429">
        <ele>1400</ele>
        <time>2018-05-10T12:53:37Z</time>
      </trkpt>
      <trkpt lat="44.59648" lon="6.18403">
        <ele>1403</ele>
        <time>2018-05-10T12:53:52Z</time>
      </trkpt>
      <trkpt lat="44.59652" lon="6.18374">
        <ele>1400</ele>
        <time>2018-05-10T12:54:12Z</time>
      </trkpt>
      <trkpt lat="44.59652" lon="6.18372">
        <ele>1400</ele>
        <time>2018-05-10T12:54:14Z</time>
      </trkpt>
      <trkpt lat="44.59653" lon="6.18361">
        <ele>1401</ele>
        <time>2018-05-10T12:54:24Z</time>
      </trkpt>
      <trkpt lat="44.59653" lon="6.18359">
        <ele>1401</ele>
        <time>2018-05-10T12:54:25Z</time>
      </trkpt>
      <trkpt lat="44.59654" lon="6.18357">
        <ele>1401</ele>
        <time>2018-05-10T12:54:26Z</time>
      </trkpt>
      <trkpt lat="44.59663" lon="6.18314">
        <ele>1401</ele>
        <time>2018-05-10T12:54:50Z</time>
      </trkpt>
      <trkpt lat="44.59675" lon="6.18271">
        <ele>1413</ele>
        <time>2018-05-10T12:55:15Z</time>
      </trkpt>
      <trkpt lat="44.5969" lon="6.18235">
        <ele>1408</ele>
        <time>2018-05-10T12:55:37Z</time>
      </trkpt>
      <trkpt lat="44.59692" lon="6.18232">
        <ele>1408</ele>
        <time>2018-05-10T12:55:40Z</time>
      </trkpt>
      <trkpt lat="44.59693" lon="6.18231">
        <ele>1408</ele>
        <time>2018-05-10T12:55:41Z</time>
      </trkpt>
      <trkpt lat="44.59694" lon="6.1823">
        <ele>1408</ele>
        <time>2018-05-10T12:55:42Z</time>
      </trkpt>
      <trkpt lat="44.59724" lon="6.1821">
        <ele>1410</ele>
        <time>2018-05-10T12:56:06Z</time>
      </trkpt>
      <trkpt lat="44.59742" lon="6.18189">
        <ele>1410</ele>
        <time>2018-05-10T12:56:24Z</time>
      </trkpt>
      <trkpt lat="44.59755" lon="6.18164">
        <ele>1411</ele>
        <time>2018-05-10T12:56:39Z</time>
      </trkpt>
      <trkpt lat="44.59772" lon="6.18137">
        <ele>1411</ele>
        <time>2018-05-10T12:56:56Z</time>
      </trkpt>
      <trkpt lat="44.59797" lon="6.181">
        <ele>1410</ele>
        <time>2018-05-10T12:57:20Z</time>
      </trkpt>
      <trkpt lat="44.59825" lon="6.18066">
        <ele>1407</ele>
        <time>2018-05-10T12:57:45Z</time>
      </trkpt>
      <trkpt lat="44.59846" lon="6.1804">
        <ele>1413</ele>
        <time>2018-05-10T12:58:05Z</time>
      </trkpt>
      <trkpt lat="44.59867" lon="6.18013">
        <ele>1413</ele>
        <time>2018-05-10T12:58:27Z</time>
      </trkpt>
      <trkpt lat="44.59889" lon="6.1799">
        <ele>1409</ele>
        <time>2018-05-10T12:58:46Z</time>
      </trkpt>
      <trkpt lat="44.59912" lon="6.17965">
        <ele>1408</ele>
        <time>2018-05-10T12:59:05Z</time>
      </trkpt>
      <trkpt lat="44.59927" lon="6.17933">
        <ele>1410</ele>
        <time>2018-05-10T12:59:27Z</time>
      </trkpt>
      <trkpt lat="44.59951" lon="6.17917">
        <ele>1411</ele>
        <time>2018-05-10T12:59:46Z</time>
      </trkpt>
      <trkpt lat="44.59975" lon="6.17905">
        <ele>1408</ele>
        <time>2018-05-10T13:00:06Z</time>
      </trkpt>
      <trkpt lat="44.59982" lon="6.179">
        <ele>1408</ele>
        <time>2018-05-10T13:00:14Z</time>
      </trkpt>
      <trkpt lat="44.59983" lon="6.179">
        <ele>1408</ele>
        <time>2018-05-10T13:00:15Z</time>
      </trkpt>
      <trkpt lat="44.59985" lon="6.17899">
        <ele>1408</ele>
        <time>2018-05-10T13:00:16Z</time>
      </trkpt>
      <trkpt lat="44.59986" lon="6.17898">
        <ele>1408</ele>
        <time>2018-05-10T13:00:17Z</time>
      </trkpt>
      <trkpt lat="44.59987" lon="6.17897">
        <ele>1408</ele>
        <time>2018-05-10T13:00:18Z</time>
      </trkpt>
      <trkpt lat="44.59989" lon="6.17897">
        <ele>1408</ele>
        <time>2018-05-10T13:00:19Z</time>
      </trkpt>
      <trkpt lat="44.6" lon="6.17864">
        <ele>1407</ele>
        <time>2018-05-10T13:00:36Z</time>
      </trkpt>
      <trkpt lat="44.60001" lon="6.17838">
        <ele>1408</ele>
        <time>2018-05-10T13:00:51Z</time>
      </trkpt>
      <trkpt lat="44.60001" lon="6.178">
        <ele>1407</ele>
        <time>2018-05-10T13:01:08Z</time>
      </trkpt>
      <trkpt lat="44.60018" lon="6.17756">
        <ele>1405</ele>
        <time>2018-05-10T13:01:35Z</time>
      </trkpt>
      <trkpt lat="44.60052" lon="6.17754">
        <ele>1407</ele>
        <time>2018-05-10T13:01:59Z</time>
      </trkpt>
      <trkpt lat="44.60083" lon="6.17758">
        <ele>1409</ele>
        <time>2018-05-10T13:02:22Z</time>
      </trkpt>
      <trkpt lat="44.60116" lon="6.17762">
        <ele>1413</ele>
        <time>2018-05-10T13:02:45Z</time>
      </trkpt>
      <trkpt lat="44.60147" lon="6.17762">
        <ele>1415</ele>
        <time>2018-05-10T13:03:07Z</time>
      </trkpt>
      <trkpt lat="44.60185" lon="6.17767">
        <ele>1418</ele>
        <time>2018-05-10T13:03:34Z</time>
      </trkpt>
      <trkpt lat="44.60222" lon="6.17779">
        <ele>1418</ele>
        <time>2018-05-10T13:04:00Z</time>
      </trkpt>
      <trkpt lat="44.60256" lon="6.17789">
        <ele>1422</ele>
        <time>2018-05-10T13:04:26Z</time>
      </trkpt>
      <trkpt lat="44.60294" lon="6.17784">
        <ele>1423</ele>
        <time>2018-05-10T13:04:53Z</time>
      </trkpt>
      <trkpt lat="44.60322" lon="6.17778">
        <ele>1424</ele>
        <time>2018-05-10T13:05:15Z</time>
      </trkpt>
      <trkpt lat="44.60342" lon="6.17765">
        <ele>1427</ele>
        <time>2018-05-10T13:05:31Z</time>
      </trkpt>
      <trkpt lat="44.6037" lon="6.17743">
        <ele>1426</ele>
        <time>2018-05-10T13:05:53Z</time>
      </trkpt>
      <trkpt lat="44.60395" lon="6.17713">
        <ele>1427</ele>
        <time>2018-05-10T13:06:18Z</time>
      </trkpt>
      <trkpt lat="44.60421" lon="6.17681">
        <ele>1431</ele>
        <time>2018-05-10T13:06:43Z</time>
      </trkpt>
      <trkpt lat="44.60448" lon="6.17648">
        <ele>1428</ele>
        <time>2018-05-10T13:07:10Z</time>
      </trkpt>
      <trkpt lat="44.60472" lon="6.17614">
        <ele>1428</ele>
        <time>2018-05-10T13:07:35Z</time>
      </trkpt>
      <trkpt lat="44.60495" lon="6.17569">
        <ele>1425</ele>
        <time>2018-05-10T13:08:03Z</time>
      </trkpt>
      <trkpt lat="44.60507" lon="6.17546">
        <ele>1426</ele>
        <time>2018-05-10T13:08:18Z</time>
      </trkpt>
      <trkpt lat="44.60529" lon="6.17505">
        <ele>1425</ele>
        <time>2018-05-10T13:08:45Z</time>
      </trkpt>
      <trkpt lat="44.60539" lon="6.17479">
        <ele>1424</ele>
        <time>2018-05-10T13:09:02Z</time>
      </trkpt>
      <trkpt lat="44.60557" lon="6.1745">
        <ele>1423</ele>
        <time>2018-05-10T13:09:22Z</time>
      </trkpt>
      <trkpt lat="44.60569" lon="6.1743">
        <ele>1424</ele>
        <time>2018-05-10T13:09:42Z</time>
      </trkpt>
      <trkpt lat="44.6057" lon="6.17428">
        <ele>1424</ele>
        <time>2018-05-10T13:09:43Z</time>
      </trkpt>
      <trkpt lat="44.60571" lon="6.17427">
        <ele>1424</ele>
        <time>2018-05-10T13:09:44Z</time>
      </trkpt>
      <trkpt lat="44.60572" lon="6.17425">
        <ele>1424</ele>
        <time>2018-05-10T13:09:45Z</time>
      </trkpt>
      <trkpt lat="44.60573" lon="6.17424">
        <ele>1424</ele>
        <time>2018-05-10T13:09:46Z</time>
      </trkpt>
      <trkpt lat="44.60598" lon="6.17388">
        <ele>1424</ele>
        <time>2018-05-10T13:10:15Z</time>
      </trkpt>
      <trkpt lat="44.60617" lon="6.17361">
        <ele>1424</ele>
        <time>2018-05-10T13:10:37Z</time>
      </trkpt>
      <trkpt lat="44.60644" lon="6.17324">
        <ele>1425</ele>
        <time>2018-05-10T13:11:05Z</time>
      </trkpt>
      <trkpt lat="44.60665" lon="6.173">
        <ele>1426</ele>
        <time>2018-05-10T13:11:25Z</time>
      </trkpt>
      <trkpt lat="44.60681" lon="6.17284">
        <ele>1432</ele>
        <time>2018-05-10T13:11:41Z</time>
      </trkpt>
      <trkpt lat="44.60705" lon="6.17267">
        <ele>1433</ele>
        <time>2018-05-10T13:11:59Z</time>
      </trkpt>
      <trkpt lat="44.60732" lon="6.17229">
        <ele>1435</ele>
        <time>2018-05-10T13:12:23Z</time>
      </trkpt>
      <trkpt lat="44.60762" lon="6.17191">
        <ele>1440</ele>
        <time>2018-05-10T13:12:49Z</time>
      </trkpt>
      <trkpt lat="44.60765" lon="6.17189">
        <ele>1440</ele>
        <time>2018-05-10T13:12:55Z</time>
      </trkpt>
      <trkpt lat="44.60765" lon="6.17188">
        <ele>1439</ele>
        <time>2018-05-10T13:12:56Z</time>
      </trkpt>
      <trkpt lat="44.60766" lon="6.17186">
        <ele>1439</ele>
        <time>2018-05-10T13:12:57Z</time>
      </trkpt>
      <trkpt lat="44.60768" lon="6.17185">
        <ele>1439</ele>
        <time>2018-05-10T13:12:58Z</time>
      </trkpt>
      <trkpt lat="44.60769" lon="6.17184">
        <ele>1439</ele>
        <time>2018-05-10T13:12:59Z</time>
      </trkpt>
      <trkpt lat="44.6077" lon="6.17183">
        <ele>1440</ele>
        <time>2018-05-10T13:13:00Z</time>
      </trkpt>
      <trkpt lat="44.60772" lon="6.17182">
        <ele>1440</ele>
        <time>2018-05-10T13:13:01Z</time>
      </trkpt>
      <trkpt lat="44.60773" lon="6.17181">
        <ele>1440</ele>
        <time>2018-05-10T13:13:02Z</time>
      </trkpt>
      <trkpt lat="44.60796" lon="6.1716">
        <ele>1437</ele>
        <time>2018-05-10T13:13:21Z</time>
      </trkpt>
      <trkpt lat="44.6082" lon="6.17118">
        <ele>1436</ele>
        <time>2018-05-10T13:13:48Z</time>
      </trkpt>
      <trkpt lat="44.60841" lon="6.1708">
        <ele>1435</ele>
        <time>2018-05-10T13:14:13Z</time>
      </trkpt>
      <trkpt lat="44.60873" lon="6.17057">
        <ele>1437</ele>
        <time>2018-05-10T13:14:40Z</time>
      </trkpt>
      <trkpt lat="44.60901" lon="6.17043">
        <ele>1438</ele>
        <time>2018-05-10T13:15:02Z</time>
      </trkpt>
      <trkpt lat="44.6093" lon="6.17052">
        <ele>1442</ele>
        <time>2018-05-10T13:15:25Z</time>
      </trkpt>
      <trkpt lat="44.60945" lon="6.17078">
        <ele>1443</ele>
        <time>2018-05-10T13:15:45Z</time>
      </trkpt>
      <trkpt lat="44.60965" lon="6.17115">
        <ele>1449</ele>
        <time>2018-05-10T13:16:04Z</time>
      </trkpt>
      <trkpt lat="44.60991" lon="6.17171">
        <ele>1453</ele>
        <time>2018-05-10T13:16:18Z</time>
      </trkpt>
      <trkpt lat="44.61002" lon="6.1721">
        <ele>1453</ele>
        <time>2018-05-10T13:16:26Z</time>
      </trkpt>
      <trkpt lat="44.6102" lon="6.17243">
        <ele>1454</ele>
        <time>2018-05-10T13:16:35Z</time>
      </trkpt>
      <trkpt lat="44.61037" lon="6.17246">
        <ele>1453</ele>
        <time>2018-05-10T13:16:47Z</time>
      </trkpt>
      <trkpt lat="44.61064" lon="6.17229">
        <ele>1452</ele>
        <time>2018-05-10T13:17:04Z</time>
      </trkpt>
      <trkpt lat="44.61091" lon="6.17213">
        <ele>1449</ele>
        <time>2018-05-10T13:17:21Z</time>
      </trkpt>
      <trkpt lat="44.61117" lon="6.17204">
        <ele>1448</ele>
        <time>2018-05-10T13:17:37Z</time>
      </trkpt>
      <trkpt lat="44.61144" lon="6.17186">
        <ele>1448</ele>
        <time>2018-05-10T13:17:54Z</time>
      </trkpt>
      <trkpt lat="44.61156" lon="6.17171">
        <ele>1448</ele>
        <time>2018-05-10T13:18:05Z</time>
      </trkpt>
      <trkpt lat="44.61157" lon="6.17171">
        <ele>1448</ele>
        <time>2018-05-10T13:18:06Z</time>
      </trkpt>
      <trkpt lat="44.61159" lon="6.17171">
        <ele>1448</ele>
        <time>2018-05-10T13:18:07Z</time>
      </trkpt>
      <trkpt lat="44.61161" lon="6.17171">
        <ele>1448</ele>
        <time>2018-05-10T13:18:08Z</time>
      </trkpt>
      <trkpt lat="44.61162" lon="6.17171">
        <ele>1448</ele>
        <time>2018-05-10T13:18:09Z</time>
      </trkpt>
      <trkpt lat="44.61164" lon="6.17171">
        <ele>1448</ele>
        <time>2018-05-10T13:18:10Z</time>
      </trkpt>
      <trkpt lat="44.61165" lon="6.17171">
        <ele>1448</ele>
        <time>2018-05-10T13:18:11Z</time>
      </trkpt>
      <trkpt lat="44.61202" lon="6.17155">
        <ele>1442</ele>
        <time>2018-05-10T13:18:34Z</time>
      </trkpt>
      <trkpt lat="44.61224" lon="6.17137">
        <ele>1440</ele>
        <time>2018-05-10T13:18:50Z</time>
      </trkpt>
      <trkpt lat="44.61253" lon="6.17121">
        <ele>1436</ele>
        <time>2018-05-10T13:19:09Z</time>
      </trkpt>
      <trkpt lat="44.61288" lon="6.1711">
        <ele>1436</ele>
        <time>2018-05-10T13:19:30Z</time>
      </trkpt>
      <trkpt lat="44.61312" lon="6.17102">
        <ele>1435</ele>
        <time>2018-05-10T13:19:46Z</time>
      </trkpt>
      <trkpt lat="44.61346" lon="6.1709">
        <ele>1433</ele>
        <time>2018-05-10T13:20:08Z</time>
      </trkpt>
      <trkpt lat="44.6138" lon="6.17079">
        <ele>1431</ele>
        <time>2018-05-10T13:20:29Z</time>
      </trkpt>
      <trkpt lat="44.61385" lon="6.17075">
        <ele>1430</ele>
        <time>2018-05-10T13:20:44Z</time>
      </trkpt>
      <trkpt lat="44.61387" lon="6.17074">
        <ele>1430</ele>
        <time>2018-05-10T13:20:45Z</time>
      </trkpt>
      <trkpt lat="44.61389" lon="6.17072">
        <ele>1430</ele>
        <time>2018-05-10T13:20:48Z</time>
      </trkpt>
      <trkpt lat="44.61409" lon="6.17055">
        <ele>1430</ele>
        <time>2018-05-10T13:21:02Z</time>
      </trkpt>
      <trkpt lat="44.61412" lon="6.17053">
        <ele>1429</ele>
        <time>2018-05-10T13:21:06Z</time>
      </trkpt>
      <trkpt lat="44.61434" lon="6.17044">
        <ele>1426</ele>
        <time>2018-05-10T13:21:24Z</time>
      </trkpt>
      <trkpt lat="44.61453" lon="6.17035">
        <ele>1425</ele>
        <time>2018-05-10T13:21:39Z</time>
      </trkpt>
      <trkpt lat="44.61476" lon="6.17025">
        <ele>1423</ele>
        <time>2018-05-10T13:21:57Z</time>
      </trkpt>
      <trkpt lat="44.61503" lon="6.17037">
        <ele>1419</ele>
        <time>2018-05-10T13:22:19Z</time>
      </trkpt>
      <trkpt lat="44.61527" lon="6.1704">
        <ele>1418</ele>
        <time>2018-05-10T13:22:37Z</time>
      </trkpt>
      <trkpt lat="44.61547" lon="6.17048">
        <ele>1417</ele>
        <time>2018-05-10T13:22:53Z</time>
      </trkpt>
      <trkpt lat="44.6157" lon="6.17053">
        <ele>1416</ele>
        <time>2018-05-10T13:23:09Z</time>
      </trkpt>
      <trkpt lat="44.61595" lon="6.17061">
        <ele>1411</ele>
        <time>2018-05-10T13:23:27Z</time>
      </trkpt>
      <trkpt lat="44.61609" lon="6.17064">
        <ele>1411</ele>
        <time>2018-05-10T13:23:38Z</time>
      </trkpt>
      <trkpt lat="44.6161" lon="6.17063">
        <ele>1410</ele>
        <time>2018-05-10T13:23:39Z</time>
      </trkpt>
      <trkpt lat="44.61646" lon="6.17053">
        <ele>1409</ele>
        <time>2018-05-10T13:23:59Z</time>
      </trkpt>
      <trkpt lat="44.61664" lon="6.17047">
        <ele>1408</ele>
        <time>2018-05-10T13:24:08Z</time>
      </trkpt>
      <trkpt lat="44.6169" lon="6.17033">
        <ele>1401</ele>
        <time>2018-05-10T13:24:26Z</time>
      </trkpt>
      <trkpt lat="44.61704" lon="6.17021">
        <ele>1400</ele>
        <time>2018-05-10T13:24:38Z</time>
      </trkpt>
      <trkpt lat="44.61721" lon="6.17006">
        <ele>1398</ele>
        <time>2018-05-10T13:24:51Z</time>
      </trkpt>
      <trkpt lat="44.61743" lon="6.1699">
        <ele>1398</ele>
        <time>2018-05-10T13:25:09Z</time>
      </trkpt>
      <trkpt lat="44.61762" lon="6.16981">
        <ele>1392</ele>
        <time>2018-05-10T13:25:23Z</time>
      </trkpt>
      <trkpt lat="44.61787" lon="6.16967">
        <ele>1390</ele>
        <time>2018-05-10T13:25:40Z</time>
      </trkpt>
      <trkpt lat="44.6181" lon="6.16957">
        <ele>1388</ele>
        <time>2018-05-10T13:25:56Z</time>
      </trkpt>
      <trkpt lat="44.61836" lon="6.16947">
        <ele>1379</ele>
        <time>2018-05-10T13:26:14Z</time>
      </trkpt>
      <trkpt lat="44.61863" lon="6.16928">
        <ele>1379</ele>
        <time>2018-05-10T13:26:32Z</time>
      </trkpt>
      <trkpt lat="44.61881" lon="6.16895">
        <ele>1381</ele>
        <time>2018-05-10T13:26:50Z</time>
      </trkpt>
      <trkpt lat="44.61908" lon="6.16856">
        <ele>1382</ele>
        <time>2018-05-10T13:27:14Z</time>
      </trkpt>
      <trkpt lat="44.61921" lon="6.1682">
        <ele>1383</ele>
        <time>2018-05-10T13:27:32Z</time>
      </trkpt>
      <trkpt lat="44.61932" lon="6.16791">
        <ele>1383</ele>
        <time>2018-05-10T13:27:48Z</time>
      </trkpt>
      <trkpt lat="44.61942" lon="6.16752">
        <ele>1384</ele>
        <time>2018-05-10T13:28:08Z</time>
      </trkpt>
      <trkpt lat="44.6196" lon="6.1671">
        <ele>1386</ele>
        <time>2018-05-10T13:28:30Z</time>
      </trkpt>
      <trkpt lat="44.61981" lon="6.16668">
        <ele>1387</ele>
        <time>2018-05-10T13:28:55Z</time>
      </trkpt>
      <trkpt lat="44.62003" lon="6.16632">
        <ele>1382</ele>
        <time>2018-05-10T13:29:19Z</time>
      </trkpt>
      <trkpt lat="44.62022" lon="6.1659">
        <ele>1380</ele>
        <time>2018-05-10T13:29:41Z</time>
      </trkpt>
      <trkpt lat="44.62032" lon="6.16554">
        <ele>1374</ele>
        <time>2018-05-10T13:30:02Z</time>
      </trkpt>
      <trkpt lat="44.62039" lon="6.16521">
        <ele>1372</ele>
        <time>2018-05-10T13:30:19Z</time>
      </trkpt>
      <trkpt lat="44.62047" lon="6.16479">
        <ele>1365</ele>
        <time>2018-05-10T13:30:41Z</time>
      </trkpt>
      <trkpt lat="44.62058" lon="6.16444">
        <ele>1363</ele>
        <time>2018-05-10T13:30:58Z</time>
      </trkpt>
      <trkpt lat="44.62075" lon="6.16413">
        <ele>1359</ele>
        <time>2018-05-10T13:31:17Z</time>
      </trkpt>
      <trkpt lat="44.621" lon="6.16395">
        <ele>1357</ele>
        <time>2018-05-10T13:31:36Z</time>
      </trkpt>
      <trkpt lat="44.62126" lon="6.16384">
        <ele>1356</ele>
        <time>2018-05-10T13:31:54Z</time>
      </trkpt>
      <trkpt lat="44.62157" lon="6.1638">
        <ele>1355</ele>
        <time>2018-05-10T13:32:14Z</time>
      </trkpt>
      <trkpt lat="44.62196" lon="6.1638">
        <ele>1351</ele>
        <time>2018-05-10T13:32:39Z</time>
      </trkpt>
      <trkpt lat="44.6222" lon="6.16373">
        <ele>1350</ele>
        <time>2018-05-10T13:32:56Z</time>
      </trkpt>
      <trkpt lat="44.62243" lon="6.16358">
        <ele>1350</ele>
        <time>2018-05-10T13:33:14Z</time>
      </trkpt>
      <trkpt lat="44.62245" lon="6.16358">
        <ele>1349</ele>
        <time>2018-05-10T13:33:15Z</time>
      </trkpt>
      <trkpt lat="44.62246" lon="6.16358">
        <ele>1349</ele>
        <time>2018-05-10T13:33:16Z</time>
      </trkpt>
      <trkpt lat="44.62279" lon="6.16358">
        <ele>1344</ele>
        <time>2018-05-10T13:33:38Z</time>
      </trkpt>
      <trkpt lat="44.62302" lon="6.16377">
        <ele>1342</ele>
        <time>2018-05-10T13:33:56Z</time>
      </trkpt>
      <trkpt lat="44.62308" lon="6.16391">
        <ele>1342</ele>
        <time>2018-05-10T13:34:11Z</time>
      </trkpt>
      <trkpt lat="44.62306" lon="6.16395">
        <ele>1342</ele>
        <time>2018-05-10T13:34:28Z</time>
      </trkpt>
      <trkpt lat="44.62304" lon="6.16395">
        <ele>1342</ele>
        <time>2018-05-10T13:34:52Z</time>
      </trkpt>
      <trkpt lat="44.62306" lon="6.16396">
        <ele>1342</ele>
        <time>2018-05-10T13:35:15Z</time>
      </trkpt>
      <trkpt lat="44.62306" lon="6.16393">
        <ele>1342</ele>
        <time>2018-05-10T13:35:20Z</time>
      </trkpt>
      <trkpt lat="44.623" lon="6.16397">
        <ele>1342</ele>
        <time>2018-05-10T13:35:37Z</time>
      </trkpt>
      <trkpt lat="44.623" lon="6.16398">
        <ele>1342</ele>
        <time>2018-05-10T13:35:55Z</time>
      </trkpt>
      <trkpt lat="44.62301" lon="6.16397">
        <ele>1342</ele>
        <time>2018-05-10T13:36:19Z</time>
      </trkpt>
      <trkpt lat="44.62302" lon="6.16397">
        <ele>1342</ele>
        <time>2018-05-10T13:36:53Z</time>
      </trkpt>
      <trkpt lat="44.62305" lon="6.16393">
        <ele>1342</ele>
        <time>2018-05-10T13:37:21Z</time>
      </trkpt>
      <trkpt lat="44.62309" lon="6.16396">
        <ele>1342</ele>
        <time>2018-05-10T13:37:42Z</time>
      </trkpt>
      <trkpt lat="44.62313" lon="6.164">
        <ele>1342</ele>
        <time>2018-05-10T13:37:57Z</time>
      </trkpt>
      <trkpt lat="44.62315" lon="6.16401">
        <ele>1342</ele>
        <time>2018-05-10T13:37:58Z</time>
      </trkpt>
      <trkpt lat="44.62316" lon="6.16402">
        <ele>1342</ele>
        <time>2018-05-10T13:37:59Z</time>
      </trkpt>
      <trkpt lat="44.62318" lon="6.16404">
        <ele>1341</ele>
        <time>2018-05-10T13:38:00Z</time>
      </trkpt>
      <trkpt lat="44.62319" lon="6.16405">
        <ele>1341</ele>
        <time>2018-05-10T13:38:01Z</time>
      </trkpt>
      <trkpt lat="44.6232" lon="6.16406">
        <ele>1341</ele>
        <time>2018-05-10T13:38:02Z</time>
      </trkpt>
      <trkpt lat="44.62321" lon="6.16408">
        <ele>1341</ele>
        <time>2018-05-10T13:38:03Z</time>
      </trkpt>
      <trkpt lat="44.62322" lon="6.1641">
        <ele>1341</ele>
        <time>2018-05-10T13:38:04Z</time>
      </trkpt>
      <trkpt lat="44.62323" lon="6.16412">
        <ele>1341</ele>
        <time>2018-05-10T13:38:05Z</time>
      </trkpt>
      <trkpt lat="44.62335" lon="6.16452">
        <ele>1338</ele>
        <time>2018-05-10T13:38:24Z</time>
      </trkpt>
      <trkpt lat="44.62342" lon="6.16481">
        <ele>1339</ele>
        <time>2018-05-10T13:38:36Z</time>
      </trkpt>
      <trkpt lat="44.62352" lon="6.1653">
        <ele>1335</ele>
        <time>2018-05-10T13:38:51Z</time>
      </trkpt>
      <trkpt lat="44.62342" lon="6.16569">
        <ele>1337</ele>
        <time>2018-05-10T13:39:03Z</time>
      </trkpt>
      <trkpt lat="44.62333" lon="6.1662">
        <ele>1345</ele>
        <time>2018-05-10T13:39:16Z</time>
      </trkpt>
      <trkpt lat="44.62336" lon="6.16676">
        <ele>1338</ele>
        <time>2018-05-10T13:39:31Z</time>
      </trkpt>
      <trkpt lat="44.62346" lon="6.16714">
        <ele>1333</ele>
        <time>2018-05-10T13:39:45Z</time>
      </trkpt>
      <trkpt lat="44.62352" lon="6.16745">
        <ele>1335</ele>
        <time>2018-05-10T13:40:01Z</time>
      </trkpt>
      <trkpt lat="44.62359" lon="6.1678">
        <ele>1329</ele>
        <time>2018-05-10T13:40:14Z</time>
      </trkpt>
      <trkpt lat="44.62367" lon="6.16808">
        <ele>1326</ele>
        <time>2018-05-10T13:40:27Z</time>
      </trkpt>
      <trkpt lat="44.62374" lon="6.16825">
        <ele>1325</ele>
        <time>2018-05-10T13:40:38Z</time>
      </trkpt>
      <trkpt lat="44.6239" lon="6.16848">
        <ele>1317</ele>
        <time>2018-05-10T13:40:50Z</time>
      </trkpt>
      <trkpt lat="44.62391" lon="6.16849">
        <ele>1317</ele>
        <time>2018-05-10T13:41:05Z</time>
      </trkpt>
      <trkpt lat="44.6239" lon="6.16849">
        <ele>1317</ele>
        <time>2018-05-10T13:41:09Z</time>
      </trkpt>
      <trkpt lat="44.62386" lon="6.16859">
        <ele>1318</ele>
        <time>2018-05-10T13:41:14Z</time>
      </trkpt>
      <trkpt lat="44.6237" lon="6.16903">
        <ele>1317</ele>
        <time>2018-05-10T13:41:32Z</time>
      </trkpt>
      <trkpt lat="44.62362" lon="6.16931">
        <ele>1310</ele>
        <time>2018-05-10T13:41:49Z</time>
      </trkpt>
      <trkpt lat="44.62354" lon="6.1695">
        <ele>1308</ele>
        <time>2018-05-10T13:42:01Z</time>
      </trkpt>
      <trkpt lat="44.62346" lon="6.16968">
        <ele>1307</ele>
        <time>2018-05-10T13:42:13Z</time>
      </trkpt>
      <trkpt lat="44.62331" lon="6.17001">
        <ele>1309</ele>
        <time>2018-05-10T13:42:32Z</time>
      </trkpt>
      <trkpt lat="44.62316" lon="6.17023">
        <ele>1310</ele>
        <time>2018-05-10T13:42:49Z</time>
      </trkpt>
      <trkpt lat="44.62313" lon="6.17027">
        <ele>1310</ele>
        <time>2018-05-10T13:42:52Z</time>
      </trkpt>
      <trkpt lat="44.62304" lon="6.17046">
        <ele>1310</ele>
        <time>2018-05-10T13:43:07Z</time>
      </trkpt>
      <trkpt lat="44.62303" lon="6.17053">
        <ele>1309</ele>
        <time>2018-05-10T13:43:11Z</time>
      </trkpt>
      <trkpt lat="44.62293" lon="6.17077">
        <ele>1310</ele>
        <time>2018-05-10T13:43:29Z</time>
      </trkpt>
      <trkpt lat="44.62285" lon="6.17105">
        <ele>1299</ele>
        <time>2018-05-10T13:43:47Z</time>
      </trkpt>
      <trkpt lat="44.62276" lon="6.17135">
        <ele>1297</ele>
        <time>2018-05-10T13:44:07Z</time>
      </trkpt>
      <trkpt lat="44.62255" lon="6.17148">
        <ele>1298</ele>
        <time>2018-05-10T13:44:24Z</time>
      </trkpt>
      <trkpt lat="44.62252" lon="6.1715">
        <ele>1298</ele>
        <time>2018-05-10T13:44:26Z</time>
      </trkpt>
      <trkpt lat="44.62239" lon="6.17168">
        <ele>1298</ele>
        <time>2018-05-10T13:44:42Z</time>
      </trkpt>
      <trkpt lat="44.62228" lon="6.17183">
        <ele>1297</ele>
        <time>2018-05-10T13:44:57Z</time>
      </trkpt>
      <trkpt lat="44.62207" lon="6.17201">
        <ele>1297</ele>
        <time>2018-05-10T13:45:14Z</time>
      </trkpt>
      <trkpt lat="44.62203" lon="6.17207">
        <ele>1296</ele>
        <time>2018-05-10T13:45:20Z</time>
      </trkpt>
      <trkpt lat="44.62193" lon="6.17225">
        <ele>1295</ele>
        <time>2018-05-10T13:45:34Z</time>
      </trkpt>
      <trkpt lat="44.62192" lon="6.17227">
        <ele>1295</ele>
        <time>2018-05-10T13:45:35Z</time>
      </trkpt>
      <trkpt lat="44.62179" lon="6.1724">
        <ele>1294</ele>
        <time>2018-05-10T13:45:47Z</time>
      </trkpt>
      <trkpt lat="44.62175" lon="6.17244">
        <ele>1293</ele>
        <time>2018-05-10T13:45:50Z</time>
      </trkpt>
      <trkpt lat="44.62168" lon="6.17261">
        <ele>1287</ele>
        <time>2018-05-10T13:46:04Z</time>
      </trkpt>
      <trkpt lat="44.62159" lon="6.17277">
        <ele>1295</ele>
        <time>2018-05-10T13:46:16Z</time>
      </trkpt>
      <trkpt lat="44.62149" lon="6.173">
        <ele>1294</ele>
        <time>2018-05-10T13:46:33Z</time>
      </trkpt>
      <trkpt lat="44.62148" lon="6.1731">
        <ele>1293</ele>
        <time>2018-05-10T13:46:38Z</time>
      </trkpt>
      <trkpt lat="44.62144" lon="6.17322">
        <ele>1292</ele>
        <time>2018-05-10T13:46:45Z</time>
      </trkpt>
      <trkpt lat="44.62141" lon="6.17328">
        <ele>1293</ele>
        <time>2018-05-10T13:46:48Z</time>
      </trkpt>
      <trkpt lat="44.62135" lon="6.17363">
        <ele>1288</ele>
        <time>2018-05-10T13:47:05Z</time>
      </trkpt>
      <trkpt lat="44.62128" lon="6.17382">
        <ele>1289</ele>
        <time>2018-05-10T13:47:16Z</time>
      </trkpt>
      <trkpt lat="44.62125" lon="6.17393">
        <ele>1289</ele>
        <time>2018-05-10T13:47:24Z</time>
      </trkpt>
      <trkpt lat="44.62125" lon="6.17399">
        <ele>1288</ele>
        <time>2018-05-10T13:47:27Z</time>
      </trkpt>
      <trkpt lat="44.62126" lon="6.17418">
        <ele>1283</ele>
        <time>2018-05-10T13:47:40Z</time>
      </trkpt>
      <trkpt lat="44.62126" lon="6.17422">
        <ele>1283</ele>
        <time>2018-05-10T13:47:42Z</time>
      </trkpt>
      <trkpt lat="44.62127" lon="6.17438">
        <ele>1283</ele>
        <time>2018-05-10T13:47:50Z</time>
      </trkpt>
      <trkpt lat="44.62129" lon="6.17473">
        <ele>1282</ele>
        <time>2018-05-10T13:48:06Z</time>
      </trkpt>
      <trkpt lat="44.62145" lon="6.17498">
        <ele>1278</ele>
        <time>2018-05-10T13:48:22Z</time>
      </trkpt>
      <trkpt lat="44.62155" lon="6.17516">
        <ele>1275</ele>
        <time>2018-05-10T13:48:34Z</time>
      </trkpt>
      <trkpt lat="44.62165" lon="6.17533">
        <ele>1276</ele>
        <time>2018-05-10T13:48:46Z</time>
      </trkpt>
      <trkpt lat="44.62168" lon="6.17559">
        <ele>1269</ele>
        <time>2018-05-10T13:49:00Z</time>
      </trkpt>
      <trkpt lat="44.62158" lon="6.17587">
        <ele>1273</ele>
        <time>2018-05-10T13:49:13Z</time>
      </trkpt>
      <trkpt lat="44.62124" lon="6.17646">
        <ele>1278</ele>
        <time>2018-05-10T13:49:28Z</time>
      </trkpt>
      <trkpt lat="44.6212" lon="6.17649">
        <ele>1279</ele>
        <time>2018-05-10T13:49:29Z</time>
      </trkpt>
      <trkpt lat="44.62117" lon="6.17652">
        <ele>1279</ele>
        <time>2018-05-10T13:49:30Z</time>
      </trkpt>
      <trkpt lat="44.62113" lon="6.17655">
        <ele>1279</ele>
        <time>2018-05-10T13:49:31Z</time>
      </trkpt>
      <trkpt lat="44.62092" lon="6.17688">
        <ele>1279</ele>
        <time>2018-05-10T13:49:43Z</time>
      </trkpt>
      <trkpt lat="44.62102" lon="6.17707">
        <ele>1278</ele>
        <time>2018-05-10T13:49:56Z</time>
      </trkpt>
      <trkpt lat="44.62118" lon="6.17731">
        <ele>1277</ele>
        <time>2018-05-10T13:50:14Z</time>
      </trkpt>
      <trkpt lat="44.62132" lon="6.17757">
        <ele>1275</ele>
        <time>2018-05-10T13:50:33Z</time>
      </trkpt>
      <trkpt lat="44.62153" lon="6.17771">
        <ele>1274</ele>
        <time>2018-05-10T13:50:51Z</time>
      </trkpt>
      <trkpt lat="44.62182" lon="6.17787">
        <ele>1274</ele>
        <time>2018-05-10T13:51:12Z</time>
      </trkpt>
      <trkpt lat="44.62205" lon="6.17792">
        <ele>1274</ele>
        <time>2018-05-10T13:51:27Z</time>
      </trkpt>
      <trkpt lat="44.62206" lon="6.17791">
        <ele>1274</ele>
        <time>2018-05-10T13:51:28Z</time>
      </trkpt>
      <trkpt lat="44.62208" lon="6.1779">
        <ele>1274</ele>
        <time>2018-05-10T13:51:29Z</time>
      </trkpt>
      <trkpt lat="44.62209" lon="6.1779">
        <ele>1274</ele>
        <time>2018-05-10T13:51:30Z</time>
      </trkpt>
      <trkpt lat="44.62211" lon="6.1779">
        <ele>1274</ele>
        <time>2018-05-10T13:51:31Z</time>
      </trkpt>
      <trkpt lat="44.62213" lon="6.1779">
        <ele>1274</ele>
        <time>2018-05-10T13:51:32Z</time>
      </trkpt>
      <trkpt lat="44.6225" lon="6.17795">
        <ele>1274</ele>
        <time>2018-05-10T13:51:56Z</time>
      </trkpt>
      <trkpt lat="44.62288" lon="6.17805">
        <ele>1278</ele>
        <time>2018-05-10T13:52:22Z</time>
      </trkpt>
      <trkpt lat="44.62315" lon="6.17817">
        <ele>1279</ele>
        <time>2018-05-10T13:52:41Z</time>
      </trkpt>
      <trkpt lat="44.62344" lon="6.17825">
        <ele>1284</ele>
        <time>2018-05-10T13:53:03Z</time>
      </trkpt>
      <trkpt lat="44.62382" lon="6.17819">
        <ele>1287</ele>
        <time>2018-05-10T13:53:30Z</time>
      </trkpt>
      <trkpt lat="44.62412" lon="6.17804">
        <ele>1288</ele>
        <time>2018-05-10T13:53:53Z</time>
      </trkpt>
      <trkpt lat="44.62441" lon="6.17804">
        <ele>1294</ele>
        <time>2018-05-10T13:54:16Z</time>
      </trkpt>
      <trkpt lat="44.6246" lon="6.1782">
        <ele>1295</ele>
        <time>2018-05-10T13:54:35Z</time>
      </trkpt>
      <trkpt lat="44.62493" lon="6.1784">
        <ele>1296</ele>
        <time>2018-05-10T13:55:02Z</time>
      </trkpt>
      <trkpt lat="44.62532" lon="6.17857">
        <ele>1298</ele>
        <time>2018-05-10T13:55:31Z</time>
      </trkpt>
      <trkpt lat="44.6257" lon="6.17854">
        <ele>1300</ele>
        <time>2018-05-10T13:55:59Z</time>
      </trkpt>
      <trkpt lat="44.62591" lon="6.1785">
        <ele>1302</ele>
        <time>2018-05-10T13:56:15Z</time>
      </trkpt>
      <trkpt lat="44.62619" lon="6.17843">
        <ele>1303</ele>
        <time>2018-05-10T13:56:36Z</time>
      </trkpt>
      <trkpt lat="44.62645" lon="6.17845">
        <ele>1304</ele>
        <time>2018-05-10T13:56:56Z</time>
      </trkpt>
      <trkpt lat="44.62669" lon="6.17848">
        <ele>1308</ele>
        <time>2018-05-10T13:57:14Z</time>
      </trkpt>
      <trkpt lat="44.62701" lon="6.17845">
        <ele>1309</ele>
        <time>2018-05-10T13:57:39Z</time>
      </trkpt>
      <trkpt lat="44.62708" lon="6.17815">
        <ele>1313</ele>
        <time>2018-05-10T13:57:57Z</time>
      </trkpt>
      <trkpt lat="44.62718" lon="6.17783">
        <ele>1314</ele>
        <time>2018-05-10T13:58:16Z</time>
      </trkpt>
      <trkpt lat="44.62722" lon="6.17763">
        <ele>1315</ele>
        <time>2018-05-10T13:58:26Z</time>
      </trkpt>
      <trkpt lat="44.62722" lon="6.17761">
        <ele>1315</ele>
        <time>2018-05-10T13:58:27Z</time>
      </trkpt>
      <trkpt lat="44.62725" lon="6.1775">
        <ele>1318</ele>
        <time>2018-05-10T13:58:35Z</time>
      </trkpt>
      <trkpt lat="44.62737" lon="6.17724">
        <ele>1319</ele>
        <time>2018-05-10T13:58:52Z</time>
      </trkpt>
      <trkpt lat="44.62744" lon="6.1772">
        <ele>1319</ele>
        <time>2018-05-10T13:58:59Z</time>
      </trkpt>
      <trkpt lat="44.62757" lon="6.17717">
        <ele>1324</ele>
        <time>2018-05-10T13:59:15Z</time>
      </trkpt>
      <trkpt lat="44.62757" lon="6.17716">
        <ele>1324</ele>
        <time>2018-05-10T13:59:39Z</time>
      </trkpt>
      <trkpt lat="44.62755" lon="6.17718">
        <ele>1324</ele>
        <time>2018-05-10T13:59:51Z</time>
      </trkpt>
      <trkpt lat="44.62756" lon="6.17718">
        <ele>1324</ele>
        <time>2018-05-10T14:00:21Z</time>
      </trkpt>
      <trkpt lat="44.6276" lon="6.17712">
        <ele>1324</ele>
        <time>2018-05-10T14:00:41Z</time>
      </trkpt>
      <trkpt lat="44.6276" lon="6.1771">
        <ele>1324</ele>
        <time>2018-05-10T14:00:42Z</time>
      </trkpt>
      <trkpt lat="44.62762" lon="6.17709">
        <ele>1324</ele>
        <time>2018-05-10T14:00:43Z</time>
      </trkpt>
      <trkpt lat="44.62765" lon="6.17708">
        <ele>1325</ele>
        <time>2018-05-10T14:00:47Z</time>
      </trkpt>
      <trkpt lat="44.62766" lon="6.17709">
        <ele>1325</ele>
        <time>2018-05-10T14:00:48Z</time>
      </trkpt>
      <trkpt lat="44.62768" lon="6.17709">
        <ele>1325</ele>
        <time>2018-05-10T14:00:49Z</time>
      </trkpt>
      <trkpt lat="44.62769" lon="6.17708">
        <ele>1325</ele>
        <time>2018-05-10T14:00:50Z</time>
      </trkpt>
      <trkpt lat="44.6277" lon="6.17707">
        <ele>1325</ele>
        <time>2018-05-10T14:00:51Z</time>
      </trkpt>
      <trkpt lat="44.62786" lon="6.17702">
        <ele>1326</ele>
        <time>2018-05-10T14:01:06Z</time>
      </trkpt>
      <trkpt lat="44.62804" lon="6.17696">
        <ele>1327</ele>
        <time>2018-05-10T14:01:21Z</time>
      </trkpt>
      <trkpt lat="44.62805" lon="6.17695">
        <ele>1327</ele>
        <time>2018-05-10T14:01:22Z</time>
      </trkpt>
      <trkpt lat="44.6281" lon="6.17688">
        <ele>1327</ele>
        <time>2018-05-10T14:01:28Z</time>
      </trkpt>
      <trkpt lat="44.62815" lon="6.1768">
        <ele>1328</ele>
        <time>2018-05-10T14:01:42Z</time>
      </trkpt>
      <trkpt lat="44.62818" lon="6.17676">
        <ele>1328</ele>
        <time>2018-05-10T14:01:45Z</time>
      </trkpt>
      <trkpt lat="44.6284" lon="6.17656">
        <ele>1328</ele>
        <time>2018-05-10T14:02:07Z</time>
      </trkpt>
      <trkpt lat="44.62846" lon="6.17654">
        <ele>1328</ele>
        <time>2018-05-10T14:02:14Z</time>
      </trkpt>
      <trkpt lat="44.62847" lon="6.17653">
        <ele>1328</ele>
        <time>2018-05-10T14:02:15Z</time>
      </trkpt>
      <trkpt lat="44.6285" lon="6.17652">
        <ele>1328</ele>
        <time>2018-05-10T14:02:17Z</time>
      </trkpt>
      <trkpt lat="44.62879" lon="6.17652">
        <ele>1326</ele>
        <time>2018-05-10T14:02:39Z</time>
      </trkpt>
      <trkpt lat="44.62903" lon="6.17673">
        <ele>1329</ele>
        <time>2018-05-10T14:03:00Z</time>
      </trkpt>
      <trkpt lat="44.62917" lon="6.17701">
        <ele>1329</ele>
        <time>2018-05-10T14:03:16Z</time>
      </trkpt>
      <trkpt lat="44.62935" lon="6.17748">
        <ele>1331</ele>
        <time>2018-05-10T14:03:43Z</time>
      </trkpt>
      <trkpt lat="44.6295" lon="6.17786">
        <ele>1334</ele>
        <time>2018-05-10T14:04:05Z</time>
      </trkpt>
      <trkpt lat="44.62974" lon="6.17827">
        <ele>1335</ele>
        <time>2018-05-10T14:04:30Z</time>
      </trkpt>
      <trkpt lat="44.63013" lon="6.17844">
        <ele>1335</ele>
        <time>2018-05-10T14:04:56Z</time>
      </trkpt>
      <trkpt lat="44.63048" lon="6.1785">
        <ele>1335</ele>
        <time>2018-05-10T14:05:14Z</time>
      </trkpt>
      <trkpt lat="44.63088" lon="6.17864">
        <ele>1334</ele>
        <time>2018-05-10T14:05:33Z</time>
      </trkpt>
      <trkpt lat="44.63133" lon="6.17875">
        <ele>1334</ele>
        <time>2018-05-10T14:05:53Z</time>
      </trkpt>
      <trkpt lat="44.63163" lon="6.1789">
        <ele>1334</ele>
        <time>2018-05-10T14:06:08Z</time>
      </trkpt>
      <trkpt lat="44.63194" lon="6.17924">
        <ele>1336</ele>
        <time>2018-05-10T14:06:24Z</time>
      </trkpt>
      <trkpt lat="44.63221" lon="6.17965">
        <ele>1335</ele>
        <time>2018-05-10T14:06:40Z</time>
      </trkpt>
      <trkpt lat="44.63252" lon="6.17964">
        <ele>1334</ele>
        <time>2018-05-10T14:06:54Z</time>
      </trkpt>
      <trkpt lat="44.63294" lon="6.17942">
        <ele>1335</ele>
        <time>2018-05-10T14:07:11Z</time>
      </trkpt>
      <trkpt lat="44.63345" lon="6.17911">
        <ele>1336</ele>
        <time>2018-05-10T14:07:25Z</time>
      </trkpt>
      <trkpt lat="44.63363" lon="6.17907">
        <ele>1335</ele>
        <time>2018-05-10T14:07:29Z</time>
      </trkpt>
      <trkpt lat="44.63367" lon="6.17908">
        <ele>1334</ele>
        <time>2018-05-10T14:07:30Z</time>
      </trkpt>
      <trkpt lat="44.63379" lon="6.17912">
        <ele>1334</ele>
        <time>2018-05-10T14:07:36Z</time>
      </trkpt>
      <trkpt lat="44.63404" lon="6.17942">
        <ele>1336</ele>
        <time>2018-05-10T14:07:56Z</time>
      </trkpt>
      <trkpt lat="44.63425" lon="6.1798">
        <ele>1333</ele>
        <time>2018-05-10T14:08:16Z</time>
      </trkpt>
      <trkpt lat="44.63444" lon="6.18017">
        <ele>1334</ele>
        <time>2018-05-10T14:08:36Z</time>
      </trkpt>
      <trkpt lat="44.63459" lon="6.18057">
        <ele>1334</ele>
        <time>2018-05-10T14:08:55Z</time>
      </trkpt>
      <trkpt lat="44.63477" lon="6.18092">
        <ele>1334</ele>
        <time>2018-05-10T14:09:14Z</time>
      </trkpt>
      <trkpt lat="44.63505" lon="6.18143">
        <ele>1331</ele>
        <time>2018-05-10T14:09:45Z</time>
      </trkpt>
      <trkpt lat="44.63531" lon="6.18181">
        <ele>1332</ele>
        <time>2018-05-10T14:10:09Z</time>
      </trkpt>
      <trkpt lat="44.6356" lon="6.18216">
        <ele>1332</ele>
        <time>2018-05-10T14:10:32Z</time>
      </trkpt>
      <trkpt lat="44.63589" lon="6.18261">
        <ele>1333</ele>
        <time>2018-05-10T14:10:54Z</time>
      </trkpt>
      <trkpt lat="44.63621" lon="6.18285">
        <ele>1333</ele>
        <time>2018-05-10T14:11:13Z</time>
      </trkpt>
      <trkpt lat="44.63646" lon="6.18294">
        <ele>1333</ele>
        <time>2018-05-10T14:11:31Z</time>
      </trkpt>
      <trkpt lat="44.63663" lon="6.18293">
        <ele>1333</ele>
        <time>2018-05-10T14:11:44Z</time>
      </trkpt>
      <trkpt lat="44.63678" lon="6.18275">
        <ele>1322</ele>
        <time>2018-05-10T14:11:58Z</time>
      </trkpt>
      <trkpt lat="44.63676" lon="6.18248">
        <ele>1325</ele>
        <time>2018-05-10T14:12:11Z</time>
      </trkpt>
      <trkpt lat="44.63676" lon="6.18246">
        <ele>1325</ele>
        <time>2018-05-10T14:12:12Z</time>
      </trkpt>
      <trkpt lat="44.63675" lon="6.18244">
        <ele>1324</ele>
        <time>2018-05-10T14:12:13Z</time>
      </trkpt>
      <trkpt lat="44.6367" lon="6.18211">
        <ele>1319</ele>
        <time>2018-05-10T14:12:27Z</time>
      </trkpt>
      <trkpt lat="44.63668" lon="6.18183">
        <ele>1321</ele>
        <time>2018-05-10T14:12:39Z</time>
      </trkpt>
      <trkpt lat="44.63668" lon="6.18181">
        <ele>1321</ele>
        <time>2018-05-10T14:12:40Z</time>
      </trkpt>
      <trkpt lat="44.63671" lon="6.18146">
        <ele>1319</ele>
        <time>2018-05-10T14:12:55Z</time>
      </trkpt>
      <trkpt lat="44.6368" lon="6.18117">
        <ele>1315</ele>
        <time>2018-05-10T14:13:09Z</time>
      </trkpt>
      <trkpt lat="44.63684" lon="6.18085">
        <ele>1317</ele>
        <time>2018-05-10T14:13:25Z</time>
      </trkpt>
      <trkpt lat="44.63685" lon="6.18071">
        <ele>1314</ele>
        <time>2018-05-10T14:13:33Z</time>
      </trkpt>
      <trkpt lat="44.63685" lon="6.18069">
        <ele>1314</ele>
        <time>2018-05-10T14:13:34Z</time>
      </trkpt>
      <trkpt lat="44.63683" lon="6.18045">
        <ele>1312</ele>
        <time>2018-05-10T14:13:45Z</time>
      </trkpt>
      <trkpt lat="44.6368" lon="6.18031">
        <ele>1312</ele>
        <time>2018-05-10T14:14:02Z</time>
      </trkpt>
      <trkpt lat="44.6368" lon="6.18023">
        <ele>1312</ele>
        <time>2018-05-10T14:14:05Z</time>
      </trkpt>
      <trkpt lat="44.6368" lon="6.18021">
        <ele>1312</ele>
        <time>2018-05-10T14:14:06Z</time>
      </trkpt>
      <trkpt lat="44.6368" lon="6.18019">
        <ele>1312</ele>
        <time>2018-05-10T14:14:07Z</time>
      </trkpt>
      <trkpt lat="44.6368" lon="6.18016">
        <ele>1313</ele>
        <time>2018-05-10T14:14:08Z</time>
      </trkpt>
      <trkpt lat="44.6368" lon="6.18014">
        <ele>1313</ele>
        <time>2018-05-10T14:14:09Z</time>
      </trkpt>
      <trkpt lat="44.6368" lon="6.18012">
        <ele>1313</ele>
        <time>2018-05-10T14:14:10Z</time>
      </trkpt>
      <trkpt lat="44.6368" lon="6.18009">
        <ele>1313</ele>
        <time>2018-05-10T14:14:11Z</time>
      </trkpt>
      <trkpt lat="44.6368" lon="6.17967">
        <ele>1308</ele>
        <time>2018-05-10T14:14:28Z</time>
      </trkpt>
      <trkpt lat="44.63666" lon="6.17936">
        <ele>1314</ele>
        <time>2018-05-10T14:14:45Z</time>
      </trkpt>
      <trkpt lat="44.63639" lon="6.17922">
        <ele>1314</ele>
        <time>2018-05-10T14:15:02Z</time>
      </trkpt>
      <trkpt lat="44.63604" lon="6.179">
        <ele>1310</ele>
        <time>2018-05-10T14:15:27Z</time>
      </trkpt>
      <trkpt lat="44.63596" lon="6.17868">
        <ele>1308</ele>
        <time>2018-05-10T14:15:44Z</time>
      </trkpt>
      <trkpt lat="44.63597" lon="6.17821">
        <ele>1304</ele>
        <time>2018-05-10T14:16:07Z</time>
      </trkpt>
      <trkpt lat="44.63598" lon="6.17787">
        <ele>1303</ele>
        <time>2018-05-10T14:16:26Z</time>
      </trkpt>
      <trkpt lat="44.63577" lon="6.17759">
        <ele>1304</ele>
        <time>2018-05-10T14:16:43Z</time>
      </trkpt>
      <trkpt lat="44.63563" lon="6.17729">
        <ele>1302</ele>
        <time>2018-05-10T14:17:03Z</time>
      </trkpt>
      <trkpt lat="44.63563" lon="6.17729">
        <ele>1302</ele>
        <time>2018-05-10T14:17:26Z</time>
      </trkpt>
      <trkpt lat="44.63563" lon="6.17727">
        <ele>1302</ele>
        <time>2018-05-10T14:17:47Z</time>
      </trkpt>
      <trkpt lat="44.6356" lon="6.17722">
        <ele>1302</ele>
        <time>2018-05-10T14:18:09Z</time>
      </trkpt>
      <trkpt lat="44.63559" lon="6.1772">
        <ele>1302</ele>
        <time>2018-05-10T14:18:10Z</time>
      </trkpt>
      <trkpt lat="44.63558" lon="6.17718">
        <ele>1302</ele>
        <time>2018-05-10T14:18:11Z</time>
      </trkpt>
      <trkpt lat="44.63538" lon="6.1768">
        <ele>1302</ele>
        <time>2018-05-10T14:18:33Z</time>
      </trkpt>
      <trkpt lat="44.6351" lon="6.17639">
        <ele>1298</ele>
        <time>2018-05-10T14:19:00Z</time>
      </trkpt>
      <trkpt lat="44.63482" lon="6.17607">
        <ele>1297</ele>
        <time>2018-05-10T14:19:23Z</time>
      </trkpt>
      <trkpt lat="44.6346" lon="6.17577">
        <ele>1293</ele>
        <time>2018-05-10T14:19:44Z</time>
      </trkpt>
      <trkpt lat="44.63449" lon="6.17547">
        <ele>1292</ele>
        <time>2018-05-10T14:20:02Z</time>
      </trkpt>
      <trkpt lat="44.63438" lon="6.17499">
        <ele>1289</ele>
        <time>2018-05-10T14:20:27Z</time>
      </trkpt>
      <trkpt lat="44.63424" lon="6.17459">
        <ele>1288</ele>
        <time>2018-05-10T14:20:47Z</time>
      </trkpt>
      <trkpt lat="44.63424" lon="6.17431">
        <ele>1287</ele>
        <time>2018-05-10T14:21:02Z</time>
      </trkpt>
      <trkpt lat="44.63451" lon="6.17421">
        <ele>1287</ele>
        <time>2018-05-10T14:21:21Z</time>
      </trkpt>
      <trkpt lat="44.63475" lon="6.17431">
        <ele>1286</ele>
        <time>2018-05-10T14:21:40Z</time>
      </trkpt>
      <trkpt lat="44.63503" lon="6.17414">
        <ele>1283</ele>
        <time>2018-05-10T14:22:00Z</time>
      </trkpt>
      <trkpt lat="44.63528" lon="6.17398">
        <ele>1279</ele>
        <time>2018-05-10T14:22:18Z</time>
      </trkpt>
      <trkpt lat="44.63556" lon="6.17369">
        <ele>1277</ele>
        <time>2018-05-10T14:22:43Z</time>
      </trkpt>
      <trkpt lat="44.63573" lon="6.17351">
        <ele>1275</ele>
        <time>2018-05-10T14:22:59Z</time>
      </trkpt>
      <trkpt lat="44.6358" lon="6.17339">
        <ele>1273</ele>
        <time>2018-05-10T14:23:09Z</time>
      </trkpt>
      <trkpt lat="44.6358" lon="6.17337">
        <ele>1272</ele>
        <time>2018-05-10T14:23:10Z</time>
      </trkpt>
      <trkpt lat="44.63581" lon="6.17336">
        <ele>1272</ele>
        <time>2018-05-10T14:23:11Z</time>
      </trkpt>
      <trkpt lat="44.63582" lon="6.17335">
        <ele>1272</ele>
        <time>2018-05-10T14:23:12Z</time>
      </trkpt>
      <trkpt lat="44.63583" lon="6.17334">
        <ele>1271</ele>
        <time>2018-05-10T14:23:13Z</time>
      </trkpt>
      <trkpt lat="44.63584" lon="6.17333">
        <ele>1270</ele>
        <time>2018-05-10T14:23:14Z</time>
      </trkpt>
      <trkpt lat="44.6359" lon="6.17327">
        <ele>1266</ele>
        <time>2018-05-10T14:23:19Z</time>
      </trkpt>
      <trkpt lat="44.63609" lon="6.17331">
        <ele>1262</ele>
        <time>2018-05-10T14:23:35Z</time>
      </trkpt>
      <trkpt lat="44.6362" lon="6.17338">
        <ele>1264</ele>
        <time>2018-05-10T14:23:46Z</time>
      </trkpt>
      <trkpt lat="44.63634" lon="6.17351">
        <ele>1262</ele>
        <time>2018-05-10T14:23:58Z</time>
      </trkpt>
      <trkpt lat="44.63644" lon="6.17365">
        <ele>1262</ele>
        <time>2018-05-10T14:24:07Z</time>
      </trkpt>
      <trkpt lat="44.63656" lon="6.17382">
        <ele>1262</ele>
        <time>2018-05-10T14:24:21Z</time>
      </trkpt>
      <trkpt lat="44.6366" lon="6.17386">
        <ele>1262</ele>
        <time>2018-05-10T14:24:25Z</time>
      </trkpt>
      <trkpt lat="44.63664" lon="6.1739">
        <ele>1262</ele>
        <time>2018-05-10T14:24:28Z</time>
      </trkpt>
      <trkpt lat="44.63682" lon="6.17409">
        <ele>1252</ele>
        <time>2018-05-10T14:24:42Z</time>
      </trkpt>
      <trkpt lat="44.63697" lon="6.17421">
        <ele>1253</ele>
        <time>2018-05-10T14:24:55Z</time>
      </trkpt>
      <trkpt lat="44.63705" lon="6.17431">
        <ele>1252</ele>
        <time>2018-05-10T14:25:03Z</time>
      </trkpt>
      <trkpt lat="44.63721" lon="6.17446">
        <ele>1250</ele>
        <time>2018-05-10T14:25:18Z</time>
      </trkpt>
      <trkpt lat="44.63723" lon="6.17444">
        <ele>1249</ele>
        <time>2018-05-10T14:25:21Z</time>
      </trkpt>
      <trkpt lat="44.63725" lon="6.17441">
        <ele>1249</ele>
        <time>2018-05-10T14:25:23Z</time>
      </trkpt>
      <trkpt lat="44.63728" lon="6.17426">
        <ele>1246</ele>
        <time>2018-05-10T14:25:38Z</time>
      </trkpt>
      <trkpt lat="44.63728" lon="6.1742">
        <ele>1246</ele>
        <time>2018-05-10T14:25:41Z</time>
      </trkpt>
      <trkpt lat="44.63728" lon="6.17414">
        <ele>1241</ele>
        <time>2018-05-10T14:25:44Z</time>
      </trkpt>
      <trkpt lat="44.63728" lon="6.17412">
        <ele>1241</ele>
        <time>2018-05-10T14:25:45Z</time>
      </trkpt>
      <trkpt lat="44.63726" lon="6.17406">
        <ele>1242</ele>
        <time>2018-05-10T14:25:48Z</time>
      </trkpt>
      <trkpt lat="44.6373" lon="6.17374">
        <ele>1241</ele>
        <time>2018-05-10T14:26:03Z</time>
      </trkpt>
      <trkpt lat="44.63732" lon="6.17371">
        <ele>1241</ele>
        <time>2018-05-10T14:26:05Z</time>
      </trkpt>
      <trkpt lat="44.63745" lon="6.17367">
        <ele>1239</ele>
        <time>2018-05-10T14:26:19Z</time>
      </trkpt>
      <trkpt lat="44.6375" lon="6.17369">
        <ele>1222</ele>
        <time>2018-05-10T14:26:22Z</time>
      </trkpt>
      <trkpt lat="44.63761" lon="6.17378">
        <ele>1222</ele>
        <time>2018-05-10T14:26:31Z</time>
      </trkpt>
      <trkpt lat="44.63765" lon="6.17384">
        <ele>1222</ele>
        <time>2018-05-10T14:26:36Z</time>
      </trkpt>
      <trkpt lat="44.63777" lon="6.17407">
        <ele>1222</ele>
        <time>2018-05-10T14:26:52Z</time>
      </trkpt>
      <trkpt lat="44.63779" lon="6.17414">
        <ele>1222</ele>
        <time>2018-05-10T14:26:56Z</time>
      </trkpt>
      <trkpt lat="44.63792" lon="6.17435">
        <ele>1225</ele>
        <time>2018-05-10T14:27:10Z</time>
      </trkpt>
      <trkpt lat="44.63793" lon="6.17436">
        <ele>1225</ele>
        <time>2018-05-10T14:27:12Z</time>
      </trkpt>
      <trkpt lat="44.63803" lon="6.17459">
        <ele>1224</ele>
        <time>2018-05-10T14:27:27Z</time>
      </trkpt>
      <trkpt lat="44.6381" lon="6.17487">
        <ele>1223</ele>
        <time>2018-05-10T14:27:44Z</time>
      </trkpt>
      <trkpt lat="44.63811" lon="6.17517">
        <ele>1225</ele>
        <time>2018-05-10T14:28:00Z</time>
      </trkpt>
      <trkpt lat="44.6381" lon="6.17521">
        <ele>1226</ele>
        <time>2018-05-10T14:28:02Z</time>
      </trkpt>
      <trkpt lat="44.63812" lon="6.17542">
        <ele>1227</ele>
        <time>2018-05-10T14:28:16Z</time>
      </trkpt>
      <trkpt lat="44.63814" lon="6.17552">
        <ele>1226</ele>
        <time>2018-05-10T14:28:22Z</time>
      </trkpt>
      <trkpt lat="44.63816" lon="6.17576">
        <ele>1223</ele>
        <time>2018-05-10T14:28:34Z</time>
      </trkpt>
      <trkpt lat="44.63817" lon="6.17609">
        <ele>1230</ele>
        <time>2018-05-10T14:28:48Z</time>
      </trkpt>
      <trkpt lat="44.6382" lon="6.17633">
        <ele>1232</ele>
        <time>2018-05-10T14:29:00Z</time>
      </trkpt>
      <trkpt lat="44.63823" lon="6.1765">
        <ele>1230</ele>
        <time>2018-05-10T14:29:09Z</time>
      </trkpt>
      <trkpt lat="44.63827" lon="6.17657">
        <ele>1229</ele>
        <time>2018-05-10T14:29:14Z</time>
      </trkpt>
      <trkpt lat="44.63833" lon="6.17664">
        <ele>1225</ele>
        <time>2018-05-10T14:29:19Z</time>
      </trkpt>
      <trkpt lat="44.63838" lon="6.17665">
        <ele>1220</ele>
        <time>2018-05-10T14:29:23Z</time>
      </trkpt>
      <trkpt lat="44.63841" lon="6.17666">
        <ele>1218</ele>
        <time>2018-05-10T14:29:25Z</time>
      </trkpt>
      <trkpt lat="44.6386" lon="6.17677">
        <ele>1213</ele>
        <time>2018-05-10T14:29:41Z</time>
      </trkpt>
      <trkpt lat="44.63866" lon="6.17683">
        <ele>1212</ele>
        <time>2018-05-10T14:29:47Z</time>
      </trkpt>
      <trkpt lat="44.63871" lon="6.17695">
        <ele>1210</ele>
        <time>2018-05-10T14:29:55Z</time>
      </trkpt>
      <trkpt lat="44.63874" lon="6.17707">
        <ele>1210</ele>
        <time>2018-05-10T14:30:02Z</time>
      </trkpt>
      <trkpt lat="44.63874" lon="6.17714">
        <ele>1210</ele>
        <time>2018-05-10T14:30:05Z</time>
      </trkpt>
      <trkpt lat="44.63877" lon="6.17737">
        <ele>1210</ele>
        <time>2018-05-10T14:30:17Z</time>
      </trkpt>
      <trkpt lat="44.63886" lon="6.17765">
        <ele>1210</ele>
        <time>2018-05-10T14:30:32Z</time>
      </trkpt>
      <trkpt lat="44.63901" lon="6.17792">
        <ele>1208</ele>
        <time>2018-05-10T14:30:50Z</time>
      </trkpt>
      <trkpt lat="44.63904" lon="6.17807">
        <ele>1207</ele>
        <time>2018-05-10T14:30:58Z</time>
      </trkpt>
      <trkpt lat="44.63912" lon="6.17827">
        <ele>1201</ele>
        <time>2018-05-10T14:31:12Z</time>
      </trkpt>
      <trkpt lat="44.63926" lon="6.17846">
        <ele>1192</ele>
        <time>2018-05-10T14:31:26Z</time>
      </trkpt>
      <trkpt lat="44.63936" lon="6.17856">
        <ele>1189</ele>
        <time>2018-05-10T14:31:35Z</time>
      </trkpt>
      <trkpt lat="44.63942" lon="6.1785">
        <ele>1188</ele>
        <time>2018-05-10T14:31:42Z</time>
      </trkpt>
      <trkpt lat="44.63943" lon="6.17842">
        <ele>1188</ele>
        <time>2018-05-10T14:31:48Z</time>
      </trkpt>
      <trkpt lat="44.63952" lon="6.17821">
        <ele>1184</ele>
        <time>2018-05-10T14:32:00Z</time>
      </trkpt>
      <trkpt lat="44.63952" lon="6.178">
        <ele>1184</ele>
        <time>2018-05-10T14:32:12Z</time>
      </trkpt>
      <trkpt lat="44.63953" lon="6.17786">
        <ele>1183</ele>
        <time>2018-05-10T14:32:18Z</time>
      </trkpt>
      <trkpt lat="44.63954" lon="6.1777">
        <ele>1183</ele>
        <time>2018-05-10T14:32:26Z</time>
      </trkpt>
      <trkpt lat="44.63962" lon="6.17749">
        <ele>1179</ele>
        <time>2018-05-10T14:32:40Z</time>
      </trkpt>
      <trkpt lat="44.6396" lon="6.17738">
        <ele>1179</ele>
        <time>2018-05-10T14:32:45Z</time>
      </trkpt>
      <trkpt lat="44.63957" lon="6.17716">
        <ele>1179</ele>
        <time>2018-05-10T14:32:53Z</time>
      </trkpt>
      <trkpt lat="44.63954" lon="6.17708">
        <ele>1180</ele>
        <time>2018-05-10T14:32:55Z</time>
      </trkpt>
      <trkpt lat="44.63953" lon="6.17704">
        <ele>1180</ele>
        <time>2018-05-10T14:32:56Z</time>
      </trkpt>
      <trkpt lat="44.63952" lon="6.17701">
        <ele>1180</ele>
        <time>2018-05-10T14:32:57Z</time>
      </trkpt>
      <trkpt lat="44.63952" lon="6.17698">
        <ele>1180</ele>
        <time>2018-05-10T14:32:58Z</time>
      </trkpt>
      <trkpt lat="44.63951" lon="6.17692">
        <ele>1180</ele>
        <time>2018-05-10T14:33:00Z</time>
      </trkpt>
      <trkpt lat="44.63951" lon="6.17689">
        <ele>1180</ele>
        <time>2018-05-10T14:33:01Z</time>
      </trkpt>
      <trkpt lat="44.63947" lon="6.17682">
        <ele>1181</ele>
        <time>2018-05-10T14:33:03Z</time>
      </trkpt>
      <trkpt lat="44.63947" lon="6.17679">
        <ele>1181</ele>
        <time>2018-05-10T14:33:04Z</time>
      </trkpt>
      <trkpt lat="44.63944" lon="6.17668">
        <ele>1182</ele>
        <time>2018-05-10T14:33:07Z</time>
      </trkpt>
      <trkpt lat="44.63943" lon="6.17664">
        <ele>1178</ele>
        <time>2018-05-10T14:33:08Z</time>
      </trkpt>
      <trkpt lat="44.63941" lon="6.17659">
        <ele>1178</ele>
        <time>2018-05-10T14:33:09Z</time>
      </trkpt>
      <trkpt lat="44.6394" lon="6.17654">
        <ele>1178</ele>
        <time>2018-05-10T14:33:10Z</time>
      </trkpt>
      <trkpt lat="44.6394" lon="6.1765">
        <ele>1177</ele>
        <time>2018-05-10T14:33:11Z</time>
      </trkpt>
      <trkpt lat="44.63923" lon="6.1761">
        <ele>1176</ele>
        <time>2018-05-10T14:33:22Z</time>
      </trkpt>
      <trkpt lat="44.63921" lon="6.17607">
        <ele>1176</ele>
        <time>2018-05-10T14:33:23Z</time>
      </trkpt>
      <trkpt lat="44.6392" lon="6.17603">
        <ele>1177</ele>
        <time>2018-05-10T14:33:24Z</time>
      </trkpt>
      <trkpt lat="44.63919" lon="6.17597">
        <ele>1178</ele>
        <time>2018-05-10T14:33:25Z</time>
      </trkpt>
      <trkpt lat="44.63918" lon="6.17591">
        <ele>1179</ele>
        <time>2018-05-10T14:33:26Z</time>
      </trkpt>
      <trkpt lat="44.63918" lon="6.17585">
        <ele>1181</ele>
        <time>2018-05-10T14:33:27Z</time>
      </trkpt>
      <trkpt lat="44.63918" lon="6.17581">
        <ele>1180</ele>
        <time>2018-05-10T14:33:28Z</time>
      </trkpt>
      <trkpt lat="44.63926" lon="6.17522">
        <ele>1170</ele>
        <time>2018-05-10T14:33:40Z</time>
      </trkpt>
      <trkpt lat="44.63925" lon="6.17494">
        <ele>1172</ele>
        <time>2018-05-10T14:33:48Z</time>
      </trkpt>
      <trkpt lat="44.63924" lon="6.1745">
        <ele>1164</ele>
        <time>2018-05-10T14:34:05Z</time>
      </trkpt>
      <trkpt lat="44.63919" lon="6.17409">
        <ele>1167</ele>
        <time>2018-05-10T14:34:14Z</time>
      </trkpt>
      <trkpt lat="44.63911" lon="6.17383">
        <ele>1179</ele>
        <time>2018-05-10T14:34:20Z</time>
      </trkpt>
      <trkpt lat="44.6391" lon="6.1738">
        <ele>1179</ele>
        <time>2018-05-10T14:34:21Z</time>
      </trkpt>
      <trkpt lat="44.63908" lon="6.17376">
        <ele>1179</ele>
        <time>2018-05-10T14:34:22Z</time>
      </trkpt>
      <trkpt lat="44.63897" lon="6.17327">
        <ele>1171</ele>
        <time>2018-05-10T14:34:32Z</time>
      </trkpt>
      <trkpt lat="44.63884" lon="6.17277">
        <ele>1172</ele>
        <time>2018-05-10T14:34:43Z</time>
      </trkpt>
      <trkpt lat="44.6387" lon="6.17225">
        <ele>1170</ele>
        <time>2018-05-10T14:34:56Z</time>
      </trkpt>
      <trkpt lat="44.63856" lon="6.17174">
        <ele>1171</ele>
        <time>2018-05-10T14:35:06Z</time>
      </trkpt>
      <trkpt lat="44.63846" lon="6.17141">
        <ele>1168</ele>
        <time>2018-05-10T14:35:13Z</time>
      </trkpt>
      <trkpt lat="44.63845" lon="6.17136">
        <ele>1168</ele>
        <time>2018-05-10T14:35:14Z</time>
      </trkpt>
      <trkpt lat="44.63844" lon="6.1713">
        <ele>1167</ele>
        <time>2018-05-10T14:35:15Z</time>
      </trkpt>
      <trkpt lat="44.63843" lon="6.17123">
        <ele>1167</ele>
        <time>2018-05-10T14:35:16Z</time>
      </trkpt>
      <trkpt lat="44.63842" lon="6.17117">
        <ele>1167</ele>
        <time>2018-05-10T14:35:17Z</time>
      </trkpt>
      <trkpt lat="44.63841" lon="6.1711">
        <ele>1167</ele>
        <time>2018-05-10T14:35:18Z</time>
      </trkpt>
      <trkpt lat="44.63834" lon="6.17088">
        <ele>1171</ele>
        <time>2018-05-10T14:35:21Z</time>
      </trkpt>
      <trkpt lat="44.63831" lon="6.1708">
        <ele>1173</ele>
        <time>2018-05-10T14:35:22Z</time>
      </trkpt>
      <trkpt lat="44.63826" lon="6.17064">
        <ele>1177</ele>
        <time>2018-05-10T14:35:24Z</time>
      </trkpt>
      <trkpt lat="44.63823" lon="6.17057">
        <ele>1178</ele>
        <time>2018-05-10T14:35:25Z</time>
      </trkpt>
      <trkpt lat="44.63822" lon="6.1705">
        <ele>1179</ele>
        <time>2018-05-10T14:35:26Z</time>
      </trkpt>
      <trkpt lat="44.63821" lon="6.17045">
        <ele>1179</ele>
        <time>2018-05-10T14:35:27Z</time>
      </trkpt>
      <trkpt lat="44.63822" lon="6.17038">
        <ele>1179</ele>
        <time>2018-05-10T14:35:28Z</time>
      </trkpt>
      <trkpt lat="44.63821" lon="6.17028">
        <ele>1178</ele>
        <time>2018-05-10T14:35:29Z</time>
      </trkpt>
      <trkpt lat="44.6382" lon="6.17021">
        <ele>1177</ele>
        <time>2018-05-10T14:35:30Z</time>
      </trkpt>
      <trkpt lat="44.6382" lon="6.17013">
        <ele>1176</ele>
        <time>2018-05-10T14:35:31Z</time>
      </trkpt>
      <trkpt lat="44.6382" lon="6.17006">
        <ele>1176</ele>
        <time>2018-05-10T14:35:32Z</time>
      </trkpt>
      <trkpt lat="44.63819" lon="6.17001">
        <ele>1176</ele>
        <time>2018-05-10T14:35:33Z</time>
      </trkpt>
      <trkpt lat="44.63817" lon="6.16996">
        <ele>1174</ele>
        <time>2018-05-10T14:35:34Z</time>
      </trkpt>
      <trkpt lat="44.63815" lon="6.16991">
        <ele>1174</ele>
        <time>2018-05-10T14:35:35Z</time>
      </trkpt>
      <trkpt lat="44.63809" lon="6.16982">
        <ele>1175</ele>
        <time>2018-05-10T14:35:37Z</time>
      </trkpt>
      <trkpt lat="44.63783" lon="6.16969">
        <ele>1178</ele>
        <time>2018-05-10T14:35:47Z</time>
      </trkpt>
      <trkpt lat="44.63754" lon="6.1694">
        <ele>1180</ele>
        <time>2018-05-10T14:36:01Z</time>
      </trkpt>
      <trkpt lat="44.63742" lon="6.16939">
        <ele>1192</ele>
        <time>2018-05-10T14:36:19Z</time>
      </trkpt>
      <trkpt lat="44.63747" lon="6.16935">
        <ele>1191</ele>
        <time>2018-05-10T14:36:27Z</time>
      </trkpt>
      <trkpt lat="44.6376" lon="6.16916">
        <ele>1181</ele>
        <time>2018-05-10T14:36:47Z</time>
      </trkpt>
      <trkpt lat="44.63764" lon="6.16906">
        <ele>1179</ele>
        <time>2018-05-10T14:36:53Z</time>
      </trkpt>
      <trkpt lat="44.63766" lon="6.16901">
        <ele>1179</ele>
        <time>2018-05-10T14:36:56Z</time>
      </trkpt>
      <trkpt lat="44.63769" lon="6.16895">
        <ele>1178</ele>
        <time>2018-05-10T14:37:00Z</time>
      </trkpt>
      <trkpt lat="44.63777" lon="6.16875">
        <ele>1177</ele>
        <time>2018-05-10T14:37:15Z</time>
      </trkpt>
      <trkpt lat="44.63786" lon="6.16855">
        <ele>1176</ele>
        <time>2018-05-10T14:37:25Z</time>
      </trkpt>
      <trkpt lat="44.638" lon="6.16828">
        <ele>1169</ele>
        <time>2018-05-10T14:37:39Z</time>
      </trkpt>
      <trkpt lat="44.63811" lon="6.16805">
        <ele>1167</ele>
        <time>2018-05-10T14:37:54Z</time>
      </trkpt>
      <trkpt lat="44.63805" lon="6.16784">
        <ele>1168</ele>
        <time>2018-05-10T14:38:04Z</time>
      </trkpt>
      <trkpt lat="44.63799" lon="6.16746">
        <ele>1160</ele>
        <time>2018-05-10T14:38:21Z</time>
      </trkpt>
      <trkpt lat="44.63798" lon="6.16739">
        <ele>1160</ele>
        <time>2018-05-10T14:38:25Z</time>
      </trkpt>
      <trkpt lat="44.63797" lon="6.16734">
        <ele>1160</ele>
        <time>2018-05-10T14:38:27Z</time>
      </trkpt>
      <trkpt lat="44.63795" lon="6.16712">
        <ele>1159</ele>
        <time>2018-05-10T14:38:39Z</time>
      </trkpt>
      <trkpt lat="44.63795" lon="6.167">
        <ele>1158</ele>
        <time>2018-05-10T14:38:46Z</time>
      </trkpt>
      <trkpt lat="44.63796" lon="6.16696">
        <ele>1158</ele>
        <time>2018-05-10T14:38:48Z</time>
      </trkpt>
      <trkpt lat="44.63798" lon="6.16677">
        <ele>1156</ele>
        <time>2018-05-10T14:38:59Z</time>
      </trkpt>
      <trkpt lat="44.63798" lon="6.16662">
        <ele>1148</ele>
        <time>2018-05-10T14:39:07Z</time>
      </trkpt>
      <trkpt lat="44.638" lon="6.16649">
        <ele>1147</ele>
        <time>2018-05-10T14:39:13Z</time>
      </trkpt>
      <trkpt lat="44.63801" lon="6.16621">
        <ele>1146</ele>
        <time>2018-05-10T14:39:27Z</time>
      </trkpt>
      <trkpt lat="44.63798" lon="6.16591">
        <ele>1144</ele>
        <time>2018-05-10T14:39:41Z</time>
      </trkpt>
      <trkpt lat="44.63796" lon="6.16585">
        <ele>1144</ele>
        <time>2018-05-10T14:39:44Z</time>
      </trkpt>
      <trkpt lat="44.63787" lon="6.16552">
        <ele>1142</ele>
        <time>2018-05-10T14:40:02Z</time>
      </trkpt>
      <trkpt lat="44.63787" lon="6.16539">
        <ele>1141</ele>
        <time>2018-05-10T14:40:09Z</time>
      </trkpt>
      <trkpt lat="44.63791" lon="6.16519">
        <ele>1140</ele>
        <time>2018-05-10T14:40:21Z</time>
      </trkpt>
      <trkpt lat="44.63793" lon="6.16491">
        <ele>1136</ele>
        <time>2018-05-10T14:40:34Z</time>
      </trkpt>
      <trkpt lat="44.63796" lon="6.16466">
        <ele>1135</ele>
        <time>2018-05-10T14:40:47Z</time>
      </trkpt>
      <trkpt lat="44.63796" lon="6.16457">
        <ele>1135</ele>
        <time>2018-05-10T14:40:51Z</time>
      </trkpt>
      <trkpt lat="44.63807" lon="6.16436">
        <ele>1132</ele>
        <time>2018-05-10T14:41:05Z</time>
      </trkpt>
      <trkpt lat="44.6382" lon="6.16429">
        <ele>1127</ele>
        <time>2018-05-10T14:41:15Z</time>
      </trkpt>
      <trkpt lat="44.63837" lon="6.16428">
        <ele>1116</ele>
        <time>2018-05-10T14:41:28Z</time>
      </trkpt>
      <trkpt lat="44.63856" lon="6.16423">
        <ele>1114</ele>
        <time>2018-05-10T14:41:42Z</time>
      </trkpt>
      <trkpt lat="44.63859" lon="6.16423">
        <ele>1114</ele>
        <time>2018-05-10T14:41:44Z</time>
      </trkpt>
      <trkpt lat="44.63869" lon="6.1642">
        <ele>1112</ele>
        <time>2018-05-10T14:41:52Z</time>
      </trkpt>
      <trkpt lat="44.63894" lon="6.16414">
        <ele>1108</ele>
        <time>2018-05-10T14:42:10Z</time>
      </trkpt>
      <trkpt lat="44.63917" lon="6.16416">
        <ele>1103</ele>
        <time>2018-05-10T14:42:25Z</time>
      </trkpt>
      <trkpt lat="44.63931" lon="6.16393">
        <ele>1099</ele>
        <time>2018-05-10T14:42:41Z</time>
      </trkpt>
      <trkpt lat="44.63934" lon="6.16364">
        <ele>1098</ele>
        <time>2018-05-10T14:42:57Z</time>
      </trkpt>
      <trkpt lat="44.63934" lon="6.16363">
        <ele>1098</ele>
        <time>2018-05-10T14:42:58Z</time>
      </trkpt>
      <trkpt lat="44.63932" lon="6.16356">
        <ele>1099</ele>
        <time>2018-05-10T14:43:01Z</time>
      </trkpt>
      <trkpt lat="44.63926" lon="6.1634">
        <ele>1101</ele>
        <time>2018-05-10T14:43:10Z</time>
      </trkpt>
      <trkpt lat="44.63918" lon="6.16315">
        <ele>1099</ele>
        <time>2018-05-10T14:43:25Z</time>
      </trkpt>
      <trkpt lat="44.63928" lon="6.16273">
        <ele>1098</ele>
        <time>2018-05-10T14:43:46Z</time>
      </trkpt>
      <trkpt lat="44.63932" lon="6.16263">
        <ele>1098</ele>
        <time>2018-05-10T14:43:51Z</time>
      </trkpt>
      <trkpt lat="44.63942" lon="6.1623">
        <ele>1094</ele>
        <time>2018-05-10T14:44:10Z</time>
      </trkpt>
      <trkpt lat="44.63946" lon="6.16189">
        <ele>1093</ele>
        <time>2018-05-10T14:44:29Z</time>
      </trkpt>
      <trkpt lat="44.63942" lon="6.16156">
        <ele>1090</ele>
        <time>2018-05-10T14:44:46Z</time>
      </trkpt>
      <trkpt lat="44.63939" lon="6.1613">
        <ele>1090</ele>
        <time>2018-05-10T14:44:59Z</time>
      </trkpt>
      <trkpt lat="44.63941" lon="6.16096">
        <ele>1089</ele>
        <time>2018-05-10T14:45:17Z</time>
      </trkpt>
      <trkpt lat="44.63953" lon="6.16061">
        <ele>1086</ele>
        <time>2018-05-10T14:45:35Z</time>
      </trkpt>
      <trkpt lat="44.6396" lon="6.16052">
        <ele>1085</ele>
        <time>2018-05-10T14:45:52Z</time>
      </trkpt>
      <trkpt lat="44.63963" lon="6.1605">
        <ele>1085</ele>
        <time>2018-05-10T14:45:56Z</time>
      </trkpt>
      <trkpt lat="44.63965" lon="6.16047">
        <ele>1085</ele>
        <time>2018-05-10T14:45:59Z</time>
      </trkpt>
      <trkpt lat="44.6398" lon="6.16041">
        <ele>1084</ele>
        <time>2018-05-10T14:46:10Z</time>
      </trkpt>
      <trkpt lat="44.63991" lon="6.16031">
        <ele>1083</ele>
        <time>2018-05-10T14:46:21Z</time>
      </trkpt>
      <trkpt lat="44.64008" lon="6.16017">
        <ele>1076</ele>
        <time>2018-05-10T14:46:36Z</time>
      </trkpt>
      <trkpt lat="44.6402" lon="6.15995">
        <ele>1073</ele>
        <time>2018-05-10T14:46:52Z</time>
      </trkpt>
      <trkpt lat="44.64033" lon="6.15967">
        <ele>1071</ele>
        <time>2018-05-10T14:47:09Z</time>
      </trkpt>
      <trkpt lat="44.64031" lon="6.15943">
        <ele>1070</ele>
        <time>2018-05-10T14:47:24Z</time>
      </trkpt>
      <trkpt lat="44.64037" lon="6.15948">
        <ele>1070</ele>
        <time>2018-05-10T14:47:28Z</time>
      </trkpt>
      <trkpt lat="44.64044" lon="6.15967">
        <ele>1070</ele>
        <time>2018-05-10T14:47:39Z</time>
      </trkpt>
      <trkpt lat="44.64059" lon="6.1599">
        <ele>1068</ele>
        <time>2018-05-10T14:47:53Z</time>
      </trkpt>
      <trkpt lat="44.64069" lon="6.16014">
        <ele>1069</ele>
        <time>2018-05-10T14:48:07Z</time>
      </trkpt>
      <trkpt lat="44.64074" lon="6.16023">
        <ele>1069</ele>
        <time>2018-05-10T14:48:13Z</time>
      </trkpt>
      <trkpt lat="44.64085" lon="6.16057">
        <ele>1062</ele>
        <time>2018-05-10T14:48:32Z</time>
      </trkpt>
      <trkpt lat="44.64088" lon="6.16059">
        <ele>1062</ele>
        <time>2018-05-10T14:48:34Z</time>
      </trkpt>
      <trkpt lat="44.6411" lon="6.16088">
        <ele>1062</ele>
        <time>2018-05-10T14:48:56Z</time>
      </trkpt>
      <trkpt lat="44.64123" lon="6.16092">
        <ele>1061</ele>
        <time>2018-05-10T14:49:06Z</time>
      </trkpt>
      <trkpt lat="44.64127" lon="6.16092">
        <ele>1061</ele>
        <time>2018-05-10T14:49:09Z</time>
      </trkpt>
      <trkpt lat="44.64135" lon="6.16094">
        <ele>1060</ele>
        <time>2018-05-10T14:49:17Z</time>
      </trkpt>
      <trkpt lat="44.6414" lon="6.16095">
        <ele>1060</ele>
        <time>2018-05-10T14:49:20Z</time>
      </trkpt>
      <trkpt lat="44.64174" lon="6.16114">
        <ele>1056</ele>
        <time>2018-05-10T14:49:44Z</time>
      </trkpt>
      <trkpt lat="44.64198" lon="6.16133">
        <ele>1056</ele>
        <time>2018-05-10T14:50:05Z</time>
      </trkpt>
      <trkpt lat="44.642" lon="6.16134">
        <ele>1056</ele>
        <time>2018-05-10T14:50:27Z</time>
      </trkpt>
      <trkpt lat="44.64229" lon="6.16147">
        <ele>1055</ele>
        <time>2018-05-10T14:50:48Z</time>
      </trkpt>
      <trkpt lat="44.64255" lon="6.16171">
        <ele>1054</ele>
        <time>2018-05-10T14:51:10Z</time>
      </trkpt>
      <trkpt lat="44.64275" lon="6.16204">
        <ele>1053</ele>
        <time>2018-05-10T14:51:34Z</time>
      </trkpt>
      <trkpt lat="44.64286" lon="6.16252">
        <ele>1052</ele>
        <time>2018-05-10T14:51:58Z</time>
      </trkpt>
      <trkpt lat="44.64306" lon="6.16275">
        <ele>1052</ele>
        <time>2018-05-10T14:52:13Z</time>
      </trkpt>
      <trkpt lat="44.64331" lon="6.16266">
        <ele>1052</ele>
        <time>2018-05-10T14:52:31Z</time>
      </trkpt>
      <trkpt lat="44.64348" lon="6.16255">
        <ele>1052</ele>
        <time>2018-05-10T14:52:47Z</time>
      </trkpt>
      <trkpt lat="44.64349" lon="6.16254">
        <ele>1052</ele>
        <time>2018-05-10T14:52:48Z</time>
      </trkpt>
      <trkpt lat="44.6435" lon="6.16253">
        <ele>1052</ele>
        <time>2018-05-10T14:52:49Z</time>
      </trkpt>
      <trkpt lat="44.64357" lon="6.16241">
        <ele>1052</ele>
        <time>2018-05-10T14:53:00Z</time>
      </trkpt>
      <trkpt lat="44.64358" lon="6.16238">
        <ele>1052</ele>
        <time>2018-05-10T14:53:02Z</time>
      </trkpt>
      <trkpt lat="44.64359" lon="6.16237">
        <ele>1052</ele>
        <time>2018-05-10T14:53:03Z</time>
      </trkpt>
      <trkpt lat="44.6436" lon="6.16235">
        <ele>1052</ele>
        <time>2018-05-10T14:53:04Z</time>
      </trkpt>
      <trkpt lat="44.64377" lon="6.16214">
        <ele>1052</ele>
        <time>2018-05-10T14:53:17Z</time>
      </trkpt>
      <trkpt lat="44.64409" lon="6.16202">
        <ele>1051</ele>
        <time>2018-05-10T14:53:36Z</time>
      </trkpt>
      <trkpt lat="44.64455" lon="6.16192">
        <ele>1051</ele>
        <time>2018-05-10T14:54:06Z</time>
      </trkpt>
      <trkpt lat="44.64497" lon="6.16183">
        <ele>1050</ele>
        <time>2018-05-10T14:54:33Z</time>
      </trkpt>
      <trkpt lat="44.64529" lon="6.16181">
        <ele>1051</ele>
        <time>2018-05-10T14:54:56Z</time>
      </trkpt>
      <trkpt lat="44.64543" lon="6.16183">
        <ele>1052</ele>
        <time>2018-05-10T14:55:06Z</time>
      </trkpt>
      <trkpt lat="44.64544" lon="6.16183">
        <ele>1052</ele>
        <time>2018-05-10T14:55:07Z</time>
      </trkpt>
      <trkpt lat="44.64546" lon="6.16183">
        <ele>1052</ele>
        <time>2018-05-10T14:55:08Z</time>
      </trkpt>
      <trkpt lat="44.64547" lon="6.16183">
        <ele>1052</ele>
        <time>2018-05-10T14:55:09Z</time>
      </trkpt>
      <trkpt lat="44.64548" lon="6.16184">
        <ele>1052</ele>
        <time>2018-05-10T14:55:10Z</time>
      </trkpt>
      <trkpt lat="44.64574" lon="6.16184">
        <ele>1053</ele>
        <time>2018-05-10T14:55:25Z</time>
      </trkpt>
      <trkpt lat="44.64597" lon="6.16182">
        <ele>1054</ele>
        <time>2018-05-10T14:55:40Z</time>
      </trkpt>
      <trkpt lat="44.64613" lon="6.16198">
        <ele>1055</ele>
        <time>2018-05-10T14:55:54Z</time>
      </trkpt>
      <trkpt lat="44.64615" lon="6.16221">
        <ele>1055</ele>
        <time>2018-05-10T14:56:06Z</time>
      </trkpt>
      <trkpt lat="44.64611" lon="6.1627">
        <ele>1056</ele>
        <time>2018-05-10T14:56:25Z</time>
      </trkpt>
      <trkpt lat="44.64612" lon="6.16306">
        <ele>1056</ele>
        <time>2018-05-10T14:56:44Z</time>
      </trkpt>
      <trkpt lat="44.64613" lon="6.16338">
        <ele>1056</ele>
        <time>2018-05-10T14:57:01Z</time>
      </trkpt>
      <trkpt lat="44.64611" lon="6.1636">
        <ele>1056</ele>
        <time>2018-05-10T14:57:13Z</time>
      </trkpt>
      <trkpt lat="44.64611" lon="6.16362">
        <ele>1056</ele>
        <time>2018-05-10T14:57:14Z</time>
      </trkpt>
      <trkpt lat="44.64611" lon="6.16372">
        <ele>1056</ele>
        <time>2018-05-10T14:57:19Z</time>
      </trkpt>
      <trkpt lat="44.64611" lon="6.16374">
        <ele>1056</ele>
        <time>2018-05-10T14:57:20Z</time>
      </trkpt>
      <trkpt lat="44.64611" lon="6.16376">
        <ele>1056</ele>
        <time>2018-05-10T14:57:21Z</time>
      </trkpt>
      <trkpt lat="44.64611" lon="6.16378">
        <ele>1056</ele>
        <time>2018-05-10T14:57:22Z</time>
      </trkpt>
      <trkpt lat="44.64611" lon="6.16381">
        <ele>1056</ele>
        <time>2018-05-10T14:57:23Z</time>
      </trkpt>
      <trkpt lat="44.6461" lon="6.16383">
        <ele>1056</ele>
        <time>2018-05-10T14:57:24Z</time>
      </trkpt>
      <trkpt lat="44.6461" lon="6.16385">
        <ele>1056</ele>
        <time>2018-05-10T14:57:25Z</time>
      </trkpt>
      <trkpt lat="44.64609" lon="6.16418">
        <ele>1057</ele>
        <time>2018-05-10T14:57:42Z</time>
      </trkpt>
      <trkpt lat="44.64611" lon="6.16455">
        <ele>1057</ele>
        <time>2018-05-10T14:58:01Z</time>
      </trkpt>
      <trkpt lat="44.64611" lon="6.16465">
        <ele>1058</ele>
        <time>2018-05-10T14:58:07Z</time>
      </trkpt>
      <trkpt lat="44.64611" lon="6.16495">
        <ele>1058</ele>
        <time>2018-05-10T14:58:22Z</time>
      </trkpt>
      <trkpt lat="44.64612" lon="6.16525">
        <ele>1059</ele>
        <time>2018-05-10T14:58:38Z</time>
      </trkpt>
      <trkpt lat="44.64614" lon="6.16534">
        <ele>1059</ele>
        <time>2018-05-10T14:58:43Z</time>
      </trkpt>
      <trkpt lat="44.64615" lon="6.1654">
        <ele>1059</ele>
        <time>2018-05-10T14:58:46Z</time>
      </trkpt>
      <trkpt lat="44.64615" lon="6.16542">
        <ele>1059</ele>
        <time>2018-05-10T14:58:47Z</time>
      </trkpt>
      <trkpt lat="44.64616" lon="6.16545">
        <ele>1059</ele>
        <time>2018-05-10T14:58:48Z</time>
      </trkpt>
      <trkpt lat="44.6462" lon="6.16575">
        <ele>1059</ele>
        <time>2018-05-10T14:59:03Z</time>
      </trkpt>
      <trkpt lat="44.64624" lon="6.16607">
        <ele>1059</ele>
        <time>2018-05-10T14:59:17Z</time>
      </trkpt>
      <trkpt lat="44.64624" lon="6.16625">
        <ele>1059</ele>
        <time>2018-05-10T14:59:29Z</time>
      </trkpt>
      <trkpt lat="44.64624" lon="6.16627">
        <ele>1059</ele>
        <time>2018-05-10T14:59:30Z</time>
      </trkpt>
      <trkpt lat="44.64624" lon="6.16629">
        <ele>1059</ele>
        <time>2018-05-10T14:59:31Z</time>
      </trkpt>
      <trkpt lat="44.64627" lon="6.16639">
        <ele>1059</ele>
        <time>2018-05-10T14:59:38Z</time>
      </trkpt>
      <trkpt lat="44.64635" lon="6.16638">
        <ele>1060</ele>
        <time>2018-05-10T14:59:46Z</time>
      </trkpt>
      <trkpt lat="44.64637" lon="6.16638">
        <ele>1060</ele>
        <time>2018-05-10T14:59:47Z</time>
      </trkpt>
      <trkpt lat="44.64641" lon="6.1664">
        <ele>1060</ele>
        <time>2018-05-10T14:59:49Z</time>
      </trkpt>
      <trkpt lat="44.64661" lon="6.16659">
        <ele>1061</ele>
        <time>2018-05-10T15:00:04Z</time>
      </trkpt>
      <trkpt lat="44.64678" lon="6.16677">
        <ele>1061</ele>
        <time>2018-05-10T15:00:17Z</time>
      </trkpt>
      <trkpt lat="44.64692" lon="6.16698">
        <ele>1060</ele>
        <time>2018-05-10T15:00:31Z</time>
      </trkpt>
      <trkpt lat="44.64693" lon="6.16702">
        <ele>1059</ele>
        <time>2018-05-10T15:00:33Z</time>
      </trkpt>
      <trkpt lat="44.64705" lon="6.16725">
        <ele>1059</ele>
        <time>2018-05-10T15:00:49Z</time>
      </trkpt>
      <trkpt lat="44.64708" lon="6.16729">
        <ele>1059</ele>
        <time>2018-05-10T15:00:52Z</time>
      </trkpt>
      <trkpt lat="44.64722" lon="6.16755">
        <ele>1059</ele>
        <time>2018-05-10T15:01:10Z</time>
      </trkpt>
      <trkpt lat="44.6474" lon="6.16776">
        <ele>1058</ele>
        <time>2018-05-10T15:01:25Z</time>
      </trkpt>
      <trkpt lat="44.64762" lon="6.16795">
        <ele>1056</ele>
        <time>2018-05-10T15:01:43Z</time>
      </trkpt>
      <trkpt lat="44.64773" lon="6.16828">
        <ele>1056</ele>
        <time>2018-05-10T15:02:02Z</time>
      </trkpt>
      <trkpt lat="44.64789" lon="6.16862">
        <ele>1057</ele>
        <time>2018-05-10T15:02:22Z</time>
      </trkpt>
      <trkpt lat="44.64801" lon="6.16896">
        <ele>1057</ele>
        <time>2018-05-10T15:02:42Z</time>
      </trkpt>
      <trkpt lat="44.64807" lon="6.16936">
        <ele>1058</ele>
        <time>2018-05-10T15:03:02Z</time>
      </trkpt>
      <trkpt lat="44.64807" lon="6.16937">
        <ele>1058</ele>
        <time>2018-05-10T15:03:03Z</time>
      </trkpt>
      <trkpt lat="44.64812" lon="6.16942">
        <ele>1058</ele>
        <time>2018-05-10T15:03:09Z</time>
      </trkpt>
      <trkpt lat="44.64816" lon="6.16941">
        <ele>1058</ele>
        <time>2018-05-10T15:03:12Z</time>
      </trkpt>
      <trkpt lat="44.6483" lon="6.1694">
        <ele>1058</ele>
        <time>2018-05-10T15:03:23Z</time>
      </trkpt>
      <trkpt lat="44.64835" lon="6.16974">
        <ele>1057</ele>
        <time>2018-05-10T15:03:43Z</time>
      </trkpt>
      <trkpt lat="44.64838" lon="6.17007">
        <ele>1058</ele>
        <time>2018-05-10T15:04:01Z</time>
      </trkpt>
      <trkpt lat="44.6485" lon="6.17032">
        <ele>1058</ele>
        <time>2018-05-10T15:04:17Z</time>
      </trkpt>
      <trkpt lat="44.64861" lon="6.17051">
        <ele>1058</ele>
        <time>2018-05-10T15:04:26Z</time>
      </trkpt>
      <trkpt lat="44.6487" lon="6.17087">
        <ele>1060</ele>
        <time>2018-05-10T15:04:44Z</time>
      </trkpt>
      <trkpt lat="44.64878" lon="6.17118">
        <ele>1060</ele>
        <time>2018-05-10T15:05:01Z</time>
      </trkpt>
      <trkpt lat="44.64886" lon="6.17157">
        <ele>1060</ele>
        <time>2018-05-10T15:05:23Z</time>
      </trkpt>
      <trkpt lat="44.64896" lon="6.17194">
        <ele>1061</ele>
        <time>2018-05-10T15:05:43Z</time>
      </trkpt>
      <trkpt lat="44.64903" lon="6.17228">
        <ele>1061</ele>
        <time>2018-05-10T15:06:02Z</time>
      </trkpt>
      <trkpt lat="44.64909" lon="6.17246">
        <ele>1061</ele>
        <time>2018-05-10T15:06:14Z</time>
      </trkpt>
      <trkpt lat="44.64918" lon="6.17282">
        <ele>1062</ele>
        <time>2018-05-10T15:06:34Z</time>
      </trkpt>
      <trkpt lat="44.64935" lon="6.17321">
        <ele>1062</ele>
        <time>2018-05-10T15:06:57Z</time>
      </trkpt>
      <trkpt lat="44.64941" lon="6.17333">
        <ele>1062</ele>
        <time>2018-05-10T15:07:11Z</time>
      </trkpt>
      <trkpt lat="44.64941" lon="6.17333">
        <ele>1063</ele>
        <time>2018-05-10T15:07:12Z</time>
      </trkpt>
      <trkpt lat="44.6495" lon="6.17336">
        <ele>1062</ele>
        <time>2018-05-10T15:07:18Z</time>
      </trkpt>
      <trkpt lat="44.64977" lon="6.17328">
        <ele>1062</ele>
        <time>2018-05-10T15:07:39Z</time>
      </trkpt>
      <trkpt lat="44.65003" lon="6.17322">
        <ele>1062</ele>
        <time>2018-05-10T15:07:57Z</time>
      </trkpt>
      <trkpt lat="44.65031" lon="6.17317">
        <ele>1063</ele>
        <time>2018-05-10T15:08:16Z</time>
      </trkpt>
      <trkpt lat="44.65045" lon="6.17315">
        <ele>1063</ele>
        <time>2018-05-10T15:08:28Z</time>
      </trkpt>
      <trkpt lat="44.65063" lon="6.17313">
        <ele>1063</ele>
        <time>2018-05-10T15:08:42Z</time>
      </trkpt>
      <trkpt lat="44.65088" lon="6.17314">
        <ele>1064</ele>
        <time>2018-05-10T15:08:58Z</time>
      </trkpt>
      <trkpt lat="44.65116" lon="6.17329">
        <ele>1064</ele>
        <time>2018-05-10T15:09:16Z</time>
      </trkpt>
      <trkpt lat="44.65133" lon="6.17359">
        <ele>1064</ele>
        <time>2018-05-10T15:09:35Z</time>
      </trkpt>
      <trkpt lat="44.65152" lon="6.17407">
        <ele>1064</ele>
        <time>2018-05-10T15:10:03Z</time>
      </trkpt>
      <trkpt lat="44.65168" lon="6.17448">
        <ele>1065</ele>
        <time>2018-05-10T15:10:26Z</time>
      </trkpt>
      <trkpt lat="44.65186" lon="6.17496">
        <ele>1066</ele>
        <time>2018-05-10T15:10:53Z</time>
      </trkpt>
      <trkpt lat="44.65203" lon="6.17543">
        <ele>1067</ele>
        <time>2018-05-10T15:11:18Z</time>
      </trkpt>
      <trkpt lat="44.65224" lon="6.17601">
        <ele>1067</ele>
        <time>2018-05-10T15:11:51Z</time>
      </trkpt>
      <trkpt lat="44.65243" lon="6.17647">
        <ele>1067</ele>
        <time>2018-05-10T15:12:17Z</time>
      </trkpt>
      <trkpt lat="44.65263" lon="6.17684">
        <ele>1069</ele>
        <time>2018-05-10T15:12:39Z</time>
      </trkpt>
      <trkpt lat="44.65286" lon="6.17697">
        <ele>1070</ele>
        <time>2018-05-10T15:12:59Z</time>
      </trkpt>
      <trkpt lat="44.65288" lon="6.17697">
        <ele>1070</ele>
        <time>2018-05-10T15:13:01Z</time>
      </trkpt>
      <trkpt lat="44.653" lon="6.17699">
        <ele>1070</ele>
        <time>2018-05-10T15:13:10Z</time>
      </trkpt>
      <trkpt lat="44.65307" lon="6.17701">
        <ele>1070</ele>
        <time>2018-05-10T15:13:14Z</time>
      </trkpt>
      <trkpt lat="44.65332" lon="6.177">
        <ele>1071</ele>
        <time>2018-05-10T15:13:31Z</time>
      </trkpt>
      <trkpt lat="44.65355" lon="6.17692">
        <ele>1077</ele>
        <time>2018-05-10T15:13:48Z</time>
      </trkpt>
      <trkpt lat="44.65377" lon="6.17672">
        <ele>1079</ele>
        <time>2018-05-10T15:14:05Z</time>
      </trkpt>
      <trkpt lat="44.6538" lon="6.17668">
        <ele>1080</ele>
        <time>2018-05-10T15:14:20Z</time>
      </trkpt>
      <trkpt lat="44.65383" lon="6.17673">
        <ele>1080</ele>
        <time>2018-05-10T15:14:28Z</time>
      </trkpt>
      <trkpt lat="44.65404" lon="6.17676">
        <ele>1082</ele>
        <time>2018-05-10T15:14:43Z</time>
      </trkpt>
      <trkpt lat="44.65414" lon="6.17675">
        <ele>1083</ele>
        <time>2018-05-10T15:14:49Z</time>
      </trkpt>
      <trkpt lat="44.65427" lon="6.17669">
        <ele>1088</ele>
        <time>2018-05-10T15:14:56Z</time>
      </trkpt>
      <trkpt lat="44.65441" lon="6.17648">
        <ele>1090</ele>
        <time>2018-05-10T15:15:05Z</time>
      </trkpt>
      <trkpt lat="44.65456" lon="6.17624">
        <ele>1091</ele>
        <time>2018-05-10T15:15:21Z</time>
      </trkpt>
      <trkpt lat="44.65456" lon="6.17626">
        <ele>1091</ele>
        <time>2018-05-10T15:15:22Z</time>
      </trkpt>
      <trkpt lat="44.6545" lon="6.17648">
        <ele>1091</ele>
        <time>2018-05-10T15:15:35Z</time>
      </trkpt>
      <trkpt lat="44.65448" lon="6.17676">
        <ele>1093</ele>
        <time>2018-05-10T15:15:49Z</time>
      </trkpt>
      <trkpt lat="44.65462" lon="6.17709">
        <ele>1095</ele>
        <time>2018-05-10T15:16:07Z</time>
      </trkpt>
      <trkpt lat="44.65485" lon="6.17747">
        <ele>1098</ele>
        <time>2018-05-10T15:16:33Z</time>
      </trkpt>
      <trkpt lat="44.65498" lon="6.17755">
        <ele>1100</ele>
        <time>2018-05-10T15:16:44Z</time>
      </trkpt>
      <trkpt lat="44.65505" lon="6.17735">
        <ele>1104</ele>
        <time>2018-05-10T15:16:47Z</time>
      </trkpt>
      <trkpt lat="44.65501" lon="6.17708">
        <ele>1106</ele>
        <time>2018-05-10T15:17:06Z</time>
      </trkpt>
      <trkpt lat="44.655" lon="6.17709">
        <ele>1098</ele>
        <time>2018-05-10T15:17:07Z</time>
      </trkpt>
    </trkseg>
  </trk>
</gpx>